[[{"header":{"parameterUnit":"m.s-1","parameterCategory":1,"la1":31.0,"la2":29.5877,"lo1":-88.7671,"lo2":-86.6584,"dy":0.0162,"dx":0.0185,"nx":115,"ny":88,"refTime":"2023-11-07T18:00:00:Z","depth":0,"parameterNumber":2,"parameterNumberName":"U-component_of_WINDS"},"data":[0.0,0.0,0.0,0.0,0.0,0.0,0.0,0.0,0.0,0.0,0.0,0.0,0.0,0.0,0.0,0.0,0.0,0.0,0.0,0.0,0.0,0.0,0.0,0.0,0.0,0.0,0.0,0.0,0.0,0.0,0.0,0.0,0.0,0.0,0.0,0.0,0.0,0.0,0.0,0.0,0.0,0.0,0.0,0.0,0.0,0.0,0.0,0.0,0.0,0.0,0.0,0.0,0.0,0.0,0.0,0.0,0.0,0.0,0.0,0.0,0.0,0.0,0.0,0.0,0.0,0.0,0.0,0.0,0.0,0.0,0.0,0.0,0.0,0.0,0.0,0.0,0.0,0.0,0.0,0.0,0.0,0.0,0.0,0.0,0.0,0.0,0.0,0.0,0.0,0.0,0.0,0.0,0.0,0.0,0.0,0.0,0.0,0.0,0.0,0.0,0.0,0.0,0.0,0.0,0.0,0.0,0.0,0.0,0.0,0.0,0.0,0.0,0.0,0.0,0.0,0.0,0.0,0.0,0.0,0.0,0.0,0.0,0.0,0.0,0.0,0.0,0.0,0.0,0.0,0.0,0.0,0.0,0.0,0.0,0.0,0.0,0.0,0.0,0.0,0.0,0.0,0.0,0.0,0.0,0.0,0.0,0.0,0.0,0.0,0.0,0.0,0.0,0.0,0.0,0.0,0.0,0.0,0.0,0.0,0.0,0.0,0.0,0.0,0.0,0.0,0.0,0.0,0.0,0.0,0.0,0.0,0.0,0.0,0.0,0.0,0.0,0.0,0.0,0.0,0.0,0.0,0.0,0.0,0.0,0.0,0.0,0.0,0.0,0.0,0.0,0.0,0.0,0.0,0.0,0.0,0.0,0.0,0.0,0.0,0.0,0.0,0.0,0.0,0.0,0.0,0.0,0.0,0.0,0.0,0.0,0.0,0.0,0.0,0.0,0.0,0.0,0.0,0.0,0.0,0.0,0.0,0.0,0.0,0.0,0.0,0.0,0.0,0.0,0.0,0.0,0.0,0.0,0.0,0.0,0.0,0.0,0.0,0.0,0.0,0.0,0.0,0.0,0.0,0.0,0.0,0.0,0.0,0.0,0.0,0.0,0.0,0.0,0.0,0.0,0.0,0.0,0.0,0.0,0.0,0.0,0.0,0.0,0.0,0.0,0.0,0.0,0.0,0.0,0.0,0.0,0.0,0.0,0.0,0.0,0.0,0.0,0.0,0.0,0.0,0.0,0.0,0.0,0.0,0.0,0.0,0.0,0.0,0.0,0.0,0.0,0.0,0.0,0.0,0.0,0.0,0.0,0.0,0.0,0.0,0.0,0.0,0.0,0.0,0.0,0.0,0.0,0.0,0.0,0.0,0.0,0.0,0.0,0.0,0.0,0.0,0.0,0.0,0.0,0.0,0.0,0.0,0.0,0.0,0.0,0.0,0.0,0.0,0.0,0.0,0.0,0.0,0.0,0.0,0.0,0.0,0.0,0.0,0.0,0.0,0.0,0.0,0.0,0.0,0.0,0.0,0.0,0.0,0.0,0.0,0.0,0.0,0.0,0.0,0.0,0.0,0.0,0.0,0.0,0.0,0.0,0.0,0.0,0.0,0.0,0.0,0.0,0.0,0.0,0.0,0.0,0.0,0.0,0.0,0.0,0.0,0.0,0.0,0.0,0.0,0.0,0.0,0.0,0.0,0.0,0.0,0.0,0.0,0.0,0.0,0.0,0.0,0.0,0.0,0.0,0.0,0.0,0.0,0.0,0.0,0.0,0.0,0.0,0.0,0.0,0.0,0.0,0.0,0.0,0.0,0.0,0.0,0.0,0.0,0.0,0.0,0.0,0.0,0.0,0.0,0.0,0.0,0.0,0.0,0.0,0.0,0.0,0.0,0.0,0.0,0.0,0.0,0.0,0.0,0.0,0.0,0.0,0.0,0.0,0.0,0.0,0.0,0.0,0.0,0.0,0.0,0.0,0.0,0.0,0.0,0.0,0.0,0.0,0.0,0.0,0.0,0.0,0.0,0.0,0.0,0.0,0.0,0.0,0.0,0.0,0.0,0.0,0.0,0.0,0.0,0.0,0.0,0.0,0.0,0.0,0.0,0.0,0.0,0.0,0.0,0.0,0.0,0.0,0.0,0.0,0.0,0.0,0.0,0.0,0.0,0.0,0.0,0.0,0.0,0.0,0.0,0.0,0.0,0.0,0.0,0.0,0.0,0.0,0.0,0.0,0.0,0.0,0.0,0.0,0.0,0.0,0.0,0.0,0.0,0.0,0.0,0.0,0.0,0.0,0.0,0.0,0.0,0.0,0.0,0.0,0.0,0.0,0.0,0.0,0.0,0.0,0.0,0.0,0.0,0.0,0.0,0.0,0.0,0.0,0.0,0.0,0.0,0.0,0.0,0.0,0.0,0.0,0.0,0.0,0.0,0.0,0.0,0.0,0.0,0.0,0.0,0.0,0.0,0.0,0.0,0.0,0.0,0.0,0.0,0.0,0.0,0.0,0.0,0.0,0.0,0.0,0.0,0.0,0.0,0.0,0.0,0.0,0.0,0.0,0.0,0.0,0.0,0.0,0.0,0.0,0.0,0.0,0.0,0.0,0.0,0.0,0.0,0.0,0.0,0.0,0.0,0.0,0.0,0.0,0.0,0.0,0.0,0.0,0.0,0.0,0.0,0.0,0.0,0.0,0.0,0.0,0.0,0.0,0.0,0.0,0.0,0.0,0.0,0.0,0.0,0.0,0.0,0.0,0.0,0.0,0.0,0.0,0.0,0.0,0.0,0.0,0.0,0.0,0.0,0.0,0.0,0.0,0.0,0.0,0.0,0.0,0.0,0.0,0.0,0.0,0.0,0.0,0.0,0.0,0.0,0.0,0.0,0.0,0.0,0.0,0.0,0.0,0.0,0.0,0.0,0.0,0.0,0.0,0.0,0.0,0.0,0.0,0.0,0.0,0.0,0.0,0.0,0.0,0.0,0.0,0.0,0.0,0.0,0.0,0.0,0.0,0.0,0.0,0.0,0.0,0.0,0.0,0.0,0.0,0.0,0.0,0.0,0.0,0.0,0.0,0.0,0.0,0.0,0.0,0.0,0.0,0.0,0.0,0.0,0.0,0.0,0.0,0.0,0.0,0.0,0.0,0.0,0.0,0.0,0.0,0.0,0.0,0.0,0.0,0.0,0.0,0.0,0.0,0.0,0.0,0.0,0.0,0.0,0.0,0.0,0.0,0.0,0.0,0.0,0.0,0.0,0.0,0.0,0.0,0.0,0.0,0.0,0.0,0.0,0.0,0.0,0.0,0.0,0.0,0.0,0.0,0.0,0.0,0.0,0.0,0.0,0.0,0.0,0.0,0.0,0.0,0.0,0.0,0.0,0.0,0.0,0.0,0.0,0.0,0.0,0.0,0.0,0.0,0.0,0.0,0.0,0.0,0.0,0.0,0.0,0.0,0.0,0.0,0.0,0.0,0.0,0.0,0.0,0.0,0.0,0.0,0.0,0.0,0.0,0.0,0.0,0.0,0.0,0.0,0.0,0.0,0.0,0.0,0.0,0.0,0.0,0.0,0.0,0.0,0.0,0.0,0.0,0.0,0.0,0.0,0.0,0.0,0.0,0.0,0.0,0.0,0.0,0.0,0.0,0.0,0.0,0.0,0.0,0.0,0.0,0.0,0.0,0.0,0.0,0.0,0.0,0.0,0.0,0.0,0.0,0.0,0.0,0.0,0.0,0.0,0.0,0.0,0.0,0.0,0.0,0.0,0.0,0.0,0.0,0.0,0.0,0.0,0.0,0.0,0.0,0.0,0.0,0.0,0.0,0.0,0.0,0.0,0.0,0.0,0.0,0.0,0.0,0.0,0.0,0.0,0.0,0.0,0.0,0.0,0.0,0.0,0.0,0.0,0.0,0.0,0.0,0.0,0.0,0.0,0.0,0.0,0.0,0.0,0.0,0.0,0.0,0.0,0.0,0.0,0.0,0.0,0.0,0.0,0.0,0.0,0.0,0.0,0.0,0.0,0.0,0.0,0.0,0.0,0.0,0.0,0.0,0.0,0.0,0.0,0.0,0.0,0.0,0.0,0.0,0.0,0.0,0.0,0.0,0.0,0.0,0.0,0.0,0.0,0.0,0.0,0.0,0.0,0.0,0.0,0.0,0.0,0.0,0.0,0.0,0.0,0.0,0.0,0.0,0.0,0.0,0.0,0.0,0.0,0.0,0.0,0.0,0.0,0.0,0.0,0.0,0.0,0.0,0.0,0.0,0.0,0.0,0.0,-2.0562,0.0,0.0,0.0,0.0,0.0,0.0,0.0,0.0,0.0,0.0,0.0,0.0,0.0,0.0,0.0,0.0,0.0,0.0,0.0,0.0,0.0,0.0,0.0,0.0,0.0,0.0,0.0,0.0,0.0,0.0,0.0,0.0,0.0,0.0,0.0,0.0,0.0,0.0,0.0,0.0,0.0,0.0,0.0,0.0,0.0,0.0,0.0,0.0,0.0,0.0,0.0,0.0,0.0,0.0,0.0,0.0,0.0,0.0,0.0,0.0,0.0,0.0,0.0,0.0,0.0,0.0,0.0,0.0,0.0,0.0,0.0,0.0,0.0,0.0,0.0,0.0,0.0,0.0,0.0,0.0,0.0,0.0,0.0,0.0,0.0,0.0,0.0,0.0,0.0,0.0,0.0,0.0,0.0,0.0,0.0,0.0,0.0,0.0,0.0,0.0,0.0,0.0,0.0,0.0,0.0,0.0,0.0,0.0,0.0,0.0,-2.1484,-2.0644,-2.1875,-2.1912,-2.0571,0.0,0.0,0.0,0.0,0.0,0.0,0.0,0.0,0.0,0.0,0.0,0.0,0.0,0.0,0.0,0.0,0.0,0.0,0.0,0.0,0.0,0.0,0.0,0.0,0.0,0.0,0.0,0.0,0.0,0.0,0.0,0.0,0.0,0.0,0.0,0.0,0.0,0.0,0.0,0.0,0.0,0.0,0.0,0.0,0.0,0.0,0.0,0.0,0.0,0.0,0.0,0.0,0.0,0.0,0.0,0.0,0.0,0.0,0.0,0.0,0.0,0.0,0.0,0.0,0.0,0.0,0.0,0.0,0.0,0.0,0.0,0.0,0.0,0.0,0.0,0.0,0.0,0.0,0.0,0.0,0.0,0.0,0.0,0.0,0.0,0.0,0.0,0.0,0.0,0.0,0.0,0.0,0.0,0.0,0.0,0.0,0.0,0.0,0.0,0.0,0.0,0.0,0.0,0.0,0.0,0.0,0.0,0.0,0.0,0.0,0.0,0.0,-2.3008,-2.3046,-2.1747,0.0,0.0,0.0,0.0,0.0,0.0,0.0,0.0,0.0,0.0,0.0,0.0,0.0,0.0,0.0,0.0,0.0,0.0,0.0,0.0,0.0,0.0,0.0,0.0,0.0,0.0,0.0,0.0,0.0,0.0,0.0,0.0,0.0,0.0,0.0,0.0,0.0,0.0,0.0,0.0,0.0,0.0,0.0,0.0,0.0,0.0,0.0,0.0,0.0,0.0,0.0,0.0,0.0,0.0,0.0,0.0,0.0,0.0,0.0,0.0,0.0,0.0,0.0,0.0,0.0,0.0,0.0,0.0,0.0,0.0,0.0,0.0,0.0,0.0,0.0,0.0,0.0,0.0,0.0,0.0,0.0,0.0,0.0,0.0,0.0,0.0,0.0,0.0,0.0,0.0,0.0,0.0,0.0,0.0,0.0,0.0,0.0,0.0,0.0,0.0,0.0,0.0,0.0,0.0,0.0,0.0,0.0,0.0,0.0,0.0,-2.2168,-2.5137,-2.5352,0.0,-2.5147,0.0,0.0,0.0,0.0,0.0,0.0,0.0,0.0,0.0,0.0,0.0,0.0,0.0,0.0,0.0,0.0,0.0,0.0,0.0,0.0,0.0,0.0,0.0,0.0,0.0,0.0,0.0,0.0,0.0,0.0,0.0,0.0,0.0,0.0,0.0,0.0,0.0,0.0,0.0,0.0,0.0,0.0,0.0,0.0,0.0,0.0,0.0,0.0,0.0,0.0,0.0,0.0,0.0,0.0,0.0,0.0,0.0,0.0,0.0,0.0,0.0,0.0,0.0,0.0,0.0,0.0,0.0,0.0,0.0,0.0,0.0,0.0,0.0,0.0,0.0,0.0,0.0,0.0,0.0,0.0,0.0,0.0,0.0,0.0,0.0,0.0,0.0,0.0,0.0,0.0,0.0,0.0,0.0,0.0,0.0,0.0,0.0,0.0,0.0,0.0,0.0,0.0,0.0,0.0,0.0,0.0,0.0,0.0,0.0,0.0,-2.3281,-2.5664,-2.5703,-2.5214,0.0,0.0,0.0,0.0,0.0,0.0,0.0,0.0,0.0,0.0,0.0,0.0,0.0,0.0,0.0,0.0,0.0,0.0,0.0,0.0,0.0,0.0,0.0,0.0,0.0,0.0,0.0,0.0,0.0,0.0,0.0,0.0,0.0,0.0,0.0,0.0,0.0,0.0,0.0,0.0,0.0,0.0,0.0,0.0,0.0,0.0,0.0,0.0,0.0,0.0,0.0,0.0,0.0,0.0,0.0,0.0,0.0,0.0,0.0,0.0,0.0,0.0,0.0,0.0,0.0,0.0,0.0,0.0,0.0,0.0,0.0,0.0,0.0,0.0,0.0,0.0,0.0,0.0,0.0,0.0,0.0,0.0,0.0,0.0,0.0,0.0,0.0,0.0,0.0,0.0,0.0,0.0,0.0,0.0,0.0,0.0,0.0,0.0,0.0,0.0,0.0,0.0,0.0,0.0,0.0,0.0,0.0,0.0,0.0,0.0,-2.3379,-2.457,-2.6602,-2.6074,-2.5116,-2.3858,0.0,0.0,0.0,0.0,0.0,0.0,0.0,0.0,0.0,0.0,0.0,0.0,0.0,0.0,0.0,0.0,0.0,0.0,0.0,0.0,0.0,0.0,0.0,0.0,0.0,0.0,0.0,0.0,0.0,0.0,0.0,0.0,0.0,0.0,0.0,0.0,0.0,0.0,0.0,0.0,0.0,0.0,0.0,0.0,0.0,0.0,0.0,0.0,0.0,0.0,0.0,0.0,0.0,0.0,0.0,0.0,0.0,0.0,0.0,0.0,0.0,0.0,0.0,0.0,0.0,0.0,0.0,0.0,0.0,0.0,0.0,0.0,0.0,0.0,0.0,0.0,0.0,0.0,0.0,0.0,0.0,0.0,0.0,0.0,0.0,0.0,0.0,0.0,0.0,0.0,0.0,0.0,0.0,0.0,0.0,0.0,0.0,0.0,0.0,0.0,0.0,0.0,0.0,0.0,0.0,0.0,0.0,0.0,-2.8672,-2.5957,-2.5957,-2.918,-2.6992,-2.5663,0.0,0.0,0.0,0.0,0.0,0.0,0.0,0.0,0.0,0.0,0.0,0.0,0.0,0.0,0.0,0.0,0.0,0.0,0.0,0.0,0.0,0.0,0.0,0.0,0.0,0.0,0.0,0.0,0.0,0.0,0.0,0.0,0.0,0.0,0.0,0.0,0.0,0.0,0.0,0.0,0.0,0.0,0.0,0.0,0.0,0.0,0.0,0.0,0.0,0.0,0.0,0.0,0.0,0.0,0.0,0.0,0.0,0.0,0.0,0.0,0.0,0.0,0.0,0.0,0.0,0.0,0.0,0.0,0.0,0.0,0.0,0.0,0.0,0.0,0.0,0.0,0.0,0.0,0.0,0.0,0.0,0.0,0.0,0.0,0.0,0.0,0.0,0.0,0.0,0.0,0.0,0.0,0.0,0.0,0.0,0.0,0.0,0.0,0.0,0.0,0.0,0.0,0.0,0.0,0.0,0.0,0.0,0.0,0.0,-2.375,-2.4727,-2.6621,-2.9375,-2.707,-2.5956,0.0,0.0,0.0,0.0,0.0,0.0,0.0,0.0,0.0,0.0,0.0,0.0,0.0,0.0,0.0,0.0,0.0,0.0,0.0,0.0,0.0,0.0,0.0,0.0,0.0,0.0,0.0,0.0,0.0,0.0,0.0,0.0,0.0,0.0,0.0,0.0,0.0,0.0,0.0,0.0,0.0,0.0,0.0,0.0,0.0,0.0,0.0,0.0,0.0,0.0,0.0,0.0,0.0,0.0,0.0,0.0,0.0,0.0,0.0,0.0,0.0,0.0,0.0,0.0,0.0,0.0,0.0,0.0,0.0,0.0,0.0,0.0,0.0,0.0,0.0,0.0,0.0,0.0,0.0,0.0,0.0,0.0,0.0,0.0,0.0,0.0,0.0,0.0,0.0,0.0,0.0,0.0,0.0,0.0,0.0,0.0,0.0,0.0,0.0,0.0,0.0,0.0,0.0,0.0,0.0,0.0,0.0,0.0,0.0,-2.2695,0.0,-2.7539,-2.8613,-2.6777,-2.5448,0.0,0.0,0.0,0.0,0.0,0.0,0.0,0.0,0.0,0.0,0.0,0.0,0.0,0.0,0.0,0.0,0.0,0.0,0.0,0.0,0.0,0.0,0.0,0.0,0.0,0.0,0.0,0.0,0.0,0.0,0.0,0.0,0.0,0.0,0.0,0.0,0.0,0.0,0.0,0.0,0.0,0.0,0.0,0.0,0.0,0.0,0.0,0.0,0.0,0.0,0.0,0.0,0.0,0.0,0.0,0.0,0.0,0.0,0.0,0.0,0.0,0.0,0.0,0.0,0.0,0.0,0.0,0.0,0.0,0.0,0.0,0.0,0.0,0.0,0.0,0.0,0.0,0.0,0.0,0.0,0.0,0.0,0.0,0.0,0.0,0.0,0.0,0.0,0.0,0.0,0.0,0.0,0.0,0.0,0.0,0.0,0.0,0.0,0.0,0.0,0.0,0.0,0.0,0.0,0.0,0.0,0.0,0.0,-2.2676,-2.6699,-2.8457,-2.8594,-2.7148,-2.6172,-2.4081,0.0,0.0,0.0,0.0,0.0,0.0,0.0,0.0,0.0,0.0,0.0,0.0,0.0,0.0,0.0,0.0,0.0,0.0,0.0,0.0,0.0,0.0,0.0,0.0,0.0,0.0,0.0,0.0,0.0,0.0,0.0,0.0,0.0,0.0,0.0,0.0,0.0,0.0,0.0,0.0,0.0,0.0,0.0,0.0,0.0,0.0,0.0,0.0,0.0,0.0,0.0,0.0,0.0,0.0,0.0,0.0,0.0,0.0,0.0,0.0,0.0,0.0,0.0,0.0,0.0,0.0,0.0,0.0,0.0,0.0,0.0,0.0,0.0,0.0,0.0,0.0,0.0,0.0,0.0,0.0,0.0,0.0,0.0,0.0,0.0,0.0,0.0,0.0,0.0,0.0,0.0,0.0,0.0,0.0,0.0,0.0,0.0,0.0,0.0,0.0,0.0,0.0,0.0,0.0,0.0,0.0,0.0,0.0,0.0,-2.4316,-2.543,-2.748,-3.0254,-2.5684,-2.4218,0.0,0.0,0.0,0.0,0.0,0.0,0.0,0.0,0.0,0.0,0.0,0.0,0.0,0.0,0.0,0.0,0.0,0.0,0.0,0.0,0.0,0.0,0.0,0.0,0.0,0.0,0.0,0.0,0.0,0.0,0.0,0.0,0.0,0.0,0.0,0.0,0.0,0.0,0.0,0.0,0.0,0.0,0.0,0.0,0.0,0.0,0.0,0.0,0.0,0.0,0.0,0.0,0.0,0.0,0.0,0.0,0.0,0.0,0.0,0.0,0.0,0.0,0.0,0.0,0.0,0.0,0.0,0.0,0.0,0.0,0.0,0.0,0.0,0.0,0.0,0.0,0.0,0.0,0.0,0.0,0.0,0.0,0.0,0.0,0.0,0.0,0.0,0.0,0.0,0.0,0.0,0.0,0.0,0.0,0.0,0.0,0.0,0.0,0.0,0.0,0.0,0.0,0.0,0.0,0.0,0.0,0.0,0.0,0.0,-2.6074,-2.7148,-2.8848,-3.1172,-2.6699,-2.5019,-2.6503,0.0,0.0,0.0,0.0,0.0,0.0,0.0,0.0,0.0,0.0,0.0,0.0,0.0,0.0,0.0,0.0,0.0,0.0,0.0,0.0,0.0,0.0,0.0,0.0,0.0,0.0,0.0,0.0,0.0,0.0,0.0,0.0,0.0,0.0,0.0,0.0,0.0,0.0,0.0,0.0,0.0,0.0,0.0,0.0,0.0,0.0,0.0,0.0,0.0,0.0,0.0,0.0,0.0,0.0,0.0,0.0,0.0,0.0,0.0,0.0,0.0,0.0,0.0,0.0,0.0,0.0,0.0,0.0,0.0,0.0,0.0,0.0,0.0,0.0,0.0,0.0,0.0,0.0,0.0,0.0,0.0,0.0,0.0,0.0,0.0,0.0,0.0,0.0,0.0,0.0,0.0,0.0,0.0,0.0,0.0,0.0,0.0,0.0,0.0,0.0,0.0,0.0,0.0,0.0,0.0,0.0,0.0,0.0,-3.0859,-3.2715,-3.2519,-3.0215,-2.8867,-2.6347,0.0,0.0,0.0,0.0,0.0,0.0,0.0,0.0,0.0,0.0,0.0,0.0,0.0,0.0,0.0,0.0,0.0,0.0,0.0,0.0,0.0,0.0,0.0,0.0,0.0,0.0,0.0,0.0,0.0,0.0,0.0,0.0,0.0,0.0,0.0,0.0,0.0,0.0,0.0,0.0,0.0,0.0,0.0,0.0,0.0,0.0,0.0,0.0,0.0,0.0,0.0,0.0,0.0,0.0,0.0,0.0,0.0,0.0,0.0,0.0,0.0,0.0,0.0,0.0,0.0,0.0,0.0,0.0,0.0,0.0,0.0,0.0,0.0,0.0,0.0,0.0,0.0,0.0,0.0,0.0,0.0,0.0,0.0,0.0,0.0,0.0,0.0,0.0,0.0,0.0,0.0,0.0,0.0,0.0,0.0,0.0,0.0,0.0,0.0,0.0,0.0,0.0,0.0,0.0,0.0,0.0,0.0,0.0,0.0,-3.0957,-3.5038,-3.662,-3.5234,-3.0134,-2.7125,0.0,0.0,0.0,0.0,0.0,0.0,0.0,0.0,0.0,0.0,0.0,0.0,0.0,0.0,0.0,0.0,0.0,0.0,0.0,0.0,0.0,0.0,0.0,0.0,0.0,0.0,0.0,0.0,0.0,0.0,0.0,0.0,0.0,0.0,0.0,0.0,0.0,0.0,0.0,0.0,0.0,0.0,0.0,0.0,0.0,0.0,0.0,0.0,0.0,0.0,0.0,0.0,0.0,0.0,0.0,0.0,0.0,0.0,0.0,0.0,0.0,0.0,0.0,0.0,0.0,0.0,0.0,0.0,0.0,0.0,0.0,0.0,0.0,0.0,0.0,0.0,0.0,0.0,0.0,0.0,0.0,0.0,0.0,0.0,0.0,0.0,0.0,0.0,0.0,0.0,0.0,0.0,0.0,0.0,0.0,0.0,0.0,0.0,0.0,0.0,0.0,0.0,0.0,0.0,0.0,0.0,0.0,0.0,-3.0586,-3.3027,-3.7361,-3.9057,-3.7781,-3.2852,-2.9221,0.0,0.0,0.0,0.0,0.0,0.0,0.0,0.0,0.0,0.0,0.0,0.0,0.0,0.0,0.0,0.0,0.0,0.0,0.0,0.0,0.0,0.0,0.0,0.0,0.0,0.0,0.0,0.0,0.0,0.0,0.0,0.0,0.0,0.0,0.0,0.0,0.0,0.0,0.0,0.0,0.0,0.0,0.0,0.0,0.0,0.0,0.0,0.0,0.0,0.0,0.0,0.0,0.0,0.0,0.0,0.0,0.0,0.0,0.0,0.0,0.0,0.0,0.0,0.0,0.0,0.0,0.0,0.0,0.0,0.0,0.0,0.0,0.0,0.0,0.0,0.0,0.0,0.0,0.0,0.0,0.0,0.0,0.0,0.0,0.0,0.0,0.0,0.0,0.0,0.0,0.0,0.0,0.0,0.0,0.0,0.0,0.0,0.0,0.0,0.0,0.0,0.0,0.0,0.0,0.0,0.0,0.0,0.0,-3.2598,-3.5801,-3.9216,-4.0162,-3.8395,-3.5667,-3.1579,0.0,0.0,0.0,0.0,0.0,0.0,0.0,0.0,0.0,0.0,0.0,0.0,0.0,0.0,0.0,0.0,0.0,0.0,0.0,0.0,0.0,0.0,0.0,0.0,0.0,0.0,0.0,0.0,0.0,0.0,0.0,0.0,0.0,0.0,0.0,0.0,0.0,0.0,0.0,0.0,0.0,0.0,0.0,0.0,0.0,0.0,0.0,0.0,0.0,0.0,0.0,0.0,0.0,0.0,0.0,0.0,0.0,0.0,0.0,0.0,0.0,0.0,0.0,0.0,0.0,0.0,0.0,0.0,0.0,0.0,0.0,0.0,0.0,0.0,0.0,0.0,0.0,0.0,0.0,0.0,0.0,0.0,0.0,0.0,0.0,0.0,0.0,0.0,0.0,0.0,0.0,0.0,0.0,0.0,0.0,0.0,0.0,0.0,0.0,0.0,0.0,0.0,0.0,0.0,0.0,0.0,0.0,0.0,-3.2868,-3.4961,-3.8357,-3.9595,-3.8411,-3.3971,-3.0063,0.0,0.0,0.0,0.0,0.0,0.0,0.0,0.0,0.0,0.0,0.0,0.0,0.0,0.0,0.0,0.0,0.0,0.0,0.0,0.0,0.0,0.0,0.0,0.0,0.0,0.0,0.0,0.0,0.0,0.0,0.0,0.0,0.0,0.0,0.0,0.0,0.0,0.0,0.0,0.0,0.0,0.0,0.0,0.0,0.0,0.0,0.0,0.0,-2.0269,0.0,0.0,0.0,0.0,0.0,0.0,0.0,0.0,0.0,0.0,0.0,0.0,0.0,0.0,0.0,0.0,0.0,0.0,0.0,0.0,0.0,0.0,0.0,0.0,0.0,0.0,0.0,0.0,0.0,0.0,0.0,0.0,0.0,0.0,0.0,0.0,0.0,0.0,0.0,0.0,0.0,0.0,0.0,0.0,0.0,0.0,0.0,0.0,0.0,0.0,0.0,0.0,0.0,0.0,0.0,0.0,0.0,0.0,0.0,-3.3358,-3.5898,-3.8489,-3.9169,-3.7664,-3.28,-2.9323,0.0,0.0,0.0,0.0,0.0,0.0,0.0,0.0,0.0,0.0,0.0,0.0,0.0,0.0,0.0,0.0,0.0,0.0,0.0,0.0,0.0,0.0,0.0,0.0,0.0,0.0,0.0,0.0,0.0,0.0,0.0,0.0,0.0,0.0,0.0,0.0,0.0,0.0,0.0,0.0,0.0,0.0,0.0,0.0,0.0,0.0,0.0,0.0,0.0,0.0,0.0,0.0,0.0,0.0,0.0,0.0,0.0,0.0,0.0,0.0,0.0,0.0,0.0,0.0,0.0,0.0,0.0,0.0,0.0,0.0,0.0,0.0,0.0,0.0,0.0,0.0,0.0,0.0,0.0,0.0,0.0,0.0,0.0,0.0,0.0,0.0,0.0,0.0,0.0,0.0,0.0,0.0,0.0,0.0,0.0,0.0,0.0,0.0,0.0,0.0,0.0,0.0,0.0,0.0,0.0,0.0,0.0,-3.0485,-3.371,-3.7167,-3.8539,-3.8363,-3.6596,-3.1663,-2.8608,-2.7768,0.0,0.0,0.0,0.0,0.0,0.0,0.0,0.0,0.0,0.0,0.0,0.0,0.0,0.0,0.0,0.0,0.0,0.0,0.0,0.0,0.0,0.0,0.0,0.0,0.0,0.0,0.0,0.0,0.0,0.0,0.0,0.0,0.0,0.0,0.0,0.0,0.0,0.0,-2.0211,-2.0307,0.0,0.0,0.0,0.0,0.0,0.0,0.0,0.0,-2.03,0.0,0.0,0.0,0.0,0.0,0.0,0.0,0.0,0.0,0.0,0.0,0.0,0.0,0.0,0.0,0.0,0.0,0.0,0.0,0.0,0.0,0.0,0.0,0.0,0.0,0.0,0.0,0.0,0.0,0.0,0.0,0.0,0.0,0.0,0.0,0.0,0.0,0.0,0.0,0.0,0.0,0.0,0.0,0.0,0.0,0.0,0.0,0.0,0.0,0.0,0.0,0.0,0.0,0.0,0.0,0.0,-3.0016,-3.0708,-3.3042,-3.7074,-3.6773,-3.5992,-3.4746,-2.9887,-2.6822,-2.5865,0.0,0.0,0.0,0.0,0.0,0.0,0.0,0.0,0.0,0.0,0.0,0.0,0.0,0.0,0.0,0.0,0.0,0.0,0.0,0.0,0.0,0.0,0.0,0.0,0.0,0.0,0.0,0.0,0.0,0.0,0.0,0.0,0.0,0.0,0.0,0.0,0.0,0.0,0.0,-2.0819,-2.1038,0.0,0.0,0.0,0.0,0.0,0.0,0.0,0.0,-2.0286,0.0,0.0,0.0,0.0,0.0,0.0,0.0,0.0,0.0,0.0,0.0,0.0,0.0,0.0,0.0,0.0,0.0,0.0,0.0,0.0,0.0,0.0,0.0,0.0,0.0,0.0,0.0,0.0,0.0,0.0,0.0,0.0,0.0,0.0,0.0,0.0,0.0,0.0,0.0,0.0,0.0,0.0,0.0,0.0,0.0,0.0,0.0,0.0,0.0,0.0,0.0,0.0,0.0,0.0,0.0,-2.8513,-3.0078,-3.2431,-3.5681,-3.5442,-3.4759,-3.372,-2.8822,-2.5913,0.0,0.0,0.0,0.0,0.0,0.0,0.0,0.0,0.0,0.0,0.0,0.0,0.0,0.0,0.0,0.0,0.0,0.0,0.0,0.0,0.0,0.0,0.0,0.0,0.0,0.0,0.0,0.0,0.0,0.0,0.0,0.0,0.0,0.0,0.0,0.0,0.0,0.0,0.0,0.0,-2.1365,-2.1716,-2.0465,0.0,0.0,0.0,0.0,0.0,0.0,-2.03,-2.0301,0.0,0.0,0.0,0.0,0.0,0.0,0.0,0.0,0.0,0.0,0.0,0.0,0.0,0.0,0.0,0.0,0.0,0.0,0.0,0.0,0.0,0.0,0.0,0.0,0.0,0.0,0.0,0.0,0.0,0.0,0.0,0.0,0.0,0.0,0.0,0.0,0.0,0.0,0.0,0.0,0.0,0.0,0.0,0.0,0.0,0.0,0.0,0.0,0.0,0.0,0.0,0.0,0.0,0.0,0.0,-2.6762,-2.9092,-3.1579,-3.4179,-3.415,-3.3433,-3.2128,-2.766,-2.5058,0.0,0.0,0.0,0.0,0.0,0.0,0.0,0.0,0.0,0.0,0.0,0.0,0.0,0.0,0.0,0.0,0.0,0.0,0.0,0.0,0.0,0.0,0.0,0.0,0.0,0.0,0.0,0.0,0.0,0.0,0.0,0.0,0.0,0.0,0.0,0.0,0.0,0.0,0.0,0.0,0.0,-2.2393,-2.0581,-2.1893,0.0,0.0,0.0,0.0,-2.0346,-2.0858,0.0,0.0,0.0,0.0,0.0,0.0,0.0,0.0,0.0,0.0,0.0,0.0,0.0,0.0,0.0,0.0,0.0,0.0,0.0,0.0,0.0,0.0,0.0,0.0,0.0,0.0,0.0,0.0,0.0,0.0,0.0,0.0,0.0,0.0,0.0,0.0,0.0,0.0,0.0,0.0,0.0,0.0,0.0,0.0,0.0,0.0,0.0,0.0,0.0,0.0,0.0,0.0,0.0,0.0,0.0,0.0,-2.6679,-2.7857,-3.003,-3.3144,-3.2603,-3.1072,-2.8651,-2.5828,-2.3635,0.0,0.0,0.0,0.0,0.0,0.0,0.0,0.0,0.0,0.0,0.0,0.0,0.0,0.0,0.0,0.0,0.0,0.0,0.0,0.0,0.0,0.0,0.0,0.0,0.0,0.0,0.0,0.0,0.0,0.0,0.0,0.0,0.0,0.0,0.0,0.0,0.0,0.0,0.0,0.0,0.0,-2.3067,-2.0639,-2.2393,-2.3086,0.0,0.0,-2.1985,-2.0519,-2.2828,0.0,0.0,0.0,0.0,0.0,0.0,0.0,0.0,0.0,0.0,0.0,0.0,0.0,0.0,0.0,0.0,0.0,0.0,0.0,0.0,0.0,0.0,0.0,0.0,0.0,0.0,0.0,0.0,0.0,0.0,0.0,0.0,0.0,0.0,0.0,0.0,0.0,0.0,0.0,0.0,0.0,0.0,0.0,0.0,0.0,0.0,0.0,0.0,0.0,0.0,0.0,0.0,0.0,0.0,0.0,-2.3585,-2.5987,-2.7404,-2.9281,-3.1603,-3.1355,-3.0156,-2.8053,-2.5051,-2.3136,0.0,0.0,0.0,0.0,0.0,0.0,0.0,0.0,0.0,0.0,0.0,0.0,0.0,0.0,0.0,0.0,0.0,0.0,0.0,0.0,0.0,0.0,0.0,0.0,0.0,0.0,0.0,0.0,0.0,0.0,0.0,0.0,0.0,0.0,0.0,0.0,0.0,0.0,0.0,0.0,0.0,0.0,-2.1273,-2.2778,0.0,0.0,0.0,-2.2543,-2.1816,0.0,0.0,0.0,0.0,0.0,0.0,0.0,0.0,0.0,0.0,0.0,0.0,0.0,0.0,0.0,0.0,0.0,0.0,0.0,0.0,0.0,0.0,0.0,0.0,0.0,0.0,0.0,0.0,0.0,0.0,0.0,0.0,0.0,0.0,0.0,0.0,0.0,0.0,0.0,0.0,0.0,0.0,0.0,0.0,0.0,0.0,0.0,0.0,0.0,0.0,0.0,0.0,0.0,0.0,0.0,0.0,0.0,-2.5492,-2.7202,-2.8908,-3.0506,-3.0397,-2.9455,-2.7681,-2.4374,0.0,0.0,0.0,0.0,0.0,0.0,0.0,0.0,0.0,0.0,0.0,0.0,0.0,0.0,0.0,0.0,0.0,0.0,0.0,0.0,0.0,0.0,0.0,0.0,0.0,0.0,0.0,-1.8625,0.0,0.0,0.0,0.0,0.0,0.0,0.0,0.0,0.0,0.0,0.0,0.0,0.0,0.0,-2.3759,-2.2062,-2.349,-2.4336,0.0,0.0,-2.3197,-2.2566,-2.3197,-2.3002,0.0,0.0,0.0,0.0,0.0,0.0,0.0,0.0,0.0,0.0,0.0,0.0,0.0,0.0,0.0,0.0,0.0,0.0,0.0,0.0,0.0,0.0,0.0,0.0,0.0,0.0,0.0,0.0,0.0,0.0,0.0,0.0,0.0,0.0,0.0,0.0,0.0,0.0,0.0,0.0,0.0,0.0,0.0,0.0,0.0,0.0,0.0,0.0,0.0,0.0,0.0,0.0,0.0,0.0,0.0,-2.5492,-2.7144,-2.8827,-3.0501,-2.9794,-2.8556,-2.6803,-2.3522,-2.1804,0.0,0.0,0.0,0.0,0.0,0.0,0.0,0.0,0.0,0.0,0.0,0.0,0.0,0.0,0.0,0.0,0.0,0.0,0.0,0.0,0.0,0.0,0.0,0.0,0.0,0.0,0.0,0.0,0.0,0.0,0.0,0.0,0.0,0.0,0.0,0.0,0.0,0.0,0.0,0.0,0.0,-2.4596,-2.2951,-2.4851,-2.5851,0.0,0.0,-2.4303,-2.1962,-2.4255,-2.4983,-2.1036,0.0,0.0,0.0,0.0,0.0,0.0,0.0,0.0,0.0,0.0,0.0,0.0,0.0,0.0,0.0,0.0,0.0,0.0,0.0,0.0,0.0,0.0,0.0,0.0,0.0,0.0,0.0,0.0,0.0,0.0,0.0,0.0,0.0,0.0,0.0,0.0,0.0,0.0,0.0,0.0,0.0,0.0,0.0,0.0,0.0,0.0,0.0,0.0,0.0,0.0,0.0,0.0,0.0,-2.3503,-2.4699,-2.6343,-2.7793,-2.8915,-2.8668,-2.7701,-2.601,-2.3213,-2.1688,0.0,0.0,0.0,0.0,0.0,0.0,0.0,0.0,0.0,0.0,0.0,0.0,0.0,0.0,0.0,0.0,0.0,0.0,0.0,0.0,0.0,0.0,0.0,0.0,0.0,0.0,0.0,0.0,-1.8333,-1.8552,-1.8783,0.0,0.0,0.0,0.0,0.0,0.0,0.0,0.0,0.0,0.0,-2.3721,-2.3605,-2.4432,0.0,0.0,-2.5115,-2.4793,-2.3336,-2.4202,-2.3983,-2.0843,-2.0447,0.0,0.0,0.0,0.0,0.0,0.0,0.0,0.0,0.0,0.0,0.0,0.0,0.0,0.0,0.0,0.0,0.0,0.0,0.0,0.0,0.0,0.0,0.0,0.0,0.0,0.0,0.0,0.0,0.0,0.0,0.0,0.0,0.0,0.0,0.0,0.0,0.0,0.0,0.0,0.0,0.0,0.0,0.0,0.0,0.0,0.0,0.0,0.0,0.0,0.0,0.0,0.0,-2.3307,-2.4196,-2.5836,-2.7112,-2.7991,-2.7739,-2.7031,-2.5811,-2.311,-2.1635,0.0,0.0,0.0,0.0,0.0,0.0,0.0,0.0,0.0,0.0,0.0,0.0,0.0,0.0,0.0,0.0,0.0,0.0,0.0,0.0,0.0,0.0,0.0,0.0,0.0,0.0,0.0,0.0,-1.7947,-1.8343,-1.9215,0.0,0.0,0.0,0.0,0.0,0.0,0.0,0.0,0.0,0.0,-2.3413,-2.4014,-2.4509,-2.4966,-2.525,-2.5096,-2.4663,-2.3836,-2.3509,-2.2645,-2.063,0.0,0.0,0.0,0.0,0.0,0.0,0.0,0.0,0.0,0.0,0.0,0.0,0.0,0.0,0.0,0.0,0.0,0.0,0.0,0.0,0.0,0.0,0.0,0.0,0.0,0.0,0.0,0.0,0.0,0.0,-1.9982,0.0,0.0,0.0,0.0,0.0,0.0,0.0,0.0,0.0,0.0,0.0,0.0,0.0,0.0,0.0,0.0,0.0,0.0,0.0,0.0,0.0,0.0,-2.3269,-2.4192,-2.5812,-2.7093,-2.789,-2.7151,-2.6676,-2.6463,-2.3298,-2.1474,-2.1366,0.0,0.0,0.0,0.0,0.0,0.0,0.0,0.0,0.0,0.0,0.0,0.0,0.0,0.0,0.0,0.0,0.0,0.0,0.0,0.0,0.0,0.0,0.0,0.0,0.0,0.0,-2.0324,-1.895,-1.8335,0.0,0.0,0.0,0.0,0.0,0.0,0.0,0.0,0.0,0.0,-2.299,-2.4052,-2.4072,-2.5466,-2.6101,-2.5385,-2.462,-2.3817,-2.299,-2.2124,-2.1259,0.0,0.0,0.0,0.0,0.0,0.0,0.0,0.0,0.0,0.0,0.0,0.0,0.0,0.0,0.0,0.0,0.0,0.0,0.0,0.0,0.0,0.0,0.0,0.0,0.0,0.0,0.0,-2.0834,-2.0828,0.0,0.0,0.0,0.0,0.0,0.0,0.0,0.0,0.0,0.0,0.0,-2.1961,-2.1999,0.0,0.0,0.0,0.0,0.0,0.0,0.0,0.0,0.0,0.0,0.0,0.0,-2.289,-2.3259,-2.4882,-2.5931,-2.6187,-2.5931,-2.5744,-2.5721,-2.3559,-2.1563,-1.9858,0.0,0.0,0.0,0.0,0.0,0.0,0.0,0.0,0.0,0.0,0.0,0.0,0.0,0.0,0.0,0.0,0.0,0.0,0.0,0.0,0.0,0.0,0.0,0.0,0.0,-1.9694,0.0,0.0,0.0,0.0,0.0,0.0,0.0,0.0,0.0,0.0,0.0,-2.1408,-2.2254,-2.2874,-2.322,-2.324,-2.3721,-2.4163,0.0,0.0,0.0,0.0,0.0,0.0,0.0,0.0,0.0,0.0,0.0,0.0,0.0,0.0,-2.3327,-2.1115,-2.0908,-2.1077,-2.1054,0.0,0.0,0.0,0.0,0.0,0.0,0.0,0.0,0.0,0.0,0.0,0.0,0.0,0.0,-2.1783,0.0,-2.167,0.0,0.0,0.0,0.0,0.0,0.0,0.0,0.0,-2.222,-2.2998,-2.3495,-2.3495,-2.3224,0.0,-2.2244,-2.0992,0.0,0.0,0.0,0.0,0.0,0.0,0.0,0.0,-2.2676,-2.2762,-2.4385,-2.5274,-2.5274,-2.5274,-2.5264,-2.5196,-2.3587,-2.1794,-1.9864,-1.949,-1.9309,0.0,0.0,0.0,0.0,0.0,0.0,0.0,0.0,0.0,0.0,0.0,0.0,0.0,0.0,0.0,0.0,0.0,0.0,0.0,0.0,0.0,0.0,0.0,-1.951,0.0,0.0,0.0,0.0,0.0,0.0,0.0,0.0,0.0,-2.1548,-2.1299,-2.161,-2.3071,-2.299,-2.2797,-2.2797,0.0,0.0,0.0,0.0,0.0,0.0,0.0,-2.2412,-2.2412,-2.2908,-2.3639,-2.476,-2.562,-2.6154,-2.6154,0.0,0.0,-2.2419,-2.1985,-2.1947,-2.1957,-2.189,-2.1985,-2.2515,-2.2412,-2.2245,0.0,0.0,0.0,0.0,0.0,0.0,0.0,0.0,-2.2634,-2.2992,0.0,-2.2644,0.0,0.0,0.0,0.0,0.0,-2.1179,0.0,0.0,-2.432,-2.5045,-2.5081,-2.5081,-2.432,-2.2916,-2.2835,-2.1984,-2.049,-2.0675,0.0,0.0,0.0,0.0,0.0,0.0,-2.263,-2.2786,-2.4363,-2.5206,-2.5206,-2.5206,-2.5149,-2.4998,-2.3391,-2.21,-2.1263,-2.0417,-2.0031,-2.0049,-2.0149,0.0,0.0,0.0,0.0,0.0,0.0,0.0,0.0,0.0,0.0,0.0,0.0,0.0,0.0,0.0,0.0,0.0,0.0,0.0,0.0,-2.0555,0.0,0.0,0.0,0.0,0.0,0.0,0.0,0.0,0.0,0.0,-2.1675,-2.0997,-2.1299,-2.3816,0.0,0.0,0.0,0.0,-2.3783,-2.3028,-2.2874,-2.3163,-2.4048,-2.4168,-2.4129,-2.4163,0.0,0.0,-2.6678,-2.6019,-2.5591,-2.5495,-2.5558,-2.5385,-2.5346,-2.3928,-2.287,-2.2847,-2.2753,-2.2665,-2.271,-2.2797,-2.2677,-3.0492,0.0,0.0,0.0,0.0,-2.5686,-2.6131,-2.679,-2.6083,-2.5538,-2.5131,-2.4128,0.0,0.0,0.0,0.0,0.0,0.0,-2.3145,-2.4375,-2.5389,-2.6168,-2.6717,-2.6699,-2.6482,-2.6029,-2.4871,-2.3813,-2.2791,-2.2362,-2.1537,-2.042,0.0,0.0,0.0,0.0,-2.2821,-2.3453,-2.4547,-2.513,-2.513,-2.513,-2.4832,-2.4192,-2.31,-2.184,-2.0489,-1.9592,-1.9106,-1.9101,-1.9131,0.0,0.0,0.0,0.0,0.0,0.0,0.0,0.0,0.0,0.0,0.0,0.0,0.0,0.0,0.0,0.0,0.0,0.0,0.0,-2.0506,-1.9438,-1.9028,0.0,0.0,0.0,0.0,0.0,0.0,0.0,0.0,0.0,-2.2505,-2.2363,-2.2866,0.0,0.0,-2.3706,-2.3721,-2.3394,-2.349,-2.4442,-2.4105,0.0,-2.5659,-2.537,-2.5178,-2.5774,-2.728,-2.839,-2.8376,-2.8698,-2.8942,-2.8904,-2.7948,-2.7159,-2.7024,-2.5279,-2.3836,-2.3735,-2.3698,-2.3876,-2.4374,-2.44,-2.425,-3.4972,-3.2406,-2.9431,-2.8302,-2.8491,-2.8464,-2.8698,-2.9068,-2.8462,-2.785,-2.7193,-2.6219,-2.5078,-2.3801,-2.3015,0.0,0.0,0.0,-2.4525,-2.5968,-2.6446,-2.7097,-2.7839,-2.7857,-2.7532,-2.688,-2.595,-2.4882,-2.3806,-2.3043,-2.2327,-2.1553,0.0,0.0,-2.1712,-2.2552,-2.3215,-2.3714,-2.46,-2.5051,-2.5051,-2.5051,-2.4651,-2.3795,-2.3246,-2.2379,-2.1091,-2.0177,-1.9685,-1.9685,-1.9418,-1.952,0.0,0.0,0.0,0.0,0.0,0.0,0.0,0.0,0.0,0.0,0.0,-2.0986,-2.1013,0.0,0.0,0.0,-1.9471,-1.9419,-1.9039,-1.9009,0.0,0.0,0.0,0.0,0.0,0.0,0.0,-2.1646,-2.2037,-2.2671,-2.34,-2.3462,-2.3915,-2.5221,-2.4649,-2.4105,-2.4105,0.0,-2.3682,-2.4678,-2.4413,-2.4567,-2.5865,-2.6231,-2.6621,-2.7472,-2.8121,-2.8761,-2.9069,-2.9313,-2.95,-2.9602,-2.8506,-2.739,-2.739,-2.5832,-2.4582,-2.4562,-2.4586,-2.4755,-2.5231,-2.5208,-2.5111,-3.7905,-3.8405,-3.3828,-3.1364,-3.0503,-3.0427,-3.0303,-3.0104,-3.0153,-2.9888,-2.944,-2.8542,-2.7609,-2.6651,-2.5016,0.0,-2.5208,-2.5208,-2.6023,-2.7495,-2.7495,-2.7876,-2.86,-2.86,-2.7785,-2.6301,-2.6228,-2.5407,-2.3922,-2.3161,-2.2816,-2.2877,-2.236,-2.2226,-2.2508,-2.3209,-2.3632,-2.3714,-2.4491,-2.4946,-2.4984,-2.4984,-2.4567,-2.3632,-2.3613,-2.3177,-2.233,-2.1528,-2.1111,-2.1093,-2.0453,-2.0079,-2.0079,0.0,0.0,0.0,0.0,0.0,0.0,0.0,0.0,0.0,0.0,0.0,0.0,0.0,0.0,0.0,-1.8437,0.0,-1.7173,-1.9166,0.0,0.0,0.0,-2.2284,-2.3018,-2.3163,-2.3169,-2.3111,0.0,0.0,-2.4202,-2.4234,-2.4484,-2.5283,-2.4703,-2.4225,-2.4292,-2.4258,-2.4215,-2.4436,-2.4335,-2.4615,-2.5659,-2.6851,-2.7948,-2.8626,-2.8396,-2.8217,-2.8761,-2.8453,-2.8299,-2.8876,-2.7698,-2.664,-2.6621,-2.589,-2.5308,-2.525,-2.5269,-2.5269,-2.5308,-2.5303,-2.5274,-3.9879,-3.9521,-3.8309,-3.6651,-3.4747,-3.4718,-3.4321,-3.3601,-3.2664,-3.1859,-3.1102,-2.9292,-2.7692,-2.6315,-2.5895,-2.6111,-2.6826,-2.6826,-2.7369,-2.8292,-2.831,-2.8437,-2.86,-2.86,-2.8075,-2.7115,-2.6475,-2.5697,-2.4701,-2.3933,-2.3299,-2.2923,-2.2905,-2.2711,-2.2313,-2.2628,-2.3082,-2.3695,-2.3904,-2.434,-2.4965,-2.4984,-2.4302,-2.2817,-2.2785,-2.2097,-2.0651,-2.0391,-2.0291,-2.0291,-2.0104,-2.0026,-2.0026,-2.006,0.0,0.0,0.0,0.0,0.0,0.0,0.0,0.0,0.0,-2.0798,-2.0817,0.0,-2.0384,0.0,-1.7909,-1.7996,-2.0416,-2.0025,0.0,0.0,-2.2197,-2.2879,-2.3087,-2.3641,-2.3795,-2.3148,-2.3676,-2.4136,-2.428,-2.4253,-2.4503,-2.5283,-2.5181,-2.5283,-2.5929,-2.5498,-2.5343,-2.5884,-2.5981,-2.6379,-2.7045,-2.7607,-2.7939,-2.8165,-2.7992,-2.7986,-2.8145,-2.803,-2.7992,-2.8107,-2.7337,-2.6678,-2.6582,-2.5904,-2.5346,-2.5308,-2.5308,-2.5308,-2.5308,-2.5308,-2.5308,-4.0158,-3.99,-3.99,-3.8896,-3.7287,-3.6889,-3.6263,-3.54,-3.4234,-3.3202,-3.2195,-3.0075,-2.8648,-2.7797,-2.7435,-2.7526,-2.793,-2.793,-2.8183,-2.86,-2.86,-2.86,-2.86,-2.86,-2.8183,-2.7387,-2.6934,-2.6331,-2.5552,-2.5099,-2.4529,-2.3852,-2.4035,-2.3634,-2.2697,-2.2538,-2.2722,-2.3158,-2.3518,-2.4125,-2.4946,-2.4984,-2.4188,-2.2577,-2.2501,-2.1718,-2.0045,-1.9988,-1.9988,-1.9988,-1.9988,-1.9988,-1.9988,-1.9988,-1.9387,0.0,0.0,0.0,0.0,0.0,0.0,0.0,0.0,0.0,0.0,0.0,-2.1463,-2.1015,-1.9448,-1.9539,-2.2193,-2.1549,-2.1548,-2.2875,-2.3413,-2.382,-2.4223,-2.4642,-2.4737,-2.4301,-2.4671,-2.495,-2.4858,-2.4804,-2.4901,-2.5312,-2.5363,-2.5526,-2.5963,-2.5708,-2.5607,-2.6052,-2.6122,-2.6399,-2.7234,-2.7049,-2.6966,-2.7234,-2.7036,-2.6906,-2.7227,-2.6986,-2.6871,-2.7178,-2.6601,-2.6019,-2.6,-2.5654,-2.5308,-2.5308,-2.5308,-2.5308,-2.5308,-2.5308,-2.5308,-3.9677,-3.9889,-3.99,-3.9513,-3.8774,-3.7931,-3.702,-3.6071,-3.5117,-3.4012,-3.2784,-3.0817,-2.9911,-2.9748,-2.8962,-2.86,-2.86,-2.86,-2.86,-2.86,-2.86,-2.86,-2.86,-2.86,-2.8165,-2.7423,-2.7405,-2.6989,-2.6204,-2.6186,-2.5794,-2.5056,-2.5207,-2.4616,-2.3248,-2.2825,-2.259,-2.2514,-2.3297,-2.4074,-2.4814,-2.4719,-2.3923,-2.2444,-2.2324,-2.1604,-2.0064,-1.9988,-1.9988,-1.9988,-1.9988,-1.9988,-1.9988,-2.0083,-2.0164,0.0,-2.0314,0.0,0.0,0.0,0.0,0.0,0.0,0.0,0.0,-2.3095,-2.3144,-2.3249,-2.1842,-2.157,-2.3131,-2.3267,-2.3577,-2.4277,-2.4491,-2.486,-2.5562,-2.5681,-2.5683,-2.5683,-2.5683,-2.5642,-2.5482,-2.5476,-2.5439,-2.5359,-2.5382,-2.5433,-2.5452,-2.5502,-2.5514,-2.5429,-2.5433,-2.5782,-2.6339,-2.6003,-2.5819,-2.6316,-2.5982,-2.5653,-2.6328,-2.5846,-2.5577,-2.6178,-2.5846,-2.5365,-2.5308,-2.5308,-2.5308,-2.5308,-2.5308,-2.5308,-2.5308,-2.5308,-2.5308,-3.9665,-3.9889,-3.99,-3.9824,-3.9608,-3.8793,-3.7478,-3.5851,-3.5425,-3.4166,-3.2306,-3.122,-3.0387,-2.9766,-2.8974,-2.86,-2.86,-2.86,-2.86,-2.86,-2.86,-2.86,-2.86,-2.86,-2.8183,-2.7441,-2.7405,-2.6971,-2.6204,-2.6186,-2.5805,-2.5038,-2.5359,-2.4773,-2.3293,0.0,0.0,0.0,-2.3291,-2.3784,-2.3904,-2.331,-2.2476,-2.149,-2.1453,0.0,-2.0045,-1.9988,-1.9988,-1.9988,-1.9988,0.0,0.0,0.0,0.0,0.0,0.0,0.0,0.0,0.0,0.0,0.0,-2.2914,-2.2924,-2.3085,-2.3104,-2.3396,-2.4049,-2.3208,-2.3052,-2.4046,-2.4143,-2.4215,-2.4329,-2.4948,-2.5424,-2.5544,-2.5591,-2.5632,-2.5613,-2.5632,-2.5593,-2.5515,-2.5457,-2.5406,-2.5394,-2.5439,-2.5504,-2.5547,-2.5561,-2.5585,-2.5554,-2.5515,-2.5525,-2.5693,-2.5612,-2.555,-2.5608,-2.5546,-2.5459,-2.5534,-2.5466,-2.5308,-2.5577,-2.5404,-2.5308,-2.5308,-2.5308,-2.5308,-2.5308,-2.5308,-2.5308,-2.5308,-2.5308,-2.5308,-3.9988,0.0,-3.9878,-3.9834,0.0,-3.926,-3.7925,-3.5987,-3.5578,-3.4418,-3.2759,-3.1944,-3.1379,-3.0894,-2.9717,-2.9192,-2.9174,-2.8763,-2.86,-2.86,-2.86,-2.86,-2.86,-2.86,-2.8382,-2.8002,-2.8002,-2.7785,-2.7405,-2.7387,-2.6971,-2.6204,-2.6528,-2.6133,-2.5021,-2.496,-2.4333,-2.3101,-2.3499,-2.3916,-2.4302,-2.3961,-2.3316,-2.2476,-2.2438,0.0,0.0,0.0,0.0,0.0,0.0,0.0,0.0,-2.1396,0.0,-2.1851,-2.2249,-2.2755,-2.3289,-2.3374,-2.3651,-2.4236,-2.4355,-2.4193,-2.3767,-2.4139,-2.4561,-2.4985,-2.4633,-2.4555,-2.5003,-2.5013,-2.4997,-2.496,-2.5308,-2.5534,-2.551,-2.5529,-2.5576,-2.5598,-2.5601,-2.5583,-2.5513,-2.5507,-2.547,-2.5414,-2.547,-2.5554,-2.5598,-2.5618,-2.5624,-2.5605,-2.5585,-2.5547,-2.5549,-2.5587,-2.5565,-2.5518,-2.5501,-2.5473,-2.5403,-2.5374,-2.5363,-2.5339,-2.5322,-2.5308,-2.5308,-2.5308,-2.5308,-2.5308,-2.5308,-2.5308,-2.5308,-2.5308,-2.5308,-4.0221,-3.9705,-3.977,-3.9595,-3.9289,-3.9221,-3.808,-3.613,0.0,0.0,0.0,-3.2542,-3.2198,-3.2089,-3.0672,-3.0002,-2.9965,-2.9337,-2.9016,-2.9016,-2.9034,-2.8962,-2.8817,-2.8817,-2.8744,-2.86,-2.86,-2.86,-2.86,-2.86,-2.8274,-2.7713,-2.791,-2.774,-2.714,-2.6517,-2.5534,-2.4207,-2.384,-2.4036,-2.4738,-2.4643,-2.4207,-2.3518,-2.3487,-2.3177,-2.2533,-2.2501,-2.2173,-2.149,-2.2116,-2.2173,-2.1504,-2.223,-2.2722,-2.2728,-2.288,-2.3332,-2.4157,-2.4231,-2.4625,-2.5554,-2.5655,-2.5389,-2.4686,-2.5284,-2.5687,-2.5687,-2.5687,-2.5687,-2.5687,-2.5648,-2.5605,-2.5591,-2.5532,-2.5495,-2.5473,-2.5492,-2.5524,-2.5561,-2.5595,-2.5587,-2.5532,-2.5547,-2.5547,-2.5476,-2.5529,-2.5605,-2.5614,-2.5654,-2.568,-2.5619,-2.5614,-2.5611,-2.5616,-2.5651,-2.5676,-2.5601,-2.5595,-2.5585,-2.5513,-2.5453,-2.5414,-2.5383,-2.5344,-2.5317,-2.5293,-2.5308,-2.5308,-2.5308,-2.5308,-2.5308,-2.5308,-2.5308,-2.5308,-3.9571,-3.9663,-3.9477,-3.9039,-3.8456,-3.8221,-3.7409,-3.6079,-3.4422,-3.3571,-3.3357,-3.256,-3.2198,-3.2144,-3.1238,-3.0835,-3.0835,-3.0726,-3.0659,-3.0672,-3.0672,-3.0296,-2.9639,-2.9639,-2.9264,-2.8636,-2.86,-2.86,-2.86,-2.8618,-2.8545,-2.8499,-2.8868,-2.8866,-2.835,-2.6945,-2.6084,-2.5818,-2.4435,-2.3765,-2.3859,-2.3196,-2.2823,-2.2684,-2.2703,-2.2609,-2.2495,-2.252,-2.2438,-2.2324,-2.2419,-2.2438,-2.2362,-2.3101,-2.3537,-2.3563,-2.4245,-2.4753,-2.5009,-2.5096,-2.5282,-2.5645,-2.5633,-2.558,-2.5527,-2.5636,-2.5687,-2.5687,-2.5687,-2.5687,-2.5687,-2.5683,-2.5641,-2.5532,-2.5507,-2.546,-2.5348,-2.5429,-2.5504,-2.5518,-2.5556,-2.56,-2.5589,-2.5564,-2.5542,-2.5556,-2.5593,-2.5614,-2.5655,-2.5705,-2.5706,-2.5683,-2.5682,-2.5702,-2.5681,-2.5684,-2.5677,-2.5607,-2.5603,-2.5593,-2.5529,-2.5504,-2.5473,-2.5426,-2.5402,-2.5361,-2.5313,-2.5308,-2.5317,-2.5303,-2.5308,-2.5308,-2.5313,-2.5308,-2.5293,-3.9826,-3.9594,-3.9389,-3.9055,-3.8618,-3.7778,-3.7116,-3.6526,-3.5263,-3.4461,-3.3973,-3.3194,-3.285,-3.2777,-3.1999,-3.165,-3.1636,-3.1184,-3.0781,-3.04,-3.0817,-3.0346,-2.9318,-3.0025,-3.0038,-2.9282,-2.9246,-2.9246,-2.9246,-2.9264,-2.9264,-2.9285,-2.972,-2.9746,-2.9285,-2.8154,-2.7335,-2.688,-2.525,-2.4397,-2.4397,-2.403,-2.3866,-2.3866,-2.3866,-2.3866,-2.3866,-2.3866,-2.3638,-2.3158,-2.3619,-2.3632,-2.3221,-2.3961,-2.4397,-2.4435,-2.4776,-2.5057,-2.5182,-2.5324,-2.5454,-2.5591,-2.5597,-2.5614,-2.5683,-2.5698,-2.5687,-2.5687,-2.5687,-2.5687,-2.5687,-2.5676,-2.5605,-2.5513,-2.547,-2.5418,-2.5336,-2.5386,-2.546,-2.5498,-2.5571,-2.56,-2.5601,-2.5603,-2.56,-2.5605,-2.5636,-2.5675,-2.5706,-2.5687,-2.5687,-2.5687,-2.5687,-2.5687,-2.5687,-2.5687,-2.5682,-2.5671,-2.565,-2.5644,-2.5605,-2.5591,-2.5559,-2.5529,-2.5457,-2.5383,-2.5348,-2.5348,-2.5348,-2.5372,-2.5394,-2.5414,-2.5399,-2.5367,-2.5354,-3.9967,-3.9471,-3.9259,-3.8925,-3.8471,-3.7455,-3.6995,-3.6941,-3.6327,-3.5711,-3.5095,-3.4298,-3.3864,-3.361,-3.3013,-3.2651,-3.2397,-3.1818,-3.1216,-3.0726,-3.1238,-3.0785,-2.9644,-3.0713,-3.0853,-3.0147,-3.0074,-3.0074,-3.0074,-3.0056,-3.0135,-3.0245,-3.0589,-3.0662,-3.0438,-2.948,-2.8665,-2.7979,-2.6406,-2.5572,-2.5553,-2.5363,-2.5269,-2.5269,-2.5079,-2.4984,-2.4984,-2.4984,-2.4681,-2.4087,-2.4643,-2.4681,-2.4074,-2.4624,-2.4984,-2.4984,-2.4984,-2.5057,-2.5222,-2.5397,-2.5512,-2.5529,-2.5551,-2.5626,-2.568,-2.5701,-2.5691,-2.5691,-2.569,-2.5689,-2.5689,-2.5655,-2.5601,-2.5534,-2.5486,-2.5429,-2.5365,-2.5414,-2.5483,-2.5521,-2.5568,-2.5616,-2.5639,-2.5675,-2.5659,-2.5644,-2.5676,-2.5707,-2.5687,-2.5687,-2.5687,-2.5687,-2.5687,-2.5687,-2.5687,-2.5687,-2.5687,-2.5687,-2.5687,-2.5685,-2.5681,-2.5648,-2.5609,-2.5593,-2.5518,-2.5453,-2.5444,-2.5418,-2.5418,-2.5421,-2.5457,-2.5495,-2.5489,-2.5437,-2.5414,-3.9346,-3.9414,-3.8979,-3.8141,-3.7287,-3.7082,-3.7031,-3.7013,-3.6922,-3.6868,-3.6669,-3.5928,-3.515,-3.4537,-3.4371,-3.3903,-3.3284,-3.3194,-3.3049,-3.2958,-3.314,-3.2705,-3.1763,-3.2013,-3.1687,-3.098,-3.0903,-3.0917,-3.0921,-3.0903,-3.1104,-3.1483,-3.1574,-3.1786,-3.1945,-3.0598,-2.9764,-2.965,-2.8093,-2.7259,-2.7228,-2.6482,-2.6084,-2.6065,-2.5382,-2.4984,-2.5041,-2.4984,-2.4965,-2.4889,-2.4927,-2.4965,-2.4889,-2.4965,-2.4984,-2.4984,-2.4991,-2.5101,-2.5278,-2.5423,-2.5531,-2.5593,-2.5584,-2.5634,-2.5679,-2.5703,-2.57,-2.5699,-2.5696,-2.5695,-2.5698,-2.5694,-2.5659,-2.559,-2.5578,-2.5561,-2.5482,-2.5559,-2.5572,-2.5593,-2.5644,-2.5703,-2.5682,-2.5685,-2.5686,-2.5682,-2.5703,-2.5687,-2.5687,-2.5687,-2.5687,-2.5687,-2.5687,-2.5687,-2.5687,-2.5687,-2.5687,-2.5687,-2.5687,-2.5687,-2.5706,-2.5704,-2.5679,-2.5614,-2.5593,-2.5561,-2.551,-2.5495,-2.5492,-2.5495,-2.5507,-2.551,-2.5504,-2.5498,-2.5467,-3.9277,-3.9433,-3.8888,-3.83,-3.7736,-3.772,-3.7701,-3.772,-3.7701,-3.772,-3.7611,-3.6868,-3.5802,-3.4627,-3.4609,-3.4172,-3.3411,-3.3393,-3.314,-3.2777,-3.3158,-3.2741,-3.1682,-3.2684,-3.273,-3.1981,-3.1926,-3.1939,-3.1944,-3.1944,-3.2447,-3.3246,-3.2924,-3.282,-3.3033,-3.1981,-3.1147,-3.0654,-3.0018,-2.9431,-2.8825,-2.7638,-2.6956,-2.6887,-2.6141,-2.5705,-2.5648,-2.5269,-2.4984,-2.4984,-2.4984,-2.4984,-2.4984,-2.4984,-2.4984,-2.4991,-2.5082,-2.5164,-2.5238,-2.5406,-2.5515,-2.5531,-2.5571,-2.5616,-2.5634,-2.5681,-2.5703,-2.5702,-2.57,-2.5699,-2.57,-2.5699,-2.5653,-2.5632,-2.5605,-2.5586,-2.5524,-2.5544,-2.5607,-2.5605,-2.5671,-2.5687,-2.5687,-2.5687,-2.5687,-2.5687,-2.5688,-2.5688,-2.5687,-2.5687,-2.5687,-2.5687,-2.5687,-2.5687,-2.5687,-2.5687,-2.5687,-2.5687,-2.5687,-2.5687,-2.5687,-2.5687,-2.5683,-2.5672,-2.5637,-2.56,-2.5576,-2.5574,-2.5571,-2.5576,-2.5601,-2.5632,-2.5613,-2.5572,-2.5544,-3.9524,-3.9427,-3.8919,-3.8572,-3.8305,-3.8224,-3.8209,-3.8209,-3.8209,-3.8209,-3.8136,-3.7638,-3.6669,-3.5418,-3.4869,-3.4154,-3.3465,-3.3393,-3.323,-3.2922,-3.3465,-3.327,-3.2602,-3.3497,-3.3879,-3.3405,-3.3141,-3.3018,-3.3024,-3.2947,-3.3494,-3.436,-3.3987,-3.3816,-3.3913,-3.3219,-3.2517,-3.1933,-3.1667,-3.1204,-3.0484,-2.9223,-2.8302,-2.779,-2.6747,-2.6178,-2.6178,-2.5439,-2.4984,-2.4984,-2.4984,-2.4984,-2.4984,-2.4984,-2.4984,-2.5004,-2.5116,-2.5212,-2.5217,-2.5373,-2.5519,-2.551,-2.5554,-2.5605,-2.5624,-2.5657,-2.5703,-2.5703,-2.5702,-2.5702,-2.5702,-2.5701,-2.5678,-2.5627,-2.5626,-2.5612,-2.5564,-2.56,-2.5632,-2.5627,-2.5663,-2.5688,-2.5687,-2.5688,-2.5689,-2.569,-2.5691,-2.5692,-2.5692,-2.5693,-2.5693,-2.5692,-2.5691,-2.5688,-2.5688,-2.5687,-2.5687,-2.5687,-2.5687,-2.5687,-2.5687,-2.5687,-2.5687,-2.568,-2.5645,-2.5639,-2.5637,-2.5637,-2.5636,-2.5641,-2.5654,-2.5705,-2.5682,-2.565,-2.5641,-4.0265,-3.9483,-3.9104,-3.8818,-3.8572,-3.8323,-3.8209,-3.8209,-3.8209,-3.8209,-3.8257,-3.8371,-3.8034,-3.7081,-3.5457,-3.4205,-3.3531,-3.3495,-3.3872,-3.4431,-3.4546,-3.5059,-3.5903,-3.5312,-3.5058,-3.5107,-3.4531,-3.4222,-3.4173,-3.3873,-3.4037,-3.4583,-3.46,-3.468,-3.468,-3.4132,-3.3733,-3.3363,-3.2728,-3.2284,-3.2132,-3.1374,-3.0181,-2.8741,-2.71,-2.6311,-2.6178,-2.5458,-2.5022,-2.5003,-2.5003,-2.4984,-2.4984,-2.4984,-2.501,-2.5011,-2.5136,-2.5217,-2.5233,-2.5378,-2.5522,-2.5511,-2.5552,-2.5636,-2.5682,-2.57,-2.5703,-2.5703,-2.5703,-2.5703,-2.5703,-2.5703,-2.5702,-2.5682,-2.5682,-2.57,-2.5678,-2.5675,-2.5699,-2.5697,-2.5695,-2.5693,-2.5689,-2.5691,-2.5693,-2.5694,-2.5697,-2.5699,-2.5699,-2.5699,-2.5699,-2.5698,-2.5696,-2.5692,-2.5689,-2.5687,-2.5687,-2.5687,-2.5687,-2.5687,-2.5687,-2.5687,-2.5688,-2.5688,-2.5683,-2.5682,-2.5684,-2.5684,-2.5683,-2.5683,-2.5682,-2.5687,-2.5687,-2.5687,-2.5682,-3.9746,-3.9363,-3.9109,-3.8843,-3.8569,-3.8305,-3.8209,-3.8209,-3.8209,-3.8289,-3.8355,-3.8022,-3.7798,-3.7664,-3.6491,-3.5804,-3.5445,-3.4761,-3.4976,-3.5823,-3.5728,-3.5946,-3.6451,-3.6329,-3.6323,-3.6363,-3.615,-3.6,-3.5839,-3.4892,-3.4813,-3.5514,-3.522,-3.499,-3.4978,-3.4793,-3.4369,-3.3732,-3.3354,-3.2975,-3.2482,-3.2122,-3.1412,-3.0294,-2.8665,-2.7794,-2.7794,-2.652,-2.578,-2.578,-2.5288,-2.4984,-2.501,-2.5044,-2.5057,-2.5076,-2.5182,-2.5274,-2.5284,-2.5404,-2.5503,-2.5517,-2.5556,-2.5637,-2.5666,-2.5703,-2.5703,-2.5703,-2.5703,-2.5703,-2.5703,-2.5703,-2.5703,-2.5703,-2.5703,-2.5703,-2.5702,-2.5702,-2.5701,-2.57,-2.5699,-2.5698,-2.5697,-2.5698,-2.5698,-2.5698,-2.5699,-2.57,-2.57,-2.57,-2.57,-2.57,-2.5699,-2.5698,-2.5697,-2.5691,-2.5687,-2.5687,-2.5687,-2.5687,-2.5687,-2.5688,-2.5689,-2.569,-2.5689,-2.5689,-2.5689,-2.5689,-2.5689,-2.5689,-2.5689,-2.569,-2.5687,-2.5689,-2.5688,-3.9783,-3.9483,-3.9136,-3.89,-3.8685,-3.8336,-3.8209,-3.8225,-3.8307,-3.8433,-3.8472,-3.8217,-3.8201,-3.8275,-3.7679,-3.7503,-3.753,-3.6255,-3.6096,-3.701,-3.686,-3.7039,-3.7505,-3.7452,-3.7468,-3.7457,-3.7137,-3.7024,-3.7027,-3.6018,-3.5834,-3.6317,-3.5867,-3.546,-3.5229,-3.5163,-3.481,-3.4241,-3.4121,-3.379,-3.324,-3.2928,-3.2568,-3.1857,-3.037,-2.9233,-2.8722,-2.7346,-2.6482,-2.6178,-2.5667,-2.5269,-2.5048,-2.5076,-2.5088,-2.5106,-2.5224,-2.5297,-2.5306,-2.5417,-2.5513,-2.5543,-2.5583,-2.5619,-2.5693,-2.5702,-2.5703,-2.5703,-2.5703,-2.5703,-2.5703,-2.5703,-2.5703,-2.5703,-2.5703,-2.5703,-2.5703,-2.5703,-2.5702,-2.5702,-2.5701,-2.57,-2.57,-2.57,-2.5701,-2.5701,-2.5701,-2.5702,-2.5702,-2.5702,-2.5702,-2.5702,-2.5701,-2.5701,-2.57,-2.5697,-2.5695,-2.5694,-2.5694,-2.5692,-2.5691,-2.5691,-2.5692,-2.5692,-2.5692,-2.5693,-2.5693,-2.5692,-2.5692,-2.5692,-2.5694,-2.5695,-2.5694,-2.5691,-2.5691,-4.0507,-3.9819,-3.9236,-3.9008,-3.8915,-3.846,-3.8242,-3.8274,-3.8494,-3.8628,-3.8759,-3.9171,-3.9302,-3.9344,-3.8943,-3.915,-3.932,-3.7959,-3.7429,-3.7957,-3.7949,-3.8452,-3.9238,-3.8585,-3.8407,-3.8572,-3.7566,-3.7238,-3.7549,-3.7172,-3.6853,-3.6618,-3.6557,-3.6094,-3.5327,-3.535,-3.52,-3.4992,-3.4831,-3.4794,-3.4794,-3.4055,-3.3619,-3.3392,-3.2008,-3.0484,-2.8911,-2.7979,-2.7126,-2.6387,-2.6197,-2.5799,-2.5144,-2.5076,-2.5119,-2.5141,-2.5239,-2.5293,-2.5326,-2.544,-2.5538,-2.5576,-2.56,-2.563,-2.5681,-2.5703,-2.5703,-2.5703,-2.5703,-2.5703,-2.5703,-2.5703,-2.5703,-2.5703,-2.5703,-2.5703,-2.5703,-2.5703,-2.5703,-2.5703,-2.5702,-2.5702,-2.5701,-2.5702,-2.5702,-2.5703,-2.5703,-2.5703,-2.5703,-2.5703,-2.5703,-2.5703,-2.5703,-2.5702,-2.5702,-2.5701,-2.57,-2.57,-2.5699,-2.5698,-2.5698,-2.5698,-2.5697,-2.5697,-2.5697,-2.5698,-2.5697,-2.5697,-2.5698,-2.5698,-2.5699,-2.5699,-2.5698,-2.5696,-2.5694,-4.0113,-3.9867,-3.9508,-3.9221,-3.8994,-3.8814,-3.8658,-3.8528,-3.8778,-3.8999,-3.9221,-3.9408,-3.958,-3.9883,-4.0181,-4.0612,-4.0916,-4.0762,-4.0299,-3.9448,-3.9286,-3.948,-3.9764,-3.9634,-3.9518,-3.9391,-3.8722,-3.8588,-3.8778,-3.7651,-3.7211,-3.7844,-3.6704,-3.6144,-3.6283,-3.5659,-3.5227,-3.5124,-3.4963,-3.4908,-3.4889,-3.4661,-3.4263,-3.3695,-3.3164,-3.2122,-3.0484,-2.9082,-2.7972,-2.7126,-2.6501,-2.5846,-2.5247,-2.516,-2.5239,-2.5254,-2.5373,-2.5444,-2.5444,-2.5464,-2.5538,-2.5598,-2.56,-2.5636,-2.5684,-2.5703,-2.5703,-2.5703,-2.5703,-2.5703,-2.5703,-2.5703,-2.5703,-2.5703,-2.5703,-2.5703,-2.5703,-2.5703,-2.5703,-2.5703,-2.5703,-2.5703,-2.5703,-2.5703,-2.5703,-2.5703,-2.5703,-2.5703,-2.5703,-2.5703,-2.5703,-2.5703,-2.5703,-2.5703,-2.5703,-2.5703,-2.5703,-2.5703,-2.5702,-2.5701,-2.5701,-2.5701,-2.5701,-2.57,-2.57,-2.57,-2.57,-2.57,-2.5701,-2.57,-2.57,-2.57,-2.57,-2.5699,-2.5697,-4.0184,-3.9878,-3.9611,-3.9395,-3.9176,-3.9063,-3.8915,-3.8803,-3.9054,-3.9495,-3.9931,-3.9811,-4.0025,-4.0534,-4.1054,-4.1336,-4.1543,-4.2393,-4.2153,-4.1081,-4.0625,-4.0454,-4.0224,-4.0167,-4.0329,-4.038,-4.0032,-4.0223,-4.0845,-3.9669,-3.9355,-3.9653,-3.8322,-3.7398,-3.727,-3.6325,-3.5737,-3.5583,-3.5215,-3.5097,-3.5278,-3.5116,-3.4717,-3.4197,-3.3866,-3.3183,-3.2084,-3.0522,-2.909,-2.7979,-2.6842,-2.598,-2.5577,-2.5384,-2.5265,-2.5326,-2.5432,-2.5507,-2.5507,-2.5507,-2.5524,-2.5559,-2.5591,-2.5626,-2.5684,-2.5703,-2.5703,-2.5703,-2.5703,-2.5703,-2.5703,-2.5703,-2.5703,-2.5703,-2.5703,-2.5703,-2.5703,-2.5703,-2.5703,-2.5703,-2.5703,-2.5703,-2.5703,-2.5703,-2.5703,-2.5703,-2.5703,-2.5703,-2.5703,-2.5703,-2.5703,-2.5703,-2.5703,-2.5703,-2.5703,-2.57,-2.5701,-2.5702,-2.5703,-2.5703,-2.5702,-2.5702,-2.5702,-2.5703,-2.5703,-2.5703,-2.5702,-2.5702,-2.5702,-2.5702,-2.5703,-2.5703,-2.5703,-2.5703,-2.5699,-4.0639,-3.9905,-3.9623,-3.9508,-3.9446,-3.9203,-3.9077,-3.9077,-3.9383,-4.0078,-4.0696,-4.0316,-4.0692,-4.1454,-4.1638,-4.1772,-4.1939,-4.2849,-4.3174,-4.2761,-4.2213,-4.1532,-4.0844,-4.0778,-4.1034,-4.1397,-4.1426,-4.1837,-4.2331,-4.2153,-4.2527,-4.1659,-4.0757,-3.9978,-3.8678,-3.7413,-3.6957,-3.6707,-3.5944,-3.5881,-3.616,-3.5586,-3.51,-3.4869,-3.4225,-3.376,-3.3314,-3.1827,-3.0257,-2.8741,-2.7191,-2.6419,-2.6276,-2.5723,-2.5581,-2.5677,-2.5599,-2.5619,-2.5604,-2.555,-2.551,-2.5523,-2.5559,-2.5618,-2.5687,-2.5703,-2.5703,-2.5703,-2.5703,-2.5703,-2.5703,-2.5703,-2.5703,-2.5703,-2.5703,-2.5703,-2.5703,-2.5703,-2.5703,-2.5703,-2.5703,-2.5703,-2.5703,-2.5703,-2.5703,-2.5703,-2.5703,-2.5703,-2.5703,-2.5703,-2.5703,-2.5703,-2.5703,-2.5684,-2.5671,-2.5646,-2.5668,-2.5698,-2.57,-2.5703,-2.5703,-2.5703,-2.5703,-2.5703,-2.5703,-2.5703,-2.5703,-2.5703,-2.5703,-2.5703,-2.5703,-2.5703,-2.5703,-2.5703,-2.57,-4.0108,-3.9908,-3.9815,-3.967,-3.9532,-3.9611,-3.9544,-3.9427,-3.978,-4.0456,-4.1024,-4.0548,-4.1165,-4.2466,-4.2544,-4.2925,-4.3605,-4.4429,-4.4592,-4.4179,-4.3974,-4.3266,-4.2537,-4.2321,-4.23,-4.2373,-4.2384,-4.2565,-4.2639,-4.2476,-4.2428,-4.2703,-4.1505,-4.0965,-4.0771,-3.9853,-3.9198,-3.863,-3.8243,-3.7423,-3.6616,-3.6372,-3.5855,-3.5215,-3.4886,-3.4425,-3.3769,-3.2136,-3.0427,-2.8825,-2.7799,-2.7249,-2.7305,-2.7168,-2.7041,-2.7058,-2.6635,-2.6377,-2.6242,-2.5797,-2.5529,-2.5517,-2.5569,-2.5637,-2.5685,-2.5701,-2.5703,-2.5703,-2.5703,-2.5703,-2.5703,-2.5703,-2.5703,-2.5703,-2.5703,-2.5703,-2.5703,-2.5703,-2.5703,-2.5703,-2.5703,-2.5703,-2.5703,-2.5703,-2.5703,-2.5703,-2.5703,-2.5703,-2.5703,-2.5703,-2.5703,-2.5698,-2.5684,-2.5664,-2.5629,-2.5619,-2.5626,-2.5686,-2.5694,-2.5699,-2.5703,-2.5703,-2.5703,-2.5703,-2.5703,-2.5703,-2.5703,-2.5703,-2.5703,-2.5703,-2.5703,-2.5703,-2.5703,-2.5703,-2.5702,-3.99,-3.99,-3.99,-3.9804,-3.9712,-3.9884,-3.9886,-3.9824,-4.0052,-4.0939,-4.171,-4.1272,-4.1942,-4.3511,-4.353,-4.3849,-4.4531,-4.5263,-4.538,-4.5102,-4.4703,-4.4018,-4.326,-4.2886,-4.2832,-4.3235,-4.2977,-4.3006,-4.3222,-4.3187,-4.3237,-4.2957,-4.2215,-4.1724,-4.1268,-4.093,-4.0198,-3.9483,-3.9515,-3.9162,-3.8281,-3.7521,-3.721,-3.6577,-3.5935,-3.4808,-3.3827,-3.2534,-3.1013,-2.9493,-2.8525,-2.8112,-2.8204,-2.7956,-2.7893,-2.7939,-2.7189,-2.6702,-2.6566,-2.5952,-2.5546,-2.5518,-2.554,-2.5591,-2.5648,-2.5673,-2.57,-2.5703,-2.5703,-2.5679,-2.5675,-2.5677,-2.5702,-2.5703,-2.5702,-2.5702,-2.5703,-2.5703,-2.5703,-2.5703,-2.5703,-2.5703,-2.5703,-2.5703,-2.5703,-2.5703,-2.5703,-2.5703,-2.5703,-2.5703,-2.5702,-2.5693,-2.5679,-2.5645,-2.5595,-2.5576,-2.5578,-2.563,-2.5659,-2.5667,-2.5684,-2.5684,-2.5703,-2.5703,-2.5703,-2.5703,-2.5703,-2.5703,-2.5703,-2.5703,-2.5703,-2.5703,-2.5703,-2.5703,-2.5703,-3.9976,-3.9919,-3.9995,-3.9987,-3.9962,-4.0146,-4.0224,-4.0148,-4.041,-4.1371,-4.2383,-4.2098,-4.2756,-4.4568,-4.4265,-4.4473,-4.478,-4.5194,-4.541,-4.5315,-4.5026,-4.4432,-4.3813,-4.284,-4.2957,-4.3548,-4.3129,-4.3207,-4.356,-4.4352,-4.4164,-4.3335,-4.3034,-4.2396,-4.177,-4.1252,-4.0624,-4.0335,-4.0952,-4.0935,-4.0265,-3.9302,-3.8866,-3.8673,-3.6895,-3.5343,-3.427,-3.3164,-3.2,-3.0303,-2.9333,-2.8976,-2.8989,-2.8338,-2.8212,-2.8236,-2.7742,-2.717,-2.6779,-2.6223,-2.5604,-2.5553,-2.5509,-2.5521,-2.5574,-2.5629,-2.5683,-2.5684,-2.5684,-2.5655,-2.5623,-2.5653,-2.5688,-2.5677,-2.5672,-2.5714,-2.5799,-2.5762,-2.5703,-2.5703,-2.5703,-2.5703,-2.5703,-2.5703,-2.5703,-2.5703,-2.5703,-2.5703,-2.5703,-2.5703,-2.5677,-2.5682,-2.5645,-2.5609,-2.5569,-2.5514,-2.5523,-2.5549,-2.56,-2.5627,-2.5671,-2.5684,-2.5684,-2.5703,-2.5703,-2.5703,-2.5703,-2.5703,-2.5703,-2.5703,-2.5703,-2.5703,-2.5703,-2.5703,-2.5703,-4.0525,-3.9957,-4.0639,-4.0593,-4.0232,-4.0777,-4.0807,-4.0428,-4.1168,-4.1786,-4.2055,-4.2012,-4.2988,-4.4594,-4.4566,-4.4889,-4.5355,-4.5184,-4.4831,-4.4896,-4.5432,-4.5452,-4.4891,-4.373,-4.3183,-4.3333,-4.3068,-4.302,-4.3307,-4.3387,-4.3389,-4.3229,-4.3023,-4.3065,-4.2692,-4.2949,-4.329,-4.273,-4.3232,-4.2871,-4.1865,-4.1292,-4.0707,-4.0171,-3.8387,-3.6659,-3.517,-3.4212,-3.3286,-3.2087,-3.0681,-2.9836,-2.9834,-2.9762,-2.9669,-2.9519,-2.9066,-2.8373,-2.7716,-2.6938,-2.6165,-2.5728,-2.5647,-2.5507,-2.5518,-2.5589,-2.563,-2.5614,-2.5614,-2.5629,-2.5716,-2.5625,-2.5756,-2.5801,-2.5818,-2.6017,-2.6373,-2.6064,-2.5738,-2.5762,-2.5723,-2.5703,-2.5703,-2.5703,-2.5703,-2.5703,-2.5703,-2.5703,-2.5703,-2.5703,-2.5667,-2.5642,-2.5598,-2.5569,-2.5559,-2.5508,-2.5518,-2.5509,-2.5563,-2.5587,-2.5624,-2.5644,-2.565,-2.5684,-2.5703,-2.5703,-2.5684,-2.5703,-2.5703,-2.5703,-2.5703,-2.5703,-2.5703,-2.5703,-2.5703,-4.1275,-4.0631,-4.1497,-4.1668,-4.1465,-4.1952,-4.2213,-4.2231,-4.236,-4.2732,-4.2958,-4.2821,-4.3363,-4.4562,-4.462,-4.5026,-4.5684,-4.5858,-4.58,-4.5916,-4.6225,-4.6148,-4.5606,-4.4632,-4.3822,-4.3585,-4.2731,-4.2464,-4.2441,-4.2654,-4.2574,-4.2088,-4.2437,-4.2284,-4.2409,-4.3401,-4.3337,-4.3124,-4.4349,-4.4504,-4.3421,-4.2783,-4.1641,-4.0442,-3.9155,-3.7855,-3.6142,-3.4762,-3.3998,-3.3194,-3.206,-3.1095,-3.0879,-3.0906,-3.0825,-3.0413,-2.9719,-2.9166,-2.8489,-2.7832,-2.7136,-2.6671,-2.6327,-2.6146,-2.5958,-2.5823,-2.5544,-2.5549,-2.5588,-2.5683,-2.6109,-2.6167,-2.6272,-2.6699,-2.6746,-2.6989,-2.7162,-2.6441,-2.591,-2.6055,-2.5977,-2.5781,-2.5703,-2.5684,-2.5703,-2.5703,-2.5703,-2.5703,-2.5703,-2.569,-2.5626,-2.5593,-2.5537,-2.5511,-2.5513,-2.5503,-2.5518,-2.551,-2.5515,-2.5546,-2.5549,-2.5576,-2.5614,-2.5644,-2.5664,-2.5684,-2.5684,-2.5684,-2.5702,-2.5703,-2.5703,-2.5703,-2.5703,-2.5703,-2.5703,-4.2162,-4.1521,-4.2502,-4.285,-4.2824,-4.3145,-4.3559,-4.3956,-4.3728,-4.3697,-4.4214,-4.3692,-4.3943,-4.4504,-4.4794,-4.522,-4.5877,-4.6844,-4.7096,-4.6864,-4.7154,-4.696,-4.6303,-4.5399,-4.4675,-4.433,-4.2961,-4.22,-4.2255,-4.2426,-4.2442,-4.1393,-4.1716,-4.2147,-4.1848,-4.2628,-4.3421,-4.3169,-4.4678,-4.5432,-4.4755,-4.402,-4.2647,-4.0926,-4.0133,-3.8955,-3.7193,-3.5688,-3.4597,-3.4312,-3.3647,-3.2897,-3.2305,-3.1892,-3.1543,-3.0864,-3.0216,-2.9689,-2.9166,-2.8591,-2.8107,-2.803,-2.7174,-2.6753,-2.6553,-2.6023,-2.5716,-2.5816,-2.5991,-2.6379,-2.69,-2.6997,-2.7333,-2.7765,-2.8016,-2.8167,-2.8021,-2.697,-2.6655,-2.6602,-2.6191,-2.5742,-2.5684,-2.5664,-2.5684,-2.5702,-2.5702,-2.5682,-2.5691,-2.5653,-2.5595,-2.5559,-2.5517,-2.5506,-2.5507,-2.5608,-2.5596,-2.5523,-2.553,-2.5675,-2.5696,-2.5906,-2.5979,-2.5654,-2.5625,-2.5666,-2.5673,-2.566,-2.5672,-2.5682,-2.5703,-2.5703,-2.5703,-2.5703,-2.5703,-4.3196,-4.2531,-4.3474,-4.3548,-4.3217,-4.3871,-4.4029,-4.3638,-4.4258,-4.402,-4.3692,-4.411,-4.4323,-4.4697,-4.5316,-4.5671,-4.6232,-4.7328,-4.7792,-4.754,-4.7908,-4.8063,-4.7637,-4.6593,-4.5786,-4.51,-4.394,-4.3138,-4.2883,-4.2996,-4.2834,-4.2806,-4.2858,-4.2808,-4.3001,-4.3827,-4.411,-4.3917,-4.4968,-4.5355,-4.5336,-4.4949,-4.4233,-4.2415,-4.1699,-4.0198,-3.8374,-3.7054,-3.6159,-3.551,-3.5322,-3.4743,-3.4042,-3.3321,-3.2551,-3.17,-3.1303,-3.0656,-2.9727,-2.9268,-2.8687,-2.8025,-2.7363,-2.688,-2.6649,-2.6153,-2.6103,-2.6525,-2.7086,-2.759,-2.776,-2.7826,-2.7865,-2.8051,-2.8257,-2.848,-2.8796,-2.8308,-2.7444,-2.7268,-2.6491,-2.5689,-2.5668,-2.5647,-2.5667,-2.5668,-2.567,-2.5642,-2.5619,-2.5591,-2.5549,-2.5531,-2.5511,-2.5503,-2.5511,-2.5646,-2.5704,-2.5592,-2.5654,-2.6018,-2.6142,-2.6417,-2.6415,-2.6276,-2.5907,-2.571,-2.5701,-2.5648,-2.5648,-2.5668,-2.5673,-2.5696,-2.5703,-2.5703,-2.5703,-4.3991,-4.3507,-4.4853,-4.5311,-4.5181,-4.5569,-4.5873,-4.5851,-4.5432,-4.4987,-4.4543,-4.4194,-4.4188,-4.4478,-4.4427,-4.5336,-4.7115,-4.7869,-4.8372,-4.8527,-4.9262,-4.9417,-4.9126,-4.8082,-4.7599,-4.6946,-4.5815,-4.4332,-4.3407,-4.3218,-4.3315,-4.3265,-4.3305,-4.3305,-4.3363,-4.3634,-4.4226,-4.4536,-4.4652,-4.4833,-4.5104,-4.4852,-4.4175,-4.3846,-4.2705,-4.1177,-3.9843,-3.8721,-3.787,-3.7187,-3.7,-3.6497,-3.5789,-3.5115,-3.4199,-3.2783,-3.2081,-3.1541,-3.0636,-3.0269,-2.9766,-2.9384,-2.8509,-2.8103,-2.7832,-2.7449,-2.6981,-2.7329,-2.7619,-2.8204,-2.8591,-2.8668,-2.8881,-2.9263,-2.9306,-2.9504,-2.9675,-2.9204,-2.8612,-2.7964,-2.716,-2.6391,-2.5618,-2.5616,-2.5636,-2.5637,-2.5639,-2.56,-2.5569,-2.554,-2.5522,-2.5763,-2.5847,-2.5995,-2.6091,-2.6304,-2.6188,-2.5975,-2.6033,-2.6397,-2.6648,-2.6957,-2.7133,-2.7128,-2.668,-2.6298,-2.5673,-2.5603,-2.5615,-2.5676,-2.5723,-2.5754,-2.5712,-2.5703,-2.5702,-4.489,-4.4579,-4.609,-4.6712,-4.6744,-4.7194,-4.7444,-4.7579,-4.6554,-4.5923,-4.5652,-4.4755,-4.4601,-4.4891,-4.5084,-4.6013,-4.8585,-4.8682,-4.9146,-4.9842,-5.0395,-5.0453,-5.0094,-4.9649,-4.9068,-4.7985,-4.719,-4.5947,-4.4381,-4.4,-4.3871,-4.3981,-4.3865,-4.3787,-4.3954,-4.416,-4.4322,-4.4341,-4.4232,-4.4213,-4.4471,-4.4226,-4.3982,-4.4497,-4.3227,-4.2125,-4.0965,-4.012,-3.9249,-3.8566,-3.8141,-3.7709,-3.7058,-3.6884,-3.5858,-3.3938,-3.2817,-3.2275,-3.1637,-3.1236,-3.0694,-3.0308,-2.9689,-2.936,-2.9113,-2.8513,-2.8223,-2.8262,-2.8571,-2.89,-2.9457,-2.9573,-2.9843,-3.023,-3.0462,-3.0554,-3.0361,-2.9974,-2.9517,-2.8805,-2.7948,-2.7121,-2.6346,-2.5574,-2.5574,-2.5581,-2.5581,-2.5573,-2.5537,-2.5525,-2.5624,-2.6041,-2.6308,-2.6559,-2.6826,-2.7252,-2.7039,-2.671,-2.6865,-2.7194,-2.7344,-2.7518,-2.7737,-2.8024,-2.7846,-2.7408,-2.6495,-2.5761,-2.5985,-2.6067,-2.5909,-2.5935,-2.6136,-2.5902,-2.5696,-4.623,-4.6301,-4.6712,-4.6521,-4.6312,-4.7611,-4.7386,-4.6406,-4.6767,-4.6477,-4.6058,-4.6303,-4.6438,-4.6689,-4.7347,-4.8333,-4.9204,-4.9494,-4.9842,-5.055,-5.0801,-5.084,-5.0608,-4.997,-4.9266,-4.8446,-4.7561,-4.659,-4.5488,-4.5281,-4.539,-4.5332,-4.5271,-4.5357,-4.5082,-4.4901,-4.5465,-4.5511,-4.5395,-4.5372,-4.544,-4.5283,-4.4942,-4.469,-4.42,-4.3465,-4.2138,-4.1306,-4.0481,-3.952,-3.8721,-3.7883,-3.7071,-3.6903,-3.6419,-3.5472,-3.4505,-3.3421,-3.2203,-3.1637,-3.1197,-3.0636,-2.9863,-2.9422,-2.9364,-2.9345,-2.9147,-2.919,-2.9713,-3.0075,-3.0206,-3.0361,-3.052,-3.0535,-3.0588,-3.0595,-3.0517,-3.0423,-3.0006,-2.9612,-2.8753,-2.7881,-2.7052,-2.6204,-2.5514,-2.5515,-2.5538,-2.5592,-2.5621,-2.5726,-2.6091,-2.6606,-2.7136,-2.7426,-2.758,-2.801,-2.7894,-2.7484,-2.7716,-2.7987,-2.8141,-2.8354,-2.878,-2.8962,-2.878,-2.8335,-2.7396,-2.6838,-2.6694,-2.6482,-2.632,-2.6493,-2.676,-2.6343,-2.5719,-4.7229,-4.7356,-4.7434,-4.7705,-4.8017,-4.8353,-4.8295,-4.7947,-4.7347,-4.7173,-4.7076,-4.6523,-4.6619,-4.7308,-4.8005,-4.8856,-4.9552,-4.9745,-5.0152,-5.0763,-5.0898,-5.0909,-5.0816,-5.046,-4.9764,-4.8485,-4.7851,-4.6994,-4.6314,-4.6194,-4.6348,-4.5877,-4.621,-4.6098,-4.57,-4.5198,-4.5295,-4.536,-4.5237,-4.4994,-4.4893,-4.4657,-4.4653,-4.5155,-4.4749,-4.4081,-4.3515,-4.3136,-4.2202,-4.1326,-4.0829,-4.0172,-3.8895,-3.8282,-3.7837,-3.64,-3.5593,-3.4331,-3.2836,-3.214,-3.1444,-3.083,-3.025,-3.0095,-3.0037,-2.9998,-2.9998,-3.0037,-3.0346,-3.055,-3.0554,-3.0554,-3.0545,-3.0564,-3.0545,-3.0545,-3.0539,-3.053,-3.0313,-2.996,-2.9583,-2.8772,-2.8063,-2.7538,-2.6904,-2.6656,-2.649,-2.6293,-2.6289,-2.63,-2.6761,-2.7395,-2.7948,-2.8451,-2.8548,-2.8765,-2.8649,-2.8397,-2.8513,-2.878,-2.8977,-2.9248,-2.9538,-2.9611,-2.9379,-2.8838,-2.8156,-2.7744,-2.7439,-2.7079,-2.6718,-2.6786,-2.6787,-2.6164,-2.5767,-4.792,-4.826,-4.8068,-4.8535,-4.9332,-4.8894,-4.8778,-4.8817,-4.8198,-4.7889,-4.7831,-4.725,-4.7366,-4.8024,-4.8856,-4.9552,-4.9997,-5.0008,-5.0337,-5.0743,-5.0917,-5.0893,-5.0684,-5.0455,-4.9454,-4.8293,-4.7494,-4.6769,-4.6352,-4.6379,-4.6522,-4.5854,-4.6529,-4.6405,-4.5714,-4.5236,-4.517,-4.5544,-4.5186,-4.4943,-4.4778,-4.4322,-4.4762,-4.5071,-4.4967,-4.455,-4.4735,-4.4143,-4.3211,-4.2679,-4.2028,-4.101,-3.9591,-3.8611,-3.7947,-3.6787,-3.6013,-3.4969,-3.3654,-3.2706,-3.1792,-3.1159,-3.0636,-3.0482,-3.052,-3.0617,-3.0569,-3.0448,-3.0506,-3.053,-3.0515,-3.051,-3.0505,-3.0495,-3.049,-3.0485,-3.0485,-3.049,-3.049,-3.0269,-2.9989,-2.9819,-2.9231,-2.8907,-2.8449,-2.7954,-2.7557,-2.7112,-2.7054,-2.7073,-2.7638,-2.83,-2.8896,-2.9399,-2.9476,-2.95,-2.9364,-2.9268,-2.9384,-2.9519,-2.9693,-2.9809,-2.9979,-2.9979,-2.9882,-2.9747,-2.9321,-2.8722,-2.8165,-2.7965,-2.7648,-2.6982,-2.6604,-2.6059,-2.5982,-4.8328,-4.9238,-4.8496,-4.8351,-4.8624,-4.9301,-4.8701,-4.7792,-4.8875,-4.8488,-4.7715,-4.8624,-4.9629,-5.0279,-5.0318,-5.0531,-5.0763,-5.0801,-5.0821,-5.084,-5.0898,-5.0913,-5.0532,-4.9666,-4.8665,-4.8169,-4.7248,-4.6285,-4.5992,-4.6739,-4.6488,-4.596,-4.6799,-4.6352,-4.5977,-4.5755,-4.5466,-4.5667,-4.5434,-4.547,-4.5459,-4.5321,-4.548,-4.541,-4.5044,-4.482,-4.5438,-4.4376,-4.3446,-4.3011,-4.2323,-4.1126,-3.9888,-3.8599,-3.769,-3.6922,-3.6112,-3.5223,-3.4345,-3.3499,-3.2643,-3.1811,-3.1236,-3.0907,-3.083,-3.0675,-3.0588,-3.0622,-3.0641,-3.0607,-3.0553,-3.0485,-3.0479,-3.0469,-3.0458,-3.0477,-3.0477,-3.0463,-3.0469,-3.0455,-3.0314,-3.0106,-3.0048,-2.9648,-2.9332,-2.8844,-2.835,-2.7909,-2.8083,-2.8199,-2.8702,-2.9306,-2.9921,-3.0288,-3.0385,-3.0288,-3.0037,-2.9979,-3.0056,-3.0192,-3.0366,-3.0443,-3.0327,-3.0366,-3.0308,-3.0385,-3.0366,-2.9645,-2.9099,-2.8954,-2.8552,-2.7817,-2.7287,-2.6924,-2.6861,-4.7597,-4.9473,-4.867,-4.8655,-4.9184,-4.8991,-4.8527,-4.8082,-4.8604,-4.8585,-4.8005,-4.9641,-5.0608,-5.0821,-5.0898,-5.0898,-5.0898,-5.0898,-5.0898,-5.0909,-5.0893,-5.088,-5.0364,-4.9789,-4.9033,-4.8563,-4.7276,-4.6448,-4.6572,-4.7092,-4.7026,-4.694,-4.7295,-4.744,-4.7142,-4.6432,-4.6047,-4.5671,-4.5631,-4.564,-4.564,-4.5629,-4.5627,-4.5569,-4.5453,-4.5007,-4.4927,-4.4877,-4.4149,-4.3438,-4.2963,-4.1826,-4.0346,-3.8961,-3.791,-3.7046,-3.6186,-3.549,-3.5093,-3.4325,-3.3518,-3.2798,-3.2275,-3.1889,-3.14,-3.1337,-3.1322,-3.1191,-3.0867,-3.0832,-3.1196,-3.08,-3.0428,-3.0431,-3.0463,-3.0527,-3.045,-3.0436,-3.0436,-3.0436,-3.0425,-3.0312,-3.0323,-3.0315,-3.0025,-2.9699,-2.9187,-2.8823,-2.8977,-2.9093,-2.948,-2.9805,-3.0327,-3.054,-3.0598,-3.0617,-3.0617,-3.0612,-3.0593,-3.0588,-3.0583,-3.0598,-3.052,-3.0598,-3.0612,-3.055,-3.0429,-3.0231,-2.9902,-2.9477,-2.9057,-2.8541,-2.811,-2.7688,-2.7772,-4.6587,-4.8732,-4.8005,-4.8604,-4.9803,-4.8875,-4.8411,-4.8411,-4.8411,-4.8585,-4.8856,-5.0074,-5.0705,-5.0782,-5.0589,-5.0743,-5.0821,-5.0898,-5.0909,-5.0893,-5.0888,-5.0846,-5.0514,-4.9929,-4.917,-4.8788,-4.7759,-4.6817,-4.6383,-4.7298,-4.7221,-4.7277,-4.7902,-4.8162,-4.7441,-4.6932,-4.6201,-4.5748,-4.5594,-4.5594,-4.5594,-4.5594,-4.5603,-4.5421,-4.5026,-4.4919,-4.4694,-4.4664,-4.4063,-4.3624,-4.3273,-4.2825,-4.1342,-3.9824,-3.8659,-3.7558,-3.6464,-3.5674,-3.5402,-3.4867,-3.3986,-3.3048,-3.2984,-3.2617,-3.2341,-3.2157,-3.2141,-3.2111,-3.1631,-3.1441,-3.2023,-3.1651,-3.117,-3.1197,-3.1018,-3.0979,-3.0556,-3.0402,-3.0416,-3.0396,-3.0404,-3.0423,-3.0421,-3.0414,-3.0312,-3.0123,-2.9979,-2.9689,-2.9751,-2.9848,-2.9959,-3.023,-3.052,-3.0598,-3.0617,-3.0559,-3.052,-3.0554,-3.055,-3.0564,-3.0569,-3.0579,-3.0579,-3.0564,-3.0564,-3.0574,-3.0487,-3.0331,-3.0085,-2.9801,-2.9361,-2.8936,-2.8386,-2.8039,-2.8497,-4.5468,-4.698,-4.6329,-4.785,-5.0318,-4.9068,-4.8333,-4.814,-4.8256,-4.8662,-4.9223,-4.9649,-5.0152,-5.0511,-5.0144,-5.0318,-5.0821,-5.0898,-5.0901,-5.0916,-5.0679,-5.0733,-5.0314,-4.9671,-4.8758,-4.8095,-4.7201,-4.6355,-4.6018,-4.6951,-4.7086,-4.7376,-4.8116,-4.8414,-4.7019,-4.6105,-4.5671,-4.5594,-4.5594,-4.5594,-4.5594,-4.5594,-4.5594,-4.5344,-4.4432,-4.4286,-4.4506,-4.4025,-4.3426,-4.3065,-4.2988,-4.2568,-4.1711,-3.954,-3.8711,-3.8955,-3.6887,-3.5815,-3.5445,-3.4789,-3.4141,-3.3523,-3.3647,-3.3338,-3.3078,-3.2964,-3.2927,-3.2871,-3.2627,-3.2685,-3.2827,-3.2705,-3.2179,-3.1872,-3.1718,-3.1558,-3.1154,-3.0912,-3.1015,-3.1142,-3.0757,-3.0456,-3.0448,-3.046,-3.0444,-3.043,-3.053,-3.0506,-3.0356,-3.0347,-3.0323,-3.0321,-3.0485,-3.0458,-3.0428,-3.046,-3.0465,-3.05,-3.05,-3.0479,-3.0509,-3.0525,-3.0519,-3.0514,-3.0519,-3.053,-3.049,-3.0444,-3.0237,-3.003,-2.9664,-2.921,-2.8656,-2.8535,-2.9089,-4.4913,-4.7076,-4.6793,-4.7657,-4.8972,-4.8043,-4.7231,-4.6844,-4.725,-4.7715,-4.8063,-4.8527,-4.9301,-4.9745,-4.995,-5.0086,-5.0743,-5.0898,-5.0901,-5.0803,-5.0295,-4.9993,-4.9554,-4.8739,-4.8008,-4.7682,-4.6913,-4.6721,-4.7375,-4.7413,-4.7444,-4.7767,-4.7893,-4.8029,-4.7587,-4.6874,-4.6259,-4.571,-4.5594,-4.5594,-4.5594,-4.5594,-4.5594,-4.5556,-4.4393,-4.3951,-4.4126,-4.3329,-4.2799,-4.2415,-4.2349,-4.225,-4.1694,-3.9856,-3.9217,-3.9069,-3.7418,-3.6019,-3.5561,-3.5097,-3.5112,-3.4735,-3.4524,-3.423,-3.3833,-3.3651,-3.3618,-3.3489,-3.3221,-3.3292,-3.3564,-3.3096,-3.2679,-3.2583,-3.2468,-3.2449,-3.2237,-3.2069,-3.2058,-3.2185,-3.1988,-3.141,-3.116,-3.1012,-3.0944,-3.0727,-3.0771,-3.0493,-3.0294,-3.0381,-3.0397,-3.0281,-3.0297,-3.026,-3.0248,-3.0305,-3.0426,-3.0508,-3.0436,-3.0364,-3.0406,-3.0428,-3.0474,-3.0488,-3.0479,-3.0485,-3.0428,-3.0394,-3.0425,-3.0238,-2.9894,-2.9803,-2.9578,-2.9553,-2.9888,-4.4544,-4.6573,-4.6631,-4.696,-4.7424,-4.7192,-4.6457,-4.5684,-4.6264,-4.6806,-4.7204,-4.7716,-4.8605,-4.9308,-4.9381,-4.9668,-5.0372,-5.0422,-5.0408,-5.0278,-4.9481,-4.912,-4.8575,-4.7893,-4.7672,-4.7375,-4.6855,-4.6605,-4.6913,-4.7451,-4.7684,-4.7682,-4.7491,-4.7422,-4.7309,-4.6962,-4.6432,-4.5845,-4.5594,-4.5594,-4.5594,-4.5594,-4.5594,-4.5267,-4.4547,-4.3771,-4.3363,-4.2837,-4.2235,-4.1835,-4.1942,-4.2143,-4.1682,-4.1157,-4.0315,-3.9727,-3.7935,-3.6404,-3.5534,-3.5255,-3.5215,-3.5149,-3.5424,-3.5093,-3.4477,-3.429,-3.4331,-3.4167,-3.3692,-3.3971,-3.43,-3.3756,-3.3562,-3.3485,-3.318,-3.3161,-3.274,-3.2523,-3.2507,-3.2707,-3.2653,-3.2172,-3.187,-3.1713,-3.1553,-3.126,-3.0978,-3.066,-3.0373,-3.0452,-3.0445,-3.0215,-3.0244,-3.0331,-3.0276,-3.0185,-3.0321,-3.0484,-3.0437,-3.033,-3.0235,-3.0279,-3.0371,-3.0425,-3.0365,-3.0322,-3.0328,-3.0322,-3.0304,-3.0286,-3.0177,-3.0196,-3.0373,-3.0355,-3.0305,-4.4214,-4.5606,-4.5722,-4.5684,-4.5838,-4.6288,-4.587,-4.4806,-4.5548,-4.6322,-4.7115,-4.6962,-4.7714,-4.9014,-4.8493,-4.8724,-4.9581,-4.9641,-4.9665,-4.9379,-4.884,-4.8421,-4.8076,-4.7731,-4.7126,-4.6886,-4.6615,-4.622,-4.5913,-4.6791,-4.7491,-4.7655,-4.7335,-4.7046,-4.6887,-4.6943,-4.6462,-4.5913,-4.5522,-4.5559,-4.5577,-4.5386,-4.5309,-4.4848,-4.3936,-4.3318,-4.2804,-4.2183,-4.1444,-4.1485,-4.2234,-4.2515,-4.2563,-4.2494,-4.2039,-4.0689,-3.8051,-3.6658,-3.5442,-3.5223,-3.5051,-3.4987,-3.5081,-3.4985,-3.4859,-3.4661,-3.4688,-3.4804,-3.4609,-3.4963,-3.5208,-3.4939,-3.4661,-3.4304,-3.387,-3.3468,-3.2895,-3.271,-3.272,-3.2755,-3.2697,-3.2453,-3.2426,-3.2286,-3.2174,-3.1779,-3.1524,-3.1313,-3.1031,-3.075,-3.0597,-3.0038,-3.0155,-3.0459,-3.0419,-3.0347,-3.0703,-3.1012,-3.0532,-3.0365,-3.0245,-3.0161,-3.0176,-3.0196,-3.0169,-3.0148,-3.0155,-3.0162,-3.0136,-3.0122,-3.0142,-3.0202,-3.0267,-3.0181,-3.0121,-4.3015,-4.3994,-4.3904,-4.3875,-4.3817,-4.352,-4.4394,-4.618,-4.6051,-4.629,-4.7057,-4.6298,-4.6816,-4.7593,-4.7332,-4.8189,-4.8938,-4.9474,-4.9504,-4.9092,-4.8324,-4.7684,-4.7127,-4.6647,-4.6148,-4.5956,-4.5898,-4.6183,-4.6532,-4.6978,-4.6844,-4.6906,-4.7354,-4.6934,-4.6691,-4.705,-4.6501,-4.5906,-4.5438,-4.5486,-4.5275,-4.4911,-4.4843,-4.4419,-4.306,-4.2508,-4.203,-4.1106,-4.0401,-4.0479,-4.0658,-4.0999,-4.2386,-4.1462,-4.0442,-3.9108,-3.7721,-3.6794,-3.5515,-3.5122,-3.4944,-3.4703,-3.4754,-3.4773,-3.4711,-3.4691,-3.4772,-3.4889,-3.5037,-3.5166,-3.5431,-3.5346,-3.5215,-3.4963,-3.4649,-3.4387,-3.3866,-3.3607,-3.3588,-3.3449,-3.3374,-3.308,-3.3032,-3.2992,-3.2847,-3.2401,-3.2096,-3.1938,-3.1635,-3.1345,-3.0964,-3.041,-3.044,-3.0846,-3.0744,-3.0645,-3.1128,-3.144,-3.092,-3.0543,-3.0552,-3.0448,-3.0148,-2.9977,-2.9962,-2.9981,-2.9981,-2.9988,-2.9992,-3.0015,-3.0022,-3.0102,-3.0129,-3.0022,-2.9946,-4.2452,-4.3233,-4.3153,-4.3088,-4.2992,-4.2549,-4.3863,-4.5689,-4.5181,-4.5257,-4.5912,-4.5667,-4.6136,-4.7194,-4.7338,-4.7789,-4.8644,-4.8787,-4.8862,-4.8565,-4.7741,-4.704,-4.6271,-4.5731,-4.5404,-4.5253,-4.5409,-4.5764,-4.634,-4.6331,-4.614,-4.662,-4.744,-4.6796,-4.6424,-4.6753,-4.6618,-4.586,-4.5351,-4.5444,-4.5078,-4.4562,-4.4499,-4.4327,-4.2709,-4.1733,-4.1469,-4.0442,-3.9717,-3.9668,-3.97,-4.061,-4.1851,-4.1283,-4.0347,-3.92,-3.8027,-3.6936,-3.5704,-3.504,-3.4737,-3.4498,-3.4446,-3.4465,-3.4465,-3.4443,-3.4586,-3.4722,-3.4851,-3.5019,-3.5351,-3.5603,-3.56,-3.5576,-3.5524,-3.5484,-3.5124,-3.4753,-3.4577,-3.4435,-3.417,-3.3835,-3.3698,-3.3672,-3.3609,-3.3343,-3.3085,-3.2896,-3.2411,-3.1861,-3.1519,-3.1058,-3.114,-3.1362,-3.1224,-3.1255,-3.1688,-3.1834,-3.1203,-3.0904,-3.0902,-3.0457,-2.9935,-2.9784,-2.9794,-2.9786,-2.9794,-2.9817,-2.9851,-2.9859,-2.9851,-2.9856,-2.9864,-2.9826,-2.9775,-4.2174,-4.2974,-4.2919,-4.2694,-4.2853,-4.2691,-4.3281,-4.4148,-4.3484,-4.3685,-4.4512,-4.5015,-4.5915,-4.668,-4.6806,-4.7116,-4.766,-4.7914,-4.8037,-4.7971,-4.6732,-4.6025,-4.5829,-4.5392,-4.5076,-4.5107,-4.5319,-4.5582,-4.564,-4.5925,-4.629,-4.6377,-4.6528,-4.6269,-4.6069,-4.6517,-4.6193,-4.5076,-4.4827,-4.4874,-4.4995,-4.4692,-4.4346,-4.4824,-4.3198,-4.1421,-4.1397,-4.0608,-3.9363,-3.9471,-3.9798,-4.0584,-4.106,-4.1606,-4.0836,-3.9821,-3.8385,-3.7146,-3.5996,-3.5222,-3.4686,-3.4391,-3.4209,-3.4269,-3.4305,-3.4281,-3.442,-3.4615,-3.4771,-3.4964,-3.5253,-3.5777,-3.5967,-3.6093,-3.6183,-3.6324,-3.637,-3.5664,-3.4724,-3.4547,-3.4274,-3.4004,-3.4011,-3.3939,-3.3913,-3.398,-3.39,-3.3652,-3.331,-3.2612,-3.2091,-3.1745,-3.1868,-3.2046,-3.2199,-3.2258,-3.2425,-3.2273,-3.1643,-3.1235,-3.121,-3.0517,-2.9626,-2.9608,-2.9608,-2.9608,-2.9598,-2.9672,-2.9698,-2.9635,-2.9626,-2.9589,-2.9598,-2.9608,-2.9617,-4.0779,-4.1006,-4.087,-4.0806,-4.0825,-4.0931,-4.1184,-4.1513,-4.1905,-4.3173,-4.4735,-4.4566,-4.4742,-4.5588,-4.5354,-4.5687,-4.6666,-4.7194,-4.7174,-4.7146,-4.6308,-4.5703,-4.5394,-4.5148,-4.4881,-4.4938,-4.5192,-4.5629,-4.611,-4.6477,-4.6499,-4.6238,-4.6278,-4.6126,-4.5288,-4.5742,-4.5316,-4.4106,-4.3765,-4.3779,-4.3824,-4.3077,-4.2504,-4.2442,-4.1128,-4.0646,-4.0428,-3.9769,-3.9224,-3.9194,-3.9268,-3.9615,-3.9957,-4.071,-4.0292,-3.9126,-3.845,-3.7378,-3.6408,-3.5614,-3.5135,-3.4603,-3.4406,-3.4294,-3.4245,-3.4209,-3.433,-3.4562,-3.4756,-3.4974,-3.5389,-3.5979,-3.6453,-3.6673,-3.6866,-3.7217,-3.7506,-3.6235,-3.4959,-3.4531,-3.4271,-3.4216,-3.4216,-3.4216,-3.4216,-3.4197,-3.416,-3.4048,-3.3993,-3.3515,-3.2801,-3.2504,-3.2604,-3.2771,-3.2983,-3.3094,-3.315,-3.2946,-3.2411,-3.1994,-3.1565,-3.0796,-3.0043,-2.961,-2.946,-2.9705,-2.9792,-2.957,-2.957,-2.9643,-2.9512,-2.9522,-2.9492,-2.9472,-2.9461,-4.0018,-3.9804,-3.9939,-4.0031,-4.0032,-4.0157,-4.0211,-4.04,-4.12,-4.2221,-4.3323,-4.3314,-4.3827,-4.4787,-4.4564,-4.4745,-4.6039,-4.6685,-4.6934,-4.6848,-4.635,-4.5974,-4.5489,-4.5051,-4.4909,-4.4946,-4.5258,-4.5774,-4.6435,-4.6126,-4.5834,-4.5577,-4.5704,-4.5161,-4.4221,-4.4402,-4.4099,-4.3057,-4.253,-4.2265,-4.2341,-4.1643,-4.1812,-4.1537,-4.0898,-4.029,-4.0026,-3.9552,-3.9142,-3.9287,-3.9528,-3.944,-3.9784,-4.0289,-4.0021,-3.9176,-3.8432,-3.7833,-3.6937,-3.6292,-3.5845,-3.5392,-3.5324,-3.5498,-3.5392,-3.5367,-3.4952,-3.5114,-3.5255,-3.5469,-3.6495,-3.7203,-3.7511,-3.7751,-3.7859,-3.8072,-3.7435,-3.6235,-3.5126,-3.4364,-3.4216,-3.4216,-3.4216,-3.4216,-3.4216,-3.4216,-3.4216,-3.4216,-3.4216,-3.4216,-3.3547,-3.3206,-3.325,-3.3417,-3.3603,-3.3677,-3.3714,-3.3447,-3.3057,-3.2411,-3.1782,-3.1128,-3.0522,-3.0336,-3.0225,-3.0291,-3.028,-3.0053,-2.9949,-3.0064,-2.9787,-2.9481,-2.944,-2.9388,-2.9399,-3.9576,-3.9248,-3.9658,-3.9838,-3.9897,-4.0153,-4.0108,-4.0078,-4.1008,-4.1229,-4.1103,-4.1642,-4.3133,-4.432,-4.4707,-4.5174,-4.5449,-4.5455,-4.5956,-4.6369,-4.5822,-4.5511,-4.5393,-4.5279,-4.4949,-4.4952,-4.527,-4.563,-4.6096,-4.5507,-4.4919,-4.4549,-4.3882,-4.3145,-4.3069,-4.2753,-4.227,-4.1963,-4.1443,-4.0734,-4.0558,-4.0507,-4.1287,-4.1327,-4.0946,-4.0096,-4.0076,-3.9808,-3.9152,-3.9268,-3.9584,-3.95,-3.95,-3.9821,-3.9688,-3.9104,-3.872,-3.8258,-3.7689,-3.7147,-3.6842,-3.6625,-3.6755,-3.6662,-3.6495,-3.6216,-3.577,-3.5826,-3.5977,-3.6193,-3.7231,-3.8002,-3.8286,-3.8669,-3.8758,-3.8621,-3.7479,-3.6408,-3.5479,-3.4531,-3.4309,-3.4309,-3.4253,-3.4234,-3.4216,-3.4216,-3.4216,-3.4216,-3.4216,-3.4216,-3.3918,-3.3751,-3.3788,-3.3993,-3.4123,-3.4086,-3.403,-3.377,-3.3336,-3.2648,-3.2017,-3.1478,-3.1236,-3.1385,-3.131,-3.1125,-3.0939,-3.0732,-3.0663,-3.0549,-3.0209,-2.9841,-2.9429,-2.9388,-2.9388,-3.8961,-3.9437,-3.9548,-3.958,-3.9729,-4.0443,-4.0413,-3.9913,-4.0601,-4.084,-4.0628,-4.0045,-4.0724,-4.2333,-4.1798,-4.2441,-4.4113,-4.4112,-4.4853,-4.5505,-4.4752,-4.4716,-4.4801,-4.4763,-4.4571,-4.4808,-4.5216,-4.5745,-4.561,-4.4746,-4.4325,-4.4483,-4.2869,-4.2245,-4.217,-4.18,-4.1389,-4.1034,-4.0688,-4.0114,-3.9802,-3.9821,-3.997,-4.0109,-4.0165,-3.9755,-3.9542,-3.9254,-3.9115,-3.9157,-3.9268,-3.9268,-3.9314,-3.9388,-3.9286,-3.9249,-3.887,-3.8582,-3.8125,-3.7856,-3.7578,-3.7095,-3.7089,-3.7034,-3.6885,-3.6773,-3.6662,-3.7034,-3.6994,-3.6539,-3.7242,-3.7978,-3.8425,-3.91,-3.9455,-3.8784,-3.7883,-3.7039,-3.6185,-3.533,-3.4699,-3.4569,-3.4383,-3.4327,-3.4216,-3.4216,-3.4216,-3.4216,-3.4216,-3.4216,-3.4216,-3.4204,-3.4185,-3.4216,-3.4179,-3.4179,-3.4104,-3.39,-3.364,-3.3094,-3.2518,-3.1924,-3.1812,-3.2202,-3.2017,-3.1738,-3.1552,-3.1552,-3.1199,-3.1032,-3.0679,-3.0281,-2.9779,-2.9537,-2.9657]},{"header":{"parameterUnit":"m.s-1","parameterCategory":1,"la1":31.0,"la2":29.5877,"lo1":-88.7671,"lo2":-86.6584,"dy":0.0162,"dx":0.0185,"nx":115,"ny":88,"refTime":"2023-11-07T18:00:00:Z","depth":0,"parameterNumber":3,"parameterNumberName":"V-component_of_WINDS"},"data":[0.0,0.0,0.0,0.0,0.0,0.0,0.0,0.0,0.0,0.0,0.0,0.0,0.0,0.0,0.0,0.0,0.0,0.0,0.0,0.0,0.0,0.0,0.0,0.0,0.0,0.0,0.0,0.0,0.0,0.0,0.0,0.0,0.0,0.0,0.0,0.0,0.0,0.0,0.0,0.0,0.0,0.0,0.0,0.0,0.0,0.0,0.0,0.0,0.0,0.0,0.0,0.0,0.0,0.0,0.0,0.0,0.0,0.0,0.0,0.0,0.0,0.0,0.0,0.0,0.0,0.0,0.0,0.0,0.0,0.0,0.0,0.0,0.0,0.0,0.0,0.0,0.0,0.0,0.0,0.0,0.0,0.0,0.0,0.0,0.0,0.0,0.0,0.0,0.0,0.0,0.0,0.0,0.0,0.0,0.0,0.0,0.0,0.0,0.0,0.0,0.0,0.0,0.0,0.0,0.0,0.0,0.0,0.0,0.0,0.0,0.0,0.0,0.0,0.0,0.0,0.0,0.0,0.0,0.0,0.0,0.0,0.0,0.0,0.0,0.0,0.0,0.0,0.0,0.0,0.0,0.0,0.0,0.0,0.0,0.0,0.0,0.0,0.0,0.0,0.0,0.0,0.0,0.0,0.0,0.0,0.0,0.0,0.0,0.0,0.0,0.0,0.0,0.0,0.0,0.0,0.0,0.0,0.0,0.0,0.0,0.0,0.0,0.0,0.0,0.0,0.0,0.0,0.0,0.0,0.0,0.0,0.0,0.0,0.0,0.0,0.0,0.0,0.0,0.0,0.0,0.0,0.0,0.0,0.0,0.0,0.0,0.0,0.0,0.0,0.0,0.0,0.0,0.0,0.0,0.0,0.0,0.0,0.0,0.0,0.0,0.0,0.0,0.0,0.0,0.0,0.0,0.0,0.0,0.0,0.0,0.0,0.0,0.0,0.0,0.0,0.0,0.0,0.0,0.0,0.0,0.0,0.0,0.0,0.0,0.0,0.0,0.0,0.0,0.0,0.0,0.0,0.0,0.0,0.0,0.0,0.0,0.0,0.0,0.0,0.0,0.0,0.0,0.0,0.0,0.0,0.0,0.0,0.0,0.0,0.0,0.0,0.0,0.0,0.0,0.0,0.0,0.0,0.0,0.0,0.0,0.0,0.0,0.0,0.0,0.0,0.0,0.0,0.0,0.0,0.0,0.0,0.0,0.0,0.0,0.0,0.0,0.0,0.0,0.0,0.0,0.0,0.0,0.0,0.0,0.0,0.0,0.0,0.0,0.0,0.0,0.0,0.0,0.0,0.0,0.0,0.0,0.0,0.0,0.0,0.0,0.0,0.0,0.0,0.0,0.0,0.0,0.0,0.0,0.0,0.0,0.0,0.0,0.0,0.0,0.0,0.0,0.0,0.0,0.0,0.0,0.0,0.0,0.0,0.0,0.0,0.0,0.0,0.0,0.0,0.0,0.0,0.0,0.0,0.0,0.0,0.0,0.0,0.0,0.0,0.0,0.0,0.0,0.0,0.0,0.0,0.0,0.0,0.0,0.0,0.0,0.0,0.0,0.0,0.0,0.0,0.0,0.0,0.0,0.0,0.0,0.0,0.0,0.0,0.0,0.0,0.0,0.0,0.0,0.0,0.0,0.0,0.0,0.0,0.0,0.0,0.0,0.0,0.0,0.0,0.0,0.0,0.0,0.0,0.0,0.0,0.0,0.0,0.0,0.0,0.0,0.0,0.0,0.0,0.0,0.0,0.0,0.0,0.0,0.0,0.0,0.0,0.0,0.0,0.0,0.0,0.0,0.0,0.0,0.0,0.0,0.0,0.0,0.0,0.0,0.0,0.0,0.0,0.0,0.0,0.0,0.0,0.0,0.0,0.0,0.0,0.0,0.0,0.0,0.0,0.0,0.0,0.0,0.0,0.0,0.0,0.0,0.0,0.0,0.0,0.0,0.0,0.0,0.0,0.0,0.0,0.0,0.0,0.0,0.0,0.0,0.0,0.0,0.0,0.0,0.0,0.0,0.0,0.0,0.0,0.0,0.0,0.0,0.0,0.0,0.0,0.0,0.0,0.0,0.0,0.0,0.0,0.0,0.0,0.0,0.0,0.0,0.0,0.0,0.0,0.0,0.0,0.0,0.0,0.0,0.0,0.0,0.0,0.0,0.0,0.0,0.0,0.0,0.0,0.0,0.0,0.0,0.0,0.0,0.0,0.0,0.0,0.0,0.0,0.0,0.0,0.0,0.0,0.0,0.0,0.0,0.0,0.0,0.0,0.0,0.0,0.0,0.0,0.0,0.0,0.0,0.0,0.0,0.0,0.0,0.0,0.0,0.0,0.0,0.0,0.0,0.0,0.0,0.0,0.0,0.0,0.0,0.0,0.0,0.0,0.0,0.0,0.0,0.0,0.0,0.0,0.0,0.0,0.0,0.0,0.0,0.0,0.0,0.0,0.0,0.0,0.0,0.0,0.0,0.0,0.0,0.0,0.0,0.0,0.0,0.0,0.0,0.0,0.0,0.0,0.0,0.0,0.0,0.0,0.0,0.0,0.0,0.0,0.0,0.0,0.0,0.0,0.0,0.0,0.0,0.0,0.0,0.0,0.0,0.0,0.0,0.0,0.0,0.0,0.0,0.0,0.0,0.0,0.0,0.0,0.0,0.0,0.0,0.0,0.0,0.0,0.0,0.0,0.0,0.0,0.0,0.0,0.0,0.0,0.0,0.0,0.0,0.0,0.0,0.0,0.0,0.0,0.0,0.0,0.0,0.0,0.0,0.0,0.0,0.0,0.0,0.0,0.0,0.0,0.0,0.0,0.0,0.0,0.0,0.0,0.0,0.0,0.0,0.0,0.0,0.0,0.0,0.0,0.0,0.0,0.0,0.0,0.0,0.0,0.0,0.0,0.0,0.0,0.0,0.0,0.0,0.0,0.0,0.0,0.0,0.0,0.0,0.0,0.0,0.0,0.0,0.0,0.0,0.0,0.0,0.0,0.0,0.0,0.0,0.0,0.0,0.0,0.0,0.0,0.0,0.0,0.0,0.0,0.0,0.0,0.0,0.0,0.0,0.0,0.0,0.0,0.0,0.0,0.0,0.0,0.0,0.0,0.0,0.0,0.0,0.0,0.0,0.0,0.0,0.0,0.0,0.0,0.0,0.0,0.0,0.0,0.0,0.0,0.0,0.0,0.0,0.0,0.0,0.0,0.0,0.0,0.0,0.0,0.0,0.0,0.0,0.0,0.0,0.0,0.0,0.0,0.0,0.0,0.0,0.0,0.0,0.0,0.0,0.0,0.0,0.0,0.0,0.0,0.0,0.0,0.0,0.0,0.0,0.0,0.0,0.0,0.0,0.0,0.0,0.0,0.0,0.0,0.0,0.0,0.0,0.0,0.0,0.0,0.0,0.0,0.0,0.0,0.0,0.0,0.0,0.0,0.0,0.0,0.0,0.0,0.0,0.0,0.0,0.0,0.0,0.0,0.0,0.0,0.0,0.0,0.0,0.0,0.0,0.0,0.0,0.0,0.0,0.0,0.0,0.0,0.0,0.0,0.0,0.0,0.0,0.0,0.0,0.0,0.0,0.0,0.0,0.0,0.0,0.0,0.0,0.0,0.0,0.0,0.0,0.0,0.0,0.0,0.0,0.0,0.0,0.0,0.0,0.0,0.0,0.0,0.0,0.0,0.0,0.0,0.0,0.0,0.0,0.0,0.0,0.0,0.0,0.0,0.0,0.0,0.0,0.0,0.0,0.0,0.0,0.0,0.0,0.0,0.0,0.0,0.0,0.0,0.0,0.0,0.0,0.0,0.0,0.0,0.0,0.0,0.0,0.0,0.0,0.0,0.0,0.0,0.0,0.0,0.0,0.0,0.0,0.0,0.0,0.0,0.0,0.0,0.0,0.0,0.0,0.0,0.0,0.0,0.0,0.0,0.0,0.0,0.0,0.0,0.0,0.0,0.0,0.0,0.0,0.0,0.0,0.0,0.0,0.0,0.0,0.0,0.0,0.0,0.0,0.0,0.0,0.0,0.0,0.0,0.0,0.0,0.0,0.0,0.0,0.0,0.0,0.0,0.0,0.0,0.0,0.0,0.0,0.0,0.0,0.0,0.0,0.0,0.0,0.0,0.0,0.0,0.0,0.0,0.0,0.0,0.0,0.0,0.0,0.0,0.0,0.0,0.0,0.0,0.0,0.0,0.0,0.0,0.0,0.0,0.0,0.0,0.0,0.0,0.0,0.0,0.0,0.0,0.0,0.0,0.0,0.0,0.0,0.0,0.0,-0.0988,0.0,0.0,0.0,0.0,0.0,0.0,0.0,0.0,0.0,0.0,0.0,0.0,0.0,0.0,0.0,0.0,0.0,0.0,0.0,0.0,0.0,0.0,0.0,0.0,0.0,0.0,0.0,0.0,0.0,0.0,0.0,0.0,0.0,0.0,0.0,0.0,0.0,0.0,0.0,0.0,0.0,0.0,0.0,0.0,0.0,0.0,0.0,0.0,0.0,0.0,0.0,0.0,0.0,0.0,0.0,0.0,0.0,0.0,0.0,0.0,0.0,0.0,0.0,0.0,0.0,0.0,0.0,0.0,0.0,0.0,0.0,0.0,0.0,0.0,0.0,0.0,0.0,0.0,0.0,0.0,0.0,0.0,0.0,0.0,0.0,0.0,0.0,0.0,0.0,0.0,0.0,0.0,0.0,0.0,0.0,0.0,0.0,0.0,0.0,0.0,0.0,0.0,0.0,0.0,0.0,0.0,0.0,0.0,0.0,0.0,0.0,0.0,0.0,-0.0263,-0.0786,0.0,0.0,0.0,0.0,0.0,0.0,0.0,0.0,0.0,0.0,0.0,0.0,0.0,0.0,0.0,0.0,0.0,0.0,0.0,0.0,0.0,0.0,0.0,0.0,0.0,0.0,0.0,0.0,0.0,0.0,0.0,0.0,0.0,0.0,0.0,0.0,0.0,0.0,0.0,0.0,0.0,0.0,0.0,0.0,0.0,0.0,0.0,0.0,0.0,0.0,0.0,0.0,0.0,0.0,0.0,0.0,0.0,0.0,0.0,0.0,0.0,0.0,0.0,0.0,0.0,0.0,0.0,0.0,0.0,0.0,0.0,0.0,0.0,0.0,0.0,0.0,0.0,0.0,0.0,0.0,0.0,0.0,0.0,0.0,0.0,0.0,0.0,0.0,0.0,0.0,0.0,0.0,0.0,0.0,0.0,0.0,0.0,0.0,0.0,0.0,0.0,0.0,0.0,0.0,0.0,0.0,0.0,0.0,0.0,0.0,0.0,0.0,0.0,-0.0201,-0.0688,0.0,0.0,0.0,0.0,0.0,0.0,0.0,0.0,0.0,0.0,0.0,0.0,0.0,0.0,0.0,0.0,0.0,0.0,0.0,0.0,0.0,0.0,0.0,0.0,0.0,0.0,0.0,0.0,0.0,0.0,0.0,0.0,0.0,0.0,0.0,0.0,0.0,0.0,0.0,0.0,0.0,0.0,0.0,0.0,0.0,0.0,0.0,0.0,0.0,0.0,0.0,0.0,0.0,0.0,0.0,0.0,0.0,0.0,0.0,0.0,0.0,0.0,0.0,0.0,0.0,0.0,0.0,0.0,0.0,0.0,0.0,0.0,0.0,0.0,0.0,0.0,0.0,0.0,0.0,0.0,0.0,0.0,0.0,0.0,0.0,0.0,0.0,0.0,0.0,0.0,0.0,0.0,0.0,0.0,0.0,0.0,0.0,0.0,0.0,0.0,0.0,0.0,0.0,0.0,0.0,0.0,0.0,0.0,0.0,0.0,0.0,0.0,0.0,0.0,-0.0686,0.0,0.0,0.0,0.0,0.0,0.0,0.0,0.0,0.0,0.0,0.0,0.0,0.0,0.0,0.0,0.0,0.0,0.0,0.0,0.0,0.0,0.0,0.0,0.0,0.0,0.0,0.0,0.0,0.0,0.0,0.0,0.0,0.0,0.0,0.0,0.0,0.0,0.0,0.0,0.0,0.0,0.0,0.0,0.0,0.0,0.0,0.0,0.0,0.0,0.0,0.0,0.0,0.0,0.0,0.0,0.0,0.0,0.0,0.0,0.0,0.0,0.0,0.0,0.0,0.0,0.0,0.0,0.0,0.0,0.0,0.0,0.0,0.0,0.0,0.0,0.0,0.0,0.0,0.0,0.0,0.0,0.0,0.0,0.0,0.0,0.0,0.0,0.0,0.0,0.0,0.0,0.0,0.0,0.0,0.0,0.0,0.0,0.0,0.0,0.0,0.0,0.0,0.0,0.0,0.0,0.0,0.0,0.0,0.0,0.0,0.0,0.0,0.0,-0.022,0.0,0.0,0.0,0.0,0.0,0.0,0.0,0.0,0.0,0.0,0.0,0.0,0.0,0.0,0.0,0.0,0.0,0.0,0.0,0.0,0.0,0.0,0.0,0.0,0.0,0.0,0.0,0.0,0.0,0.0,0.0,0.0,0.0,0.0,0.0,0.0,0.0,0.0,0.0,0.0,0.0,0.0,0.0,0.0,0.0,0.0,0.0,0.0,0.0,0.0,0.0,0.0,0.0,0.0,0.0,0.0,0.0,0.0,0.0,0.0,0.0,0.0,0.0,0.0,0.0,0.0,0.0,0.0,0.0,0.0,0.0,0.0,0.0,0.0,0.0,0.0,0.0,0.0,0.0,0.0,0.0,0.0,0.0,0.0,0.0,0.0,0.0,0.0,0.0,0.0,0.0,0.0,0.0,0.0,0.0,0.0,0.0,0.0,0.0,0.0,0.0,0.0,0.0,0.0,0.0,0.0,0.0,0.0,0.0,0.0,0.0,0.0,0.0,0.0,-0.0219,-0.0677,0.0,0.0,0.0,0.0,0.0,0.0,0.0,0.0,0.0,0.0,0.0,0.0,0.0,0.0,0.0,0.0,0.0,0.0,0.0,0.0,0.0,0.0,0.0,0.0,0.0,0.0,0.0,0.0,0.0,0.0,0.0,0.0,0.0,0.0,0.0,0.0,0.0,0.0,0.0,0.0,0.0,0.0,0.0,0.0,0.0,0.0,0.0,0.0,0.0,0.0,0.0,0.0,0.0,0.0,0.0,0.0,0.0,0.0,0.0,0.0,0.0,0.0,0.0,0.0,0.0,0.0,0.0,0.0,0.0,0.0,0.0,0.0,0.0,0.0,0.0,0.0,0.0,0.0,0.0,0.0,0.0,0.0,0.0,0.0,0.0,0.0,0.0,0.0,0.0,0.0,0.0,0.0,0.0,0.0,0.0,0.0,0.0,0.0,0.0,0.0,0.0,0.0,0.0,0.0,0.0,0.0,0.0,0.0,0.0,0.0,0.0,0.0,0.0,-0.0224,0.0,0.0,0.0,0.0,0.0,0.0,0.0,0.0,0.0,0.0,0.0,0.0,0.0,0.0,0.0,0.0,0.0,0.0,0.0,0.0,0.0,0.0,0.0,0.0,0.0,0.0,0.0,0.0,0.0,0.0,0.0,0.0,0.0,0.0,0.0,0.0,0.0,0.0,0.0,0.0,0.0,0.0,0.0,0.0,0.0,0.0,0.0,0.0,0.0,0.0,0.0,0.0,0.0,0.0,0.0,0.0,0.0,0.0,0.0,0.0,0.0,0.0,0.0,0.0,0.0,0.0,0.0,0.0,0.0,0.0,0.0,0.0,0.0,0.0,0.0,0.0,0.0,0.0,0.0,0.0,0.0,0.0,0.0,0.0,0.0,0.0,0.0,0.0,0.0,0.0,0.0,0.0,0.0,0.0,0.0,0.0,0.0,0.0,0.0,0.0,0.0,0.0,0.0,0.0,0.0,0.0,0.0,0.0,0.0,0.0,0.0,0.0,0.0,0.0,-0.0227,0.0,0.0,0.0,0.0,0.0,0.0,0.0,0.0,0.0,0.0,0.0,0.0,0.0,0.0,0.0,0.0,0.0,0.0,0.0,0.0,0.0,0.0,0.0,0.0,0.0,0.0,0.0,0.0,0.0,0.0,0.0,0.0,0.0,0.0,0.0,0.0,0.0,0.0,0.0,0.0,0.0,0.0,0.0,0.0,0.0,0.0,0.0,0.0,0.0,0.0,0.0,0.0,0.0,0.0,0.0,0.0,0.0,0.0,0.0,0.0,0.0,0.0,0.0,0.0,0.0,0.0,0.0,0.0,0.0,0.0,0.0,0.0,0.0,0.0,0.0,0.0,0.0,0.0,0.0,0.0,0.0,0.0,0.0,0.0,0.0,0.0,0.0,0.0,0.0,0.0,0.0,0.0,0.0,0.0,0.0,0.0,0.0,0.0,0.0,0.0,0.0,0.0,0.0,0.0,0.0,0.0,0.0,0.0,0.0,0.0,0.0,0.0,0.0,0.0,-0.0222,0.0,0.0,0.0,0.0,0.0,0.0,0.0,0.0,0.0,0.0,0.0,0.0,0.0,0.0,0.0,0.0,0.0,0.0,0.0,0.0,0.0,0.0,0.0,0.0,0.0,0.0,0.0,0.0,0.0,0.0,0.0,0.0,0.0,0.0,0.0,0.0,0.0,0.0,0.0,0.0,0.0,0.0,0.0,0.0,0.0,0.0,0.0,0.0,0.0,0.0,0.0,0.0,0.0,0.0,0.0,0.0,0.0,0.0,0.0,0.0,0.0,0.0,0.0,0.0,0.0,0.0,0.0,0.0,0.0,0.0,0.0,0.0,0.0,0.0,0.0,0.0,0.0,0.0,0.0,0.0,0.0,0.0,0.0,0.0,0.0,0.0,0.0,0.0,0.0,0.0,0.0,0.0,0.0,0.0,0.0,0.0,0.0,0.0,0.0,0.0,0.0,0.0,0.0,0.0,0.0,0.0,0.0,0.0,0.0,0.0,0.0,0.0,0.0,0.0,-0.021,0.0,0.0,0.0,0.0,0.0,0.0,0.0,0.0,0.0,0.0,0.0,0.0,0.0,0.0,0.0,0.0,0.0,0.0,0.0,0.0,0.0,0.0,0.0,0.0,0.0,0.0,0.0,0.0,0.0,0.0,0.0,0.0,0.0,0.0,0.0,0.0,0.0,0.0,0.0,0.0,0.0,0.0,0.0,0.0,0.0,0.0,0.0,0.0,0.0,0.0,0.0,0.0,0.0,0.0,0.0,0.0,0.0,0.0,0.0,0.0,0.0,0.0,0.0,0.0,0.0,0.0,0.0,0.0,0.0,0.0,0.0,0.0,0.0,0.0,0.0,0.0,0.0,0.0,0.0,0.0,0.0,0.0,0.0,0.0,0.0,0.0,0.0,0.0,0.0,0.0,0.0,0.0,0.0,0.0,0.0,0.0,0.0,0.0,0.0,0.0,0.0,0.0,0.0,0.0,0.0,0.0,0.0,0.0,0.0,0.0,0.0,0.0,0.0,0.0,-0.0159,0.0,0.0,0.0,0.0,0.0,0.0,0.0,0.0,0.0,0.0,0.0,0.0,0.0,0.0,0.0,0.0,0.0,0.0,0.0,0.0,0.0,0.0,0.0,0.0,0.0,0.0,0.0,0.0,0.0,0.0,0.0,0.0,0.0,0.0,0.0,0.0,0.0,0.0,0.0,0.0,0.0,0.0,0.0,0.0,0.0,0.0,0.0,0.0,0.0,0.0,0.0,0.0,0.0,0.0,0.0,0.0,0.0,0.0,0.0,0.0,0.0,0.0,0.0,0.0,0.0,0.0,0.0,0.0,0.0,0.0,0.0,0.0,0.0,0.0,0.0,0.0,0.0,0.0,0.0,0.0,0.0,0.0,0.0,0.0,0.0,0.0,0.0,0.0,0.0,0.0,0.0,0.0,0.0,0.0,0.0,0.0,0.0,0.0,0.0,0.0,0.0,0.0,0.0,0.0,0.0,0.0,0.0,0.0,0.0,0.0,0.0,0.0,0.0,0.0058,-0.0027,-0.0231,0.0,0.0,0.0,0.0,0.0,0.0,0.0,0.0,0.0,0.0,0.0,0.0,0.0,0.0,0.0,0.0,0.0,0.0,0.0,0.0,0.0,0.0,0.0,0.0,0.0,0.0,0.0,0.0,0.0,0.0,0.0,0.0,0.0,0.0,0.0,0.0,0.0,0.0,0.0,0.0,0.0,0.0,0.0,0.0,0.0,0.0,0.0,0.0,0.0,0.0,0.0,0.0,0.0,0.0,0.0,0.0,0.0,0.0,0.0,0.0,0.0,0.0,0.0,0.0,0.0,0.0,0.0,0.0,0.0,0.0,0.0,0.0,0.0,0.0,0.0,0.0,0.0,0.0,0.0,0.0,0.0,0.0,0.0,0.0,0.0,0.0,0.0,0.0,0.0,0.0,0.0,0.0,0.0,0.0,0.0,0.0,0.0,0.0,0.0,0.0,0.0,0.0,0.0,0.0,0.0,0.0,0.0,0.0,0.0,0.0,0.0,0.0,0.0157,0.023,0.0,0.0,0.0,0.0,0.0,0.0,0.0,0.0,0.0,0.0,0.0,0.0,0.0,0.0,0.0,0.0,0.0,0.0,0.0,0.0,0.0,0.0,0.0,0.0,0.0,0.0,0.0,0.0,0.0,0.0,0.0,0.0,0.0,0.0,0.0,0.0,0.0,0.0,0.0,0.0,0.0,0.0,0.0,0.0,0.0,0.0,0.0,0.0,0.0,0.0,0.0,0.0,0.0,0.0,0.0,0.0,0.0,0.0,0.0,0.0,0.0,0.0,0.0,0.0,0.0,0.0,0.0,0.0,0.0,0.0,0.0,0.0,0.0,0.0,0.0,0.0,0.0,0.0,0.0,0.0,0.0,0.0,0.0,0.0,0.0,0.0,0.0,0.0,0.0,0.0,0.0,0.0,0.0,0.0,0.0,0.0,0.0,0.0,0.0,0.0,0.0,0.0,0.0,0.0,0.0,0.0,0.0,0.0,0.0,0.0,0.0191,0.028,0.0231,0.0362,0.0444,0.0,0.0,0.0,0.0,0.0,0.0,0.0,0.0,0.0,0.0,0.0,0.0,0.0,0.0,0.0,0.0,0.0,0.0,0.0,0.0,0.0,0.0,0.0,0.0,0.0,0.0,0.0,0.0,0.0,0.0,0.0,0.0,0.0,0.0,0.0,0.0,0.0,0.0,0.0,0.0,0.0,0.0,0.0,0.0,0.0,0.0,0.0,0.0,0.0,0.0,0.0,0.0,0.0,0.0,0.0,0.0,0.0,0.0,0.0,0.0,0.0,0.0,0.0,0.0,0.0,0.0,0.0,0.0,0.0,0.0,0.0,0.0,0.0,0.0,0.0,0.0,0.0,0.0,0.0,0.0,0.0,0.0,0.0,0.0,0.0,0.0,0.0,0.0,0.0,0.0,0.0,0.0,0.0,0.0,0.0,0.0,0.0,0.0,0.0,0.0,0.0,0.0,0.0,0.0,0.0,0.0,0.0,0.0,0.0,0.0,0.0367,0.0639,0.0948,0.1111,0.0989,0.0,0.0,0.0,0.0,0.0,0.0,0.0,0.0,0.0,0.0,0.0,0.0,0.0,0.0,0.0,0.0,0.0,0.0,0.0,0.0,0.0,0.0,0.0,0.0,0.0,0.0,0.0,0.0,0.0,0.0,0.0,0.0,0.0,0.0,0.0,0.0,0.0,0.0,0.0,0.0,0.0,0.0,0.0,0.0,0.0,0.0,0.0,0.0,0.0,0.0,0.0,0.0,0.0,0.0,0.0,0.0,0.0,0.0,0.0,0.0,0.0,0.0,0.0,0.0,0.0,0.0,0.0,0.0,0.0,0.0,0.0,0.0,0.0,0.0,0.0,0.0,0.0,0.0,0.0,0.0,0.0,0.0,0.0,0.0,0.0,0.0,0.0,0.0,0.0,0.0,0.0,0.0,0.0,0.0,0.0,0.0,0.0,0.0,0.0,0.0,0.0,0.0,0.0,0.0,0.0,0.0,0.0,0.0,0.0,0.0,0.0471,0.1052,0.1802,0.1986,0.162,0.0,0.0,0.0,0.0,0.0,0.0,0.0,0.0,0.0,0.0,0.0,0.0,0.0,0.0,0.0,0.0,0.0,0.0,0.0,0.0,0.0,0.0,0.0,0.0,0.0,0.0,0.0,0.0,0.0,0.0,0.0,0.0,0.0,0.0,0.0,0.0,0.0,0.0,0.0,0.0,0.0,0.0,0.0,0.0,0.0,0.0,0.0,0.0,0.0,0.0,0.0,0.0,0.0,0.0,0.0,0.0,0.0,0.0,0.0,0.0,0.0,0.0,0.0,0.0,0.0,0.0,0.0,0.0,0.0,0.0,0.0,0.0,0.0,0.0,0.0,0.0,0.0,0.0,0.0,0.0,0.0,0.0,0.0,0.0,0.0,0.0,0.0,0.0,0.0,0.0,0.0,0.0,0.0,0.0,0.0,0.0,0.0,0.0,0.0,0.0,0.0,0.0,0.0,0.0,0.0,0.0,0.0,0.0,0.0466,0.0,0.046,0.108,0.1887,0.1892,0.1806,0.0,0.0,0.0,0.0,0.0,0.0,0.0,0.0,0.0,0.0,0.0,0.0,0.0,0.0,0.0,0.0,0.0,0.0,0.0,0.0,0.0,0.0,0.0,0.0,0.0,0.0,0.0,0.0,0.0,0.0,0.0,0.0,0.0,0.0,0.0,0.0,0.0,0.0,0.0,0.0,0.0,0.0,0.0,0.0,0.0,0.0,0.0,0.0,-0.3597,0.0,0.0,0.0,0.0,0.0,0.0,0.0,0.0,0.0,0.0,0.0,0.0,0.0,0.0,0.0,0.0,0.0,0.0,0.0,0.0,0.0,0.0,0.0,0.0,0.0,0.0,0.0,0.0,0.0,0.0,0.0,0.0,0.0,0.0,0.0,0.0,0.0,0.0,0.0,0.0,0.0,0.0,0.0,0.0,0.0,0.0,0.0,0.0,0.0,0.0,0.0,0.0,0.0,0.0,0.0,0.0,0.0,0.0,0.0,0.0327,0.0039,0.0756,0.1539,0.2304,0.2437,0.2308,0.0,0.0,0.0,0.0,0.0,0.0,0.0,0.0,0.0,0.0,0.0,0.0,0.0,0.0,0.0,0.0,0.0,0.0,0.0,0.0,0.0,0.0,0.0,0.0,0.0,0.0,0.0,0.0,0.0,0.0,0.0,0.0,0.0,0.0,0.0,0.0,0.0,0.0,0.0,0.0,0.0,0.0,0.0,0.0,0.0,0.0,0.0,0.0,0.0,0.0,0.0,0.0,0.0,0.0,0.0,0.0,0.0,0.0,0.0,0.0,0.0,0.0,0.0,0.0,0.0,0.0,0.0,0.0,0.0,0.0,0.0,0.0,0.0,0.0,0.0,0.0,0.0,0.0,0.0,0.0,0.0,0.0,0.0,0.0,0.0,0.0,0.0,0.0,0.0,0.0,0.0,0.0,0.0,0.0,0.0,0.0,0.0,0.0,0.0,0.0,0.0,0.0,0.0,0.0,0.0,0.0,0.0,0.0432,0.0221,0.0243,0.1093,0.2052,0.3001,0.3119,0.2849,0.2155,0.0,0.0,0.0,0.0,0.0,0.0,0.0,0.0,0.0,0.0,0.0,0.0,0.0,0.0,0.0,0.0,0.0,0.0,0.0,0.0,0.0,0.0,0.0,0.0,0.0,0.0,0.0,0.0,0.0,0.0,0.0,0.0,0.0,0.0,0.0,0.0,0.0,0.0,-0.37,-0.3718,0.0,0.0,0.0,0.0,0.0,0.0,0.0,0.0,-0.3534,0.0,0.0,0.0,0.0,0.0,0.0,0.0,0.0,0.0,0.0,0.0,0.0,0.0,0.0,0.0,0.0,0.0,0.0,0.0,0.0,0.0,0.0,0.0,0.0,0.0,0.0,0.0,0.0,0.0,0.0,0.0,0.0,0.0,0.0,0.0,0.0,0.0,0.0,0.0,0.0,0.0,0.0,0.0,0.0,0.0,0.0,0.0,0.0,0.0,0.0,0.0,0.0,0.0,0.0,0.0,0.0,0.1606,0.1441,0.1262,0.1092,0.1324,0.2123,0.3499,0.3207,0.3026,0.2975,0.0,0.0,0.0,0.0,0.0,0.0,0.0,0.0,0.0,0.0,0.0,0.0,0.0,0.0,0.0,0.0,0.0,0.0,0.0,0.0,0.0,0.0,0.0,0.0,0.0,0.0,0.0,0.0,0.0,0.0,0.0,0.0,0.0,0.0,0.0,0.0,0.0,0.0,0.0,-0.3741,-0.3733,0.0,0.0,0.0,0.0,0.0,0.0,0.0,0.0,-0.3009,0.0,0.0,0.0,0.0,0.0,0.0,0.0,0.0,0.0,0.0,0.0,0.0,0.0,0.0,0.0,0.0,0.0,0.0,0.0,0.0,0.0,0.0,0.0,0.0,0.0,0.0,0.0,0.0,0.0,0.0,0.0,0.0,0.0,0.0,0.0,0.0,0.0,0.0,0.0,0.0,0.0,0.0,0.0,0.0,0.0,0.0,0.0,0.0,0.0,0.0,0.0,0.0,0.0,0.0,0.0,0.215,0.1543,0.1381,0.1714,0.1819,0.2431,0.3544,0.3411,0.3383,0.0,0.0,0.0,0.0,0.0,0.0,0.0,0.0,0.0,0.0,0.0,0.0,0.0,0.0,0.0,0.0,0.0,0.0,0.0,0.0,0.0,0.0,0.0,0.0,0.0,0.0,0.0,0.0,0.0,0.0,0.0,0.0,0.0,0.0,0.0,0.0,0.0,0.0,0.0,0.0,-0.3791,-0.3829,-0.3609,0.0,0.0,0.0,0.0,0.0,0.0,-0.342,-0.317,0.0,0.0,0.0,0.0,0.0,0.0,0.0,0.0,0.0,0.0,0.0,0.0,0.0,0.0,0.0,0.0,0.0,0.0,0.0,0.0,0.0,0.0,0.0,0.0,0.0,0.0,0.0,0.0,0.0,0.0,0.0,0.0,0.0,0.0,0.0,0.0,0.0,0.0,0.0,0.0,0.0,0.0,0.0,0.0,0.0,0.0,0.0,0.0,0.0,0.0,0.0,0.0,0.0,0.0,0.0,0.2459,0.1684,0.162,0.2315,0.2463,0.2852,0.3554,0.358,0.3577,0.0,0.0,0.0,0.0,0.0,0.0,0.0,0.0,0.0,0.0,0.0,0.0,0.0,0.0,0.0,0.0,0.0,0.0,0.0,0.0,0.0,0.0,0.0,0.0,0.0,0.0,0.0,0.0,0.0,0.0,0.0,0.0,0.0,0.0,0.0,0.0,0.0,0.0,0.0,0.0,0.0,-0.3923,-0.3629,-0.3836,0.0,0.0,0.0,0.0,-0.361,-0.3631,0.0,0.0,0.0,0.0,0.0,0.0,0.0,0.0,0.0,0.0,0.0,0.0,0.0,0.0,0.0,0.0,0.0,0.0,0.0,0.0,0.0,0.0,0.0,0.0,0.0,0.0,0.0,0.0,0.0,0.0,0.0,0.0,0.0,0.0,0.0,0.0,0.0,0.0,0.0,0.0,0.0,0.0,0.0,0.0,0.0,0.0,0.0,0.0,0.0,0.0,0.0,0.0,0.0,0.0,0.0,0.0,0.251,0.2498,0.2759,0.3228,0.3139,0.3334,0.3836,0.3572,0.3322,0.0,0.0,0.0,0.0,0.0,0.0,0.0,0.0,0.0,0.0,0.0,0.0,0.0,0.0,0.0,0.0,0.0,0.0,0.0,0.0,0.0,0.0,0.0,0.0,0.0,0.0,0.0,0.0,0.0,0.0,0.0,0.0,0.0,0.0,0.0,0.0,0.0,0.0,0.0,0.0,0.0,-0.4041,-0.3639,-0.3923,-0.4045,0.0,0.0,-0.3877,-0.3641,-0.3692,0.0,0.0,0.0,0.0,0.0,0.0,0.0,0.0,0.0,0.0,0.0,0.0,0.0,0.0,0.0,0.0,0.0,0.0,0.0,0.0,0.0,0.0,0.0,0.0,0.0,0.0,0.0,0.0,0.0,0.0,0.0,0.0,0.0,0.0,0.0,0.0,0.0,0.0,0.0,0.0,0.0,0.0,0.0,0.0,0.0,0.0,0.0,0.0,0.0,0.0,0.0,0.0,0.0,0.0,0.0,0.3105,0.3105,0.2911,0.3175,0.3845,0.3434,0.3436,0.388,0.3493,0.3226,0.0,0.0,0.0,0.0,0.0,0.0,0.0,0.0,0.0,0.0,0.0,0.0,0.0,0.0,0.0,0.0,0.0,0.0,0.0,0.0,0.0,0.0,0.0,0.0,0.0,0.0,0.0,0.0,0.0,0.0,0.0,0.0,0.0,0.0,0.0,0.0,0.0,0.0,0.0,0.0,0.0,0.0,-0.3751,-0.3991,0.0,0.0,0.0,-0.3975,-0.3822,0.0,0.0,0.0,0.0,0.0,0.0,0.0,0.0,0.0,0.0,0.0,0.0,0.0,0.0,0.0,0.0,0.0,0.0,0.0,0.0,0.0,0.0,0.0,0.0,0.0,0.0,0.0,0.0,0.0,0.0,0.0,0.0,0.0,0.0,0.0,0.0,0.0,0.0,0.0,0.0,0.0,0.0,0.0,0.0,0.0,0.0,0.0,0.0,0.0,0.0,0.0,0.0,0.0,0.0,0.0,0.0,0.0,0.3583,0.331,0.3517,0.4253,0.3732,0.3551,0.386,0.3398,0.0,0.0,0.0,0.0,0.0,0.0,0.0,0.0,0.0,0.0,0.0,0.0,0.0,0.0,0.0,0.0,0.0,0.0,0.0,0.0,0.0,0.0,0.0,0.0,0.0,0.0,0.0,-0.1017,0.0,0.0,0.0,0.0,0.0,0.0,0.0,0.0,0.0,0.0,0.0,0.0,0.0,0.0,-0.4163,-0.389,-0.4115,-0.4264,0.0,0.0,-0.409,-0.3954,-0.409,-0.372,0.0,0.0,0.0,0.0,0.0,0.0,0.0,0.0,0.0,0.0,0.0,0.0,0.0,0.0,0.0,0.0,0.0,0.0,0.0,0.0,0.0,0.0,0.0,0.0,0.0,0.0,0.0,0.0,0.0,0.0,0.0,0.0,0.0,0.0,0.0,0.0,0.0,0.0,0.0,0.0,0.0,0.0,0.0,0.0,0.0,0.0,0.0,0.0,0.0,0.0,0.0,0.0,0.0,0.0,0.0,0.3583,0.3754,0.3987,0.4287,0.4121,0.395,0.3797,0.328,0.3016,0.0,0.0,0.0,0.0,0.0,0.0,0.0,0.0,0.0,0.0,0.0,0.0,0.0,0.0,0.0,0.0,0.0,0.0,0.0,0.0,0.0,0.0,0.0,0.0,0.0,0.0,0.0,0.0,0.0,0.0,0.0,0.0,0.0,0.0,0.0,0.0,0.0,0.0,0.0,0.0,0.0,-0.4365,-0.4021,-0.4382,-0.4558,0.0,0.0,-0.434,-0.3897,-0.4277,-0.4069,-0.2397,0.0,0.0,0.0,0.0,0.0,0.0,0.0,0.0,0.0,0.0,0.0,0.0,0.0,0.0,0.0,0.0,0.0,0.0,0.0,0.0,0.0,0.0,0.0,0.0,0.0,0.0,0.0,0.0,0.0,0.0,0.0,0.0,0.0,0.0,0.0,0.0,0.0,0.0,0.0,0.0,0.0,0.0,0.0,0.0,0.0,0.0,0.0,0.0,0.0,0.0,0.0,0.0,0.0,0.3277,0.3471,0.3702,0.3906,0.4064,0.3997,0.3862,0.3684,0.3237,0.3,0.0,0.0,0.0,0.0,0.0,0.0,0.0,0.0,0.0,0.0,0.0,0.0,0.0,0.0,0.0,0.0,0.0,0.0,0.0,0.0,0.0,0.0,0.0,0.0,0.0,0.0,0.0,0.0,-0.0981,-0.0911,-0.0984,0.0,0.0,0.0,0.0,0.0,0.0,0.0,0.0,0.0,0.0,-0.4156,-0.4136,-0.4281,0.0,0.0,-0.4457,-0.4372,-0.4089,-0.424,-0.4013,-0.2837,-0.2851,0.0,0.0,0.0,0.0,0.0,0.0,0.0,0.0,0.0,0.0,0.0,0.0,0.0,0.0,0.0,0.0,0.0,0.0,0.0,0.0,0.0,0.0,0.0,0.0,0.0,0.0,0.0,0.0,0.0,0.0,0.0,0.0,0.0,0.0,0.0,0.0,0.0,0.0,0.0,0.0,0.0,0.0,0.0,0.0,0.0,0.0,0.0,0.0,0.0,0.0,0.0,0.0,0.3405,0.34,0.366,0.3841,0.3903,0.3868,0.3859,0.3829,0.3402,0.3233,0.0,0.0,0.0,0.0,0.0,0.0,0.0,0.0,0.0,0.0,0.0,0.0,0.0,0.0,0.0,0.0,0.0,0.0,0.0,0.0,0.0,0.0,0.0,0.0,0.0,0.0,0.0,0.0,-0.0882,-0.0781,-0.0944,0.0,0.0,0.0,0.0,0.0,0.0,0.0,0.0,0.0,0.0,-0.4102,-0.418,-0.4294,-0.4402,-0.4481,-0.4453,-0.4321,-0.4176,-0.4119,-0.384,-0.3083,0.0,0.0,0.0,0.0,0.0,0.0,0.0,0.0,0.0,0.0,0.0,0.0,0.0,0.0,0.0,0.0,0.0,0.0,0.0,0.0,0.0,0.0,0.0,0.0,0.0,0.0,0.0,0.0,0.0,0.0,0.5029,0.0,0.0,0.0,0.0,0.0,0.0,0.0,0.0,0.0,0.0,0.0,0.0,0.0,0.0,0.0,0.0,0.0,0.0,0.0,0.0,0.0,0.0,0.3659,0.3427,0.3685,0.3838,0.392,0.3846,0.3987,0.4339,0.3846,0.3738,0.4008,0.0,0.0,0.0,0.0,0.0,0.0,0.0,0.0,0.0,0.0,0.0,0.0,0.0,0.0,0.0,0.0,0.0,0.0,0.0,0.0,0.0,0.0,0.0,0.0,0.0,0.0,-0.1377,-0.1138,-0.0941,0.0,0.0,0.0,0.0,0.0,0.0,0.0,0.0,0.0,0.0,-0.4028,-0.4187,-0.419,-0.449,-0.4602,-0.4505,-0.4341,-0.4173,-0.4028,-0.3876,-0.3605,0.0,0.0,0.0,0.0,0.0,0.0,0.0,0.0,0.0,0.0,0.0,0.0,0.0,0.0,0.0,0.0,0.0,0.0,0.0,0.0,0.0,0.0,0.0,0.0,0.0,0.0,0.0,0.5002,0.5024,0.0,0.0,0.0,0.0,0.0,0.0,0.0,0.0,0.0,0.0,0.0,0.8623,0.8472,0.0,0.0,0.0,0.0,0.0,0.0,0.0,0.0,0.0,0.0,0.0,0.0,0.4139,0.4075,0.408,0.4078,0.4089,0.4078,0.4135,0.4275,0.3942,0.3681,0.3457,0.0,0.0,0.0,0.0,0.0,0.0,0.0,0.0,0.0,0.0,0.0,0.0,0.0,0.0,0.0,0.0,0.0,0.0,0.0,0.0,0.0,0.0,0.0,0.0,0.0,-0.114,0.0,0.0,0.0,0.0,0.0,0.0,0.0,0.0,0.0,0.0,0.0,-0.3775,-0.3924,-0.4008,-0.4068,-0.4072,-0.4156,-0.4233,0.0,0.0,0.0,0.0,0.0,0.0,0.0,0.0,0.0,0.0,0.0,0.0,0.0,0.0,-0.4139,-0.3747,-0.3687,-0.374,-0.376,0.0,0.0,0.0,0.0,0.0,0.0,0.0,0.0,0.0,0.0,0.0,0.0,0.0,0.0,0.5557,0.0,0.5756,0.0,0.0,0.0,0.0,0.0,0.0,0.0,0.0,0.8977,0.9292,0.9522,0.9522,0.9412,0.0,0.865,0.7823,0.0,0.0,0.0,0.0,0.0,0.0,0.0,0.0,0.4536,0.4399,0.4437,0.4457,0.4457,0.4457,0.4512,0.467,0.4558,0.4261,0.3749,0.3833,0.3841,0.0,0.0,0.0,0.0,0.0,0.0,0.0,0.0,0.0,0.0,0.0,0.0,0.0,0.0,0.0,0.0,0.0,0.0,0.0,0.0,0.0,0.0,0.0,-0.0916,0.0,0.0,0.0,0.0,0.0,0.0,0.0,0.0,0.0,-0.2717,-0.3231,-0.364,-0.4016,-0.4028,-0.3994,-0.3994,0.0,0.0,0.0,0.0,0.0,0.0,0.0,-0.3927,-0.3927,-0.4039,-0.4168,-0.4338,-0.4518,-0.4641,-0.4641,0.0,0.0,-0.4003,-0.3877,-0.387,-0.3921,-0.428,-0.4598,-0.4734,-0.5536,-0.6247,0.0,0.0,0.0,0.0,0.0,0.0,0.0,0.0,0.5933,0.6107,0.0,0.6627,0.0,0.0,0.0,0.0,0.0,0.8476,0.0,0.0,0.9826,1.0119,1.0133,1.0133,0.9826,0.9288,0.9226,0.8882,0.8201,0.7322,0.0,0.0,0.0,0.0,0.0,0.0,0.4759,0.4481,0.4763,0.4928,0.4928,0.4928,0.5117,0.5542,0.5562,0.5331,0.4884,0.455,0.4303,0.4125,0.3712,0.0,0.0,0.0,0.0,0.0,0.0,0.0,0.0,0.0,0.0,0.0,0.0,0.0,0.0,0.0,0.0,0.0,0.0,0.0,0.0,-0.0695,0.0,0.0,0.0,0.0,0.0,0.0,0.0,0.0,0.0,0.0,-0.2302,-0.2718,-0.3231,-0.4066,0.0,0.0,0.0,0.0,-0.414,-0.4035,-0.4008,-0.4058,-0.4213,-0.4207,-0.42,-0.4233,0.0,0.0,-0.4704,-0.4617,-0.457,-0.4553,-0.4535,-0.4505,-0.4498,-0.4219,-0.4033,-0.4157,-0.4448,-0.4688,-0.4853,-0.5185,-0.5523,0.7603,0.0,0.0,0.0,0.0,0.6374,0.6606,0.7022,0.7172,0.7233,0.7236,0.7521,0.0,0.0,0.0,0.0,0.0,0.0,0.903,0.9848,1.0258,1.0572,1.0828,1.0821,1.0733,1.055,1.008,0.9621,0.9179,0.8724,0.7812,0.6487,0.0,0.0,0.0,0.0,0.5426,0.5468,0.5414,0.5399,0.5399,0.5399,0.5391,0.5391,0.5519,0.5243,0.4495,0.4568,0.4587,0.452,0.4395,0.0,0.0,0.0,0.0,0.0,0.0,0.0,0.0,0.0,0.0,0.0,0.0,0.0,0.0,0.0,0.0,0.0,0.0,0.0,-0.094,-0.0764,-0.0748,0.0,0.0,0.0,0.0,0.0,0.0,0.0,0.0,0.0,-0.1821,-0.2647,-0.3315,0.0,0.0,-0.4127,-0.4156,-0.4099,-0.4115,-0.4337,-0.4223,0.0,-0.4524,-0.4473,-0.444,-0.4545,-0.4779,-0.5006,-0.4972,-0.506,-0.5136,-0.5129,-0.4928,-0.4789,-0.4765,-0.4429,-0.4176,-0.4185,-0.4285,-0.4398,-0.46,-0.5075,-0.5487,0.9085,0.808,0.7338,0.7024,0.7071,0.7097,0.7288,0.7653,0.7726,0.7887,0.8184,0.8361,0.8269,0.7964,0.8263,0.0,0.0,0.0,0.963,1.0492,1.0718,1.0982,1.1283,1.1291,1.1158,1.0894,1.0485,1.0053,0.9588,0.9339,0.8599,0.7474,0.0,0.0,0.5439,0.5623,0.5788,0.5885,0.5878,0.5841,0.5841,0.5841,0.5748,0.5548,0.5661,0.5424,0.4845,0.4891,0.4931,0.4931,0.4707,0.4529,0.0,0.0,0.0,0.0,0.0,0.0,0.0,0.0,0.0,0.0,0.0,0.1928,0.1838,0.0,0.0,0.0,-0.0212,-0.0742,-0.0935,-0.0747,0.0,0.0,0.0,0.0,0.0,0.0,0.0,-0.078,-0.077,-0.1039,-0.1636,-0.2492,-0.3148,-0.3545,-0.3932,-0.4223,-0.4223,0.0,-0.4149,-0.4351,-0.4277,-0.4304,-0.459,-0.4655,-0.4694,-0.4813,-0.4958,-0.5039,-0.5093,-0.5169,-0.5235,-0.522,-0.5026,-0.483,-0.483,-0.4555,-0.4334,-0.4331,-0.4308,-0.4365,-0.4477,-0.4814,-0.5109,1.029,0.9531,0.8434,0.782,0.7641,0.7622,0.7872,0.8313,0.7904,0.8359,0.9318,0.9239,0.9138,0.9047,0.9105,0.0,1.0185,1.0185,1.0514,1.1144,1.1144,1.1298,1.1591,1.1591,1.1261,1.066,1.063,1.0265,0.9665,0.9358,0.8959,0.8468,0.759,0.6663,0.5716,0.5813,0.5892,0.5885,0.6078,0.6191,0.62,0.62,0.6097,0.5892,0.5887,0.5779,0.5542,0.5368,0.5264,0.5259,0.4745,0.4451,0.4451,0.0,0.0,0.0,0.0,0.0,0.0,0.0,0.0,0.0,0.0,0.0,0.0,0.0,0.0,0.0,-0.0181,0.0,-0.0694,-0.0711,0.0,0.0,0.0,-0.0949,-0.1156,-0.0986,-0.0834,-0.0807,0.0,0.0,-0.1639,-0.2227,-0.2844,-0.3525,-0.3968,-0.4217,-0.4174,-0.4141,-0.4161,-0.4144,-0.4154,-0.4257,-0.4524,-0.4735,-0.4928,-0.5015,-0.4975,-0.4975,-0.5039,-0.4985,-0.4958,-0.5059,-0.4884,-0.4697,-0.4694,-0.4565,-0.4491,-0.4481,-0.4484,-0.4484,-0.4491,-0.4519,-0.457,1.0546,0.99,0.9596,0.9138,0.8623,0.8656,0.8637,0.869,0.9521,0.9892,0.9956,1.0661,1.0699,1.02,1.02,1.045,1.0872,1.0872,1.1092,1.1467,1.1474,1.1525,1.1591,1.1591,1.1379,1.099,1.0697,1.0382,0.998,0.9639,0.9119,0.8343,0.7747,0.7079,0.6293,0.5878,0.5755,0.588,0.5932,0.604,0.6196,0.62,0.6031,0.5689,0.5655,0.5509,0.5173,0.5084,0.5083,0.5083,0.4943,0.4854,0.4854,0.4793,0.0,0.0,0.0,0.0,0.0,0.0,0.0,0.0,0.0,0.2048,0.1844,0.0,0.0512,0.0,-0.0195,-0.0648,-0.0758,-0.0743,0.0,0.0,-0.1139,-0.1199,-0.0932,-0.1213,-0.1247,-0.0859,-0.0853,-0.108,-0.1645,-0.2229,-0.2846,-0.3525,-0.4073,-0.4288,-0.3962,-0.3811,-0.3788,-0.3868,-0.3883,-0.4119,-0.4647,-0.4837,-0.4864,-0.4935,-0.4904,-0.4935,-0.4931,-0.4911,-0.4904,-0.4924,-0.479,-0.4704,-0.4687,-0.4597,-0.4498,-0.4491,-0.4491,-0.4491,-0.4491,-0.4491,-0.4491,1.0713,0.9994,0.9994,0.9743,0.9253,0.9155,0.8999,0.8908,0.9857,1.0309,1.0383,1.1357,1.1575,1.1231,1.1085,1.1121,1.132,1.132,1.1423,1.1591,1.1591,1.1591,1.1591,1.1591,1.1423,1.11,1.0916,1.0638,1.0324,1.0141,0.9724,0.9096,0.86,0.7908,0.6993,0.6065,0.5665,0.5774,0.5864,0.6015,0.6191,0.62,0.6003,0.5603,0.5584,0.5415,0.5021,0.5007,0.5007,0.5007,0.5007,0.5007,0.5007,0.5007,0.4834,0.0,0.0,0.0,0.0,0.0,0.0,0.0,0.0,0.0,0.0,0.0,0.0258,-0.0092,-0.0424,-0.0682,-0.0775,-0.0753,-0.0776,-0.0849,-0.1073,-0.1144,-0.0872,-0.113,-0.1188,-0.0875,-0.0888,-0.1226,-0.2038,-0.2416,-0.2975,-0.3868,-0.4045,-0.4014,-0.3736,-0.3442,-0.3314,-0.3661,-0.3729,-0.3857,-0.4344,-0.4133,-0.403,-0.4344,-0.4343,-0.4412,-0.474,-0.4758,-0.4738,-0.4792,-0.4691,-0.4617,-0.4614,-0.4552,-0.4491,-0.4491,-0.4491,-0.4491,-0.4491,-0.4491,-0.4491,1.0771,1.0038,0.9994,0.9852,0.9667,0.9413,0.9273,0.9203,0.9821,1.0399,1.0969,1.1714,1.2047,1.1981,1.1738,1.1591,1.1591,1.1591,1.1591,1.1591,1.1591,1.1591,1.1591,1.1591,1.1415,1.1114,1.1107,1.0938,1.0587,1.058,1.0454,1.0091,0.9487,0.8657,0.7582,0.6276,0.5632,0.5613,0.5782,0.5975,0.6158,0.6134,0.5937,0.557,0.5566,0.5387,0.5026,0.5007,0.5007,0.5007,0.5007,0.5007,0.5007,0.503,0.5027,0.0,0.4737,0.0,0.0,0.0,0.0,0.0,0.0,0.0,0.0,0.068,0.0,-0.0761,-0.0763,-0.073,-0.0782,-0.0813,-0.0875,-0.098,-0.1016,-0.1058,-0.1116,-0.1065,-0.1009,-0.1009,-0.1009,-0.1456,-0.251,-0.2762,-0.3236,-0.4073,-0.3793,-0.3433,-0.3294,-0.2877,-0.2766,-0.332,-0.3433,-0.348,-0.3585,-0.3135,-0.3027,-0.3611,-0.3738,-0.3834,-0.4554,-0.4586,-0.4539,-0.4616,-0.4586,-0.4501,-0.4491,-0.4491,-0.4491,-0.4491,-0.4491,-0.4491,-0.4491,-0.4491,-0.4491,1.0814,1.0038,0.9994,0.9975,0.9875,0.9672,0.9692,1.0027,1.0788,1.1639,1.2523,1.2456,1.2277,1.1989,1.1706,1.1591,1.1591,1.1591,1.1591,1.1591,1.1591,1.1591,1.1591,1.1591,1.1423,1.1122,1.1107,1.0931,1.0587,1.058,1.0426,1.0084,0.9074,0.8259,0.7568,0.0,0.0,0.0,0.5807,0.593,0.5932,0.5812,0.5604,0.5358,0.5349,0.0,0.5021,0.5007,0.5007,0.5007,0.5007,0.0,0.0,0.0,0.0,0.0,0.0,0.0,0.0,0.0,0.0,0.0,0.1577,0.1076,0.0983,0.0277,-0.0357,-0.0814,-0.081,-0.0805,-0.0892,-0.0896,-0.1057,-0.1488,-0.1608,-0.1806,-0.2263,-0.193,-0.1624,-0.1623,-0.1624,-0.1902,-0.2569,-0.3098,-0.3486,-0.371,-0.3236,-0.2681,-0.2235,-0.2068,-0.2014,-0.2151,-0.2569,-0.2852,-0.2927,-0.2777,-0.2798,-0.3457,-0.3619,-0.3805,-0.433,-0.449,-0.4491,-0.4539,-0.4508,-0.4491,-0.4491,-0.4491,-0.4491,-0.4491,-0.4491,-0.4491,-0.4491,-0.4491,-0.4491,1.1043,0.0,1.0081,1.0255,0.0,1.052,1.0875,1.1606,1.1474,1.2104,1.3236,1.2906,1.2638,1.2482,1.2006,1.1794,1.1787,1.1657,1.1591,1.1591,1.1591,1.1591,1.1591,1.1591,1.1503,1.1349,1.1349,1.1261,1.1107,1.11,1.0931,1.0587,0.9688,0.8871,0.813,0.6834,0.6067,0.576,0.5859,0.5963,0.6031,0.5946,0.5786,0.5604,0.5594,0.0,0.0,0.0,0.0,0.0,0.0,0.0,0.0,0.5335,0.0,0.5448,0.5547,0.528,0.4553,0.4095,0.3482,0.2601,0.1383,0.0554,0.0311,-0.0263,-0.067,-0.0872,-0.086,-0.0857,-0.09,-0.1147,-0.1447,-0.1718,-0.2047,-0.2374,-0.2625,-0.243,-0.2125,-0.1846,-0.179,-0.2041,-0.2597,-0.2653,-0.2986,-0.343,-0.2817,-0.2151,-0.1846,-0.1539,-0.1427,-0.1734,-0.2014,-0.2235,-0.2207,-0.1986,-0.2012,-0.2541,-0.2708,-0.2959,-0.3514,-0.3849,-0.4045,-0.407,-0.4294,-0.4491,-0.4491,-0.4491,-0.4491,-0.4491,-0.4491,-0.4491,-0.4491,-0.4491,-0.4491,1.1296,1.0593,1.0424,1.0702,1.1219,1.1385,1.2052,1.3061,0.0,0.0,0.0,1.3148,1.3009,1.2965,1.2353,1.2083,1.2069,1.1853,1.176,1.176,1.1767,1.1738,1.1679,1.1679,1.165,1.1591,1.1591,1.1591,1.1591,1.1591,1.1459,1.1127,1.0401,0.9484,0.8427,0.7136,0.6337,0.6007,0.5944,0.5965,0.6139,0.6116,0.6007,0.5864,0.5829,0.5779,0.5618,0.5584,0.5528,0.5358,0.5514,0.5528,0.5386,0.5542,0.5665,0.5641,0.5678,0.5387,0.4696,0.43,0.357,0.2376,0.1204,0.0277,-0.0242,-0.0662,-0.0897,-0.0897,-0.0897,-0.0897,-0.0897,-0.1344,-0.1734,-0.193,-0.2402,-0.2764,-0.2959,-0.2792,-0.2486,-0.2068,-0.1874,-0.1986,-0.2402,-0.2235,-0.2235,-0.2931,-0.243,-0.1734,-0.1595,-0.1232,-0.1093,-0.1511,-0.1595,-0.1651,-0.1567,-0.1288,-0.1177,-0.179,-0.1874,-0.2014,-0.2597,-0.3125,-0.343,-0.3652,-0.4042,-0.4322,-0.446,-0.4491,-0.4491,-0.4491,-0.4491,-0.4491,-0.4491,-0.4491,-0.4491,1.144,1.0674,1.1413,1.1379,1.0936,1.1731,1.2472,1.3087,1.317,1.3309,1.3477,1.3155,1.3009,1.2987,1.2621,1.2419,1.2419,1.2375,1.2387,1.2353,1.2353,1.2241,1.1937,1.1937,1.1823,1.1606,1.1591,1.1591,1.1591,1.1599,1.1569,1.137,1.0223,0.886,0.7464,0.6812,0.6473,0.6407,0.6064,0.5925,0.5949,0.5783,0.5664,0.5656,0.5661,0.5637,0.5609,0.5589,0.5594,0.5566,0.559,0.5594,0.5576,0.576,0.5868,0.5848,0.6017,0.5743,0.4918,0.434,0.3076,0.098,0.0783,0.053,-0.0139,-0.0643,-0.0897,-0.0897,-0.0897,-0.0897,-0.0897,-0.1009,-0.1484,-0.2402,-0.2653,-0.307,-0.4015,-0.332,-0.2681,-0.2541,-0.2124,-0.1818,-0.1958,-0.2265,-0.2291,-0.2124,-0.1902,-0.1595,-0.1204,-0.0954,-0.0926,-0.1009,-0.1037,-0.1038,-0.1065,-0.0981,-0.1149,-0.1706,-0.1762,-0.1902,-0.243,-0.2681,-0.2959,-0.3489,-0.3655,-0.3932,-0.4349,-0.4491,-0.4436,-0.4405,-0.4377,-0.4377,-0.4349,-0.4377,-0.446,1.175,1.1073,1.1714,1.194,1.1899,1.3146,1.3831,1.4067,1.4024,1.3923,1.3726,1.3411,1.3272,1.3243,1.2928,1.2747,1.2782,1.2599,1.2397,1.2244,1.2412,1.2222,1.1845,1.2131,1.2098,1.1831,1.1816,1.1816,1.1816,1.1823,1.1823,1.172,1.0451,0.8988,0.7437,0.7052,0.6784,0.6671,0.6266,0.6054,0.6054,0.5991,0.5923,0.5923,0.5923,0.5923,0.5923,0.5923,0.5866,0.5774,0.5862,0.5892,0.5763,0.5946,0.6054,0.6064,0.6149,0.5814,0.4952,0.4039,0.2956,0.1649,0.1202,0.0755,0.0196,-0.0505,-0.0897,-0.0897,-0.0897,-0.0897,-0.0897,-0.1177,-0.1734,-0.2597,-0.2986,-0.3544,-0.4211,-0.3766,-0.307,-0.2736,-0.2181,-0.1818,-0.179,-0.1762,-0.1818,-0.1734,-0.1568,-0.1205,-0.0926,-0.0897,-0.0897,-0.0897,-0.0897,-0.0897,-0.0897,-0.0897,-0.1037,-0.1289,-0.1316,-0.1428,-0.1734,-0.193,-0.232,-0.2627,-0.3098,-0.3652,-0.4015,-0.4015,-0.4015,-0.399,-0.371,-0.3572,-0.3541,-0.3763,-0.4101,1.2029,1.1365,1.2143,1.2741,1.3294,1.4425,1.49,1.4878,1.4677,1.4428,1.4179,1.3857,1.3682,1.3579,1.3338,1.3192,1.3089,1.2855,1.2572,1.2375,1.2621,1.2438,1.1977,1.2409,1.2426,1.2142,1.2113,1.2113,1.2113,1.2105,1.1908,1.1572,1.057,0.9265,0.766,0.7384,0.718,0.6944,0.6553,0.6346,0.6341,0.6294,0.6271,0.6271,0.6224,0.62,0.62,0.62,0.6125,0.6006,0.6116,0.6125,0.5975,0.6111,0.62,0.62,0.62,0.5814,0.4846,0.3824,0.2963,0.243,0.1675,0.0979,0.042,-0.0308,-0.0785,-0.0785,-0.0813,-0.0841,-0.0841,-0.1204,-0.179,-0.2374,-0.2847,-0.332,-0.3904,-0.3572,-0.3044,-0.2514,-0.1984,-0.1567,-0.1512,-0.1205,-0.112,-0.1428,-0.1177,-0.0898,-0.0897,-0.0897,-0.0897,-0.0897,-0.0897,-0.0897,-0.0897,-0.0897,-0.0897,-0.0897,-0.0897,-0.0953,-0.1065,-0.1344,-0.1679,-0.1902,-0.2541,-0.3125,-0.335,-0.3403,-0.3403,-0.3375,-0.3098,-0.2764,-0.282,-0.3095,-0.3572,1.2123,1.1628,1.3137,1.4213,1.4641,1.4841,1.4915,1.4907,1.4871,1.4849,1.4769,1.4516,1.4201,1.3998,1.3887,1.3741,1.3448,1.3411,1.3353,1.3316,1.3389,1.3214,1.2833,1.2893,1.2762,1.2477,1.2407,1.2374,1.2415,1.2407,1.1784,1.061,1.0335,0.9529,0.815,0.7664,0.7455,0.7427,0.6972,0.6765,0.6726,0.6572,0.6473,0.6468,0.6299,0.62,0.6214,0.62,0.6196,0.6177,0.6186,0.6196,0.6177,0.6196,0.62,0.62,0.6173,0.5709,0.4656,0.3913,0.3135,0.2155,0.1761,0.1231,0.0504,-0.0112,-0.0421,-0.0449,-0.0617,-0.0645,-0.0505,-0.0701,-0.112,-0.1677,-0.1845,-0.2068,-0.2706,-0.232,-0.1928,-0.1902,-0.1428,-0.101,-0.1037,-0.0953,-0.0925,-0.1037,-0.101,-0.0897,-0.0897,-0.0897,-0.0897,-0.0897,-0.0897,-0.0897,-0.0897,-0.0897,-0.0897,-0.0897,-0.0897,-0.0897,-0.0926,-0.0982,-0.1121,-0.1595,-0.1902,-0.2293,-0.2625,-0.2764,-0.2792,-0.2764,-0.2653,-0.2625,-0.2681,-0.2736,-0.3014,1.2149,1.1494,1.3343,1.4511,1.5151,1.5192,1.5185,1.5192,1.5185,1.5192,1.5148,1.4849,1.4465,1.4034,1.4027,1.3806,1.3499,1.3492,1.3389,1.3243,1.3397,1.3228,1.272,1.2628,1.24,1.2116,1.2096,1.2061,1.2103,1.2103,1.141,1.0164,0.9948,0.9333,0.8313,0.8011,0.7802,0.7679,0.7484,0.7338,0.7187,0.6859,0.669,0.6641,0.6487,0.6379,0.6365,0.6271,0.62,0.62,0.62,0.62,0.62,0.62,0.62,0.6173,0.5704,0.5234,0.4763,0.4024,0.3416,0.2965,0.2181,0.1567,0.1231,0.0392,-0.0168,-0.0196,-0.0393,-0.0477,-0.0421,-0.0477,-0.0756,-0.1287,-0.1426,-0.1733,-0.2486,-0.2038,-0.1706,-0.1734,-0.1289,-0.0897,-0.0897,-0.0897,-0.0897,-0.0897,-0.0869,-0.0869,-0.0897,-0.0897,-0.0897,-0.0897,-0.0897,-0.0897,-0.0897,-0.0897,-0.0897,-0.0897,-0.0897,-0.0897,-0.0897,-0.0897,-0.1009,-0.1261,-0.154,-0.1818,-0.2125,-0.2153,-0.2181,-0.2125,-0.179,-0.1624,-0.1623,-0.1928,-0.2263,1.1942,1.1585,1.3069,1.423,1.5041,1.5298,1.5389,1.5389,1.5389,1.5389,1.536,1.4921,1.4398,1.3951,1.3956,1.3799,1.3521,1.3492,1.3426,1.3301,1.3521,1.3273,1.2678,1.2524,1.2164,1.1747,1.1614,1.1611,1.1654,1.187,1.1248,1.0056,0.9585,0.9101,0.8495,0.8129,0.7957,0.7962,0.7896,0.7816,0.7636,0.7286,0.7024,0.6897,0.6638,0.6497,0.6497,0.6313,0.62,0.62,0.62,0.62,0.62,0.62,0.62,0.6119,0.5367,0.4901,0.4873,0.4104,0.353,0.3302,0.2376,0.1734,0.1427,0.0588,0.0,0.0,-0.0196,-0.028,-0.028,-0.0336,-0.0532,-0.0951,-0.0979,-0.1286,-0.176,-0.151,-0.1287,-0.1371,-0.1036,-0.0869,-0.0897,-0.0869,-0.0841,-0.0813,-0.0785,-0.0757,-0.0757,-0.0729,-0.0729,-0.0757,-0.0785,-0.0869,-0.0869,-0.0897,-0.0897,-0.0897,-0.0897,-0.0897,-0.0897,-0.0897,-0.0897,-0.1093,-0.14,-0.1512,-0.154,-0.154,-0.1568,-0.1484,-0.1232,-0.0954,-0.1037,-0.1316,-0.1484,1.1498,1.1462,1.2376,1.3366,1.423,1.5048,1.5389,1.5389,1.5389,1.5389,1.5215,1.449,1.3937,1.3588,1.3744,1.3776,1.3462,1.3448,1.3556,1.3737,1.387,1.3634,1.3112,1.2852,1.2286,1.1407,1.122,1.1161,1.1186,1.1829,1.1471,0.9916,0.9271,0.8888,0.8566,0.7919,0.7827,0.828,0.816,0.8087,0.8049,0.7859,0.756,0.7199,0.6757,0.653,0.6497,0.6318,0.621,0.6205,0.6205,0.62,0.62,0.62,0.6178,0.6091,0.5371,0.4873,0.4791,0.4076,0.336,0.2794,0.2179,0.1568,0.1037,0.0393,0.0,0.0,0.0,0.0,-0.0056,-0.0168,-0.0224,-0.0308,-0.028,-0.0393,-0.0532,-0.0644,-0.0477,-0.0561,-0.0645,-0.0729,-0.0841,-0.0785,-0.0729,-0.0673,-0.0561,-0.0449,-0.0477,-0.0449,-0.0477,-0.0505,-0.0589,-0.0757,-0.0841,-0.0897,-0.0897,-0.0897,-0.0897,-0.0897,-0.0897,-0.0897,-0.0869,-0.0869,-0.1009,-0.1037,-0.0981,-0.0981,-0.1009,-0.1009,-0.1037,-0.0897,-0.0897,-0.0897,-0.1037,1.1538,1.18,1.2425,1.3233,1.4181,1.5041,1.5389,1.5389,1.5389,1.5082,1.4531,1.4027,1.3385,1.2694,1.2565,1.246,1.2421,1.2824,1.286,1.2642,1.3136,1.2994,1.2196,1.1629,1.1192,1.0857,1.0751,1.0706,1.0701,1.0793,1.0106,0.8937,0.8415,0.8199,0.8075,0.7833,0.7935,0.8332,0.8316,0.8222,0.8099,0.8009,0.7868,0.7588,0.718,0.6962,0.6962,0.6581,0.6398,0.6398,0.6276,0.62,0.6178,0.5955,0.5814,0.5732,0.4952,0.4457,0.4401,0.391,0.3357,0.2738,0.2124,0.154,0.0952,0.0,0.0,0.0,0.0,0.0,0.0,-0.0056,0.0,0.0,0.0,-0.014,-0.0224,-0.028,-0.0308,-0.0393,-0.0477,-0.0533,-0.0561,-0.0533,-0.0505,-0.0505,-0.0449,-0.0393,-0.0393,-0.0393,-0.0393,-0.0393,-0.0449,-0.0505,-0.0561,-0.0785,-0.0897,-0.0897,-0.0897,-0.0897,-0.0897,-0.0869,-0.0841,-0.0813,-0.0841,-0.0841,-0.0841,-0.0841,-0.0841,-0.0841,-0.0841,-0.0813,-0.0897,-0.0841,-0.0869,1.1267,1.1462,1.2339,1.3063,1.3747,1.4908,1.5389,1.5347,1.509,1.4657,1.405,1.3252,1.2504,1.1885,1.1295,1.1065,1.125,1.2043,1.2209,1.1936,1.2512,1.2348,1.1601,1.0961,1.0479,1.03,1.043,1.0398,1.0095,0.9862,0.9184,0.8176,0.7583,0.7335,0.7488,0.7514,0.7757,0.8141,0.8389,0.8425,0.8288,0.8248,0.8158,0.7943,0.7607,0.7323,0.7194,0.6818,0.6572,0.6497,0.637,0.6271,0.6187,0.5818,0.5591,0.5508,0.4732,0.4205,0.415,0.3827,0.3274,0.2488,0.2041,0.1511,0.0729,0.0224,0.0,0.0,0.0,0.0,0.0,0.0,0.0,0.0,0.0,0.0,-0.0112,-0.014,-0.0196,-0.028,-0.0336,-0.0364,-0.0393,-0.0364,-0.0336,-0.0336,-0.0308,-0.028,-0.028,-0.028,-0.028,-0.028,-0.0308,-0.0336,-0.0393,-0.0561,-0.0645,-0.0673,-0.0701,-0.0757,-0.0785,-0.0785,-0.0757,-0.0757,-0.0757,-0.0729,-0.0729,-0.0757,-0.0757,-0.0757,-0.0701,-0.0645,-0.0701,-0.0785,-0.0785,1.0617,1.0391,1.1949,1.2674,1.3021,1.4475,1.5305,1.5173,1.444,1.3964,1.3535,1.2163,1.1455,1.1096,1.0344,0.9852,1.0215,1.1109,1.1712,1.1922,1.2011,1.171,1.1112,1.0837,1.0381,0.9751,1.0198,1.0065,0.9493,0.9311,0.8805,0.7992,0.6817,0.6527,0.6907,0.6992,0.7242,0.7838,0.8362,0.8675,0.8675,0.8491,0.8382,0.8325,0.7981,0.7636,0.7242,0.6944,0.6732,0.6548,0.6501,0.6403,0.6124,0.5732,0.554,0.5344,0.4649,0.4233,0.4153,0.3802,0.3079,0.2125,0.1818,0.1315,0.0336,0.0,0.0,0.0,0.0,0.0,0.0,0.0,0.0,0.0,0.0,0.0,0.0,0.0,-0.0056,-0.0168,-0.0196,-0.0252,-0.0308,-0.0252,-0.0196,-0.0168,-0.0112,0.0,0.0,0.0,0.0,-0.0028,-0.0112,-0.0196,-0.0252,-0.0308,-0.0364,-0.0393,-0.0449,-0.0505,-0.0533,-0.0533,-0.0561,-0.0561,-0.0561,-0.0533,-0.0561,-0.0561,-0.0533,-0.0533,-0.0477,-0.0477,-0.0533,-0.0617,-0.0701,1.0187,1.0125,1.1235,1.2132,1.2717,1.3317,1.388,1.4405,1.3542,1.2766,1.2132,1.158,1.0977,1.0454,1.0158,0.9797,0.9446,0.9927,1.0328,1.057,1.0343,0.9981,0.973,0.9607,0.967,0.9776,0.9386,0.9442,0.9489,0.8476,0.774,0.7571,0.6555,0.613,0.6357,0.673,0.7207,0.7787,0.8394,0.8703,0.8699,0.8642,0.8543,0.8401,0.8269,0.8009,0.7636,0.7285,0.6974,0.6732,0.6577,0.6295,0.5771,0.5062,0.4649,0.4567,0.4104,0.3774,0.3774,0.3635,0.3079,0.2099,0.1818,0.1203,0.0,0.0,0.0,0.0,0.0,0.0,0.0,0.0,0.0,0.0,0.0,0.0,0.0,0.0,0.0,-0.0056,-0.0056,-0.0084,0.0,0.0,0.0,0.0,0.0,0.0,0.0,0.0,0.0,0.0,0.0,0.0,0.0028,0.0028,0.0,-0.0112,-0.0196,-0.0308,-0.0336,-0.0336,-0.0336,-0.0364,-0.0364,-0.0364,-0.0364,-0.0364,-0.0336,-0.0364,-0.0393,-0.0393,-0.0393,-0.0449,-0.0561,1.0066,1.0081,1.0939,1.1623,1.2211,1.2504,1.3021,1.3408,1.2595,1.1699,1.1027,1.0574,0.9979,0.9451,0.9714,0.9448,0.8783,0.8914,0.9104,0.9249,0.896,0.8645,0.8504,0.8492,0.8941,0.9508,0.9104,0.9148,0.9665,0.8296,0.7472,0.726,0.637,0.584,0.5903,0.6569,0.7149,0.7604,0.809,0.8507,0.8673,0.8512,0.8415,0.8487,0.8444,0.8274,0.7999,0.7645,0.7253,0.6944,0.6661,0.6237,0.5729,0.4934,0.4398,0.4153,0.3858,0.3613,0.3613,0.3613,0.319,0.232,0.193,0.1399,0.0,0.0,0.0,0.0,0.0,0.0,0.0,0.0,0.0,0.0,0.0,0.0,0.0,0.0,0.0,0.0,0.0,0.0,0.0,0.0,0.0,0.0,0.0,0.0,0.0,0.0,0.0,0.0,0.0,0.0,0.0,0.0364,0.0336,0.0196,0.0056,-0.0084,-0.0196,-0.0196,-0.0196,-0.0168,-0.0168,-0.0168,-0.0196,-0.0196,-0.0196,-0.0252,0.0,0.0,0.0,0.0,-0.0477,1.018,1.0135,1.0895,1.1235,1.1451,1.2126,1.2462,1.2462,1.1526,1.0786,1.0194,0.9354,0.8649,0.834,0.8898,0.8736,0.8105,0.8232,0.8197,0.807,0.7919,0.7838,0.7801,0.7834,0.8349,0.9178,0.9137,0.9179,0.9385,0.8433,0.7834,0.7018,0.6228,0.5619,0.5737,0.6471,0.7016,0.7177,0.7599,0.816,0.8681,0.8134,0.7983,0.8452,0.8375,0.83,0.8152,0.7899,0.7579,0.7199,0.6716,0.6251,0.5825,0.5233,0.4626,0.4182,0.3797,0.3658,0.3627,0.3591,0.3302,0.2683,0.2096,0.1539,0.0897,0.0,0.0,0.0,0.0,0.0,0.0,0.0,0.0,0.0,0.0,0.0,0.0,0.0,0.0,0.0,0.0,0.0,0.0,0.0,0.0,0.0,0.0,0.0,0.0,0.0,0.0,0.0,0.0,0.0,0.0812,0.0952,0.0896,0.0533,0.0364,0.0168,0.0,0.0,0.0,0.0,0.0,0.0,0.0,0.0,0.0,0.0,0.0,0.0,0.0,0.0,-0.0364,1.0047,1.0043,1.025,1.0722,1.1149,1.0939,1.1106,1.1445,1.0149,0.9526,0.9236,0.848,0.8095,0.8158,0.8366,0.8149,0.7689,0.7734,0.7362,0.6849,0.6768,0.6998,0.7214,0.732,0.7983,0.9103,0.8864,0.8854,0.9258,0.8208,0.7386,0.705,0.6249,0.5757,0.5866,0.6446,0.6692,0.6768,0.7261,0.7486,0.7533,0.7359,0.7254,0.7365,0.7774,0.7868,0.7757,0.7789,0.7622,0.7187,0.661,0.6041,0.5586,0.5066,0.4555,0.4074,0.3862,0.3736,0.3717,0.3654,0.3304,0.2738,0.2209,0.154,0.0953,0.0336,0.0,0.0,0.0,0.0,0.0,0.0,0.0,0.0,0.0,0.0,0.0,0.0,0.0,0.0,0.0,0.0,0.0,0.0,0.0,0.0,0.0,0.0,0.0,0.0,0.0056,0.0505,0.0,0.0,0.1343,0.1511,0.1399,0.0925,0.0673,0.0477,0.0,0.0,0.0,0.0,0.0,0.0,0.0,0.0,0.0,0.0,0.0,0.0,0.0,-0.0084,-0.0252,0.9994,0.9994,0.9994,1.0294,1.0641,0.9898,0.9806,0.9975,0.9017,0.8329,0.8155,0.7743,0.7443,0.7428,0.7773,0.7535,0.7003,0.7372,0.7137,0.6489,0.6382,0.648,0.6658,0.6649,0.7456,0.8895,0.8597,0.8847,0.9335,0.8639,0.7965,0.7189,0.6639,0.6236,0.5846,0.6391,0.6637,0.6651,0.6923,0.7126,0.7268,0.6869,0.6938,0.7027,0.7352,0.7399,0.7499,0.7548,0.7446,0.7251,0.6848,0.6297,0.5578,0.5213,0.4668,0.3989,0.3851,0.3812,0.3793,0.3676,0.3477,0.3077,0.2516,0.193,0.1344,0.0728,0.0393,0.0,0.0,0.0504,0.0672,0.056,0.0252,0.0,0.0224,0.0252,0.0028,0.0,0.0,0.0,0.0,0.0,0.0,0.0,0.0,0.0,0.0,0.0,0.0,0.0,0.0252,0.0729,0.1121,0.14,0.1874,0.2125,0.2097,0.1652,0.112,0.0924,0.0,0.0,0.0,0.0,0.0,0.0,0.0,0.0,0.0,0.0,0.0,0.0,0.0,-0.0028,-0.0168,1.0013,0.9999,1.0018,0.997,0.9825,0.9222,0.8964,0.8671,0.8084,0.7528,0.7188,0.6998,0.6724,0.6363,0.706,0.6994,0.6393,0.7057,0.6939,0.652,0.6328,0.6343,0.6255,0.6164,0.6948,0.8219,0.8432,0.8741,0.906,0.9377,0.8635,0.73,0.696,0.662,0.6056,0.6349,0.6571,0.6524,0.6624,0.685,0.7055,0.6665,0.6548,0.6863,0.6921,0.703,0.7206,0.7239,0.7168,0.731,0.7246,0.6723,0.5931,0.5605,0.5006,0.4251,0.3991,0.3849,0.3823,0.3715,0.3627,0.3421,0.2991,0.2514,0.19,0.1343,0.1009,0.0981,0.0981,0.1204,0.1455,0.126,0.0869,0.056,0.0756,0.0673,0.0253,0.0084,0.0084,0.0,0.0,0.0,0.0,0.0,0.0,0.0,0.0,0.0,0.0,0.0,0.056,0.1037,0.14,0.1679,0.2209,0.2766,0.2683,0.2432,0.1818,0.1371,0.0812,0.0,0.0,0.0,0.0,0.0,0.0,0.0,0.0,0.0,0.0,0.0,0.0,0.0,-0.014,1.0151,1.0009,1.018,0.9792,0.9196,0.9087,0.8674,0.7996,0.7444,0.7086,0.6896,0.6419,0.6233,0.6317,0.6511,0.6459,0.6374,0.6602,0.645,0.641,0.6385,0.6388,0.6309,0.6146,0.6646,0.7543,0.8128,0.8168,0.8124,0.8434,0.7895,0.6605,0.6526,0.6244,0.6095,0.6227,0.6325,0.6243,0.6317,0.6359,0.635,0.6217,0.6038,0.6183,0.6338,0.6588,0.6796,0.6805,0.6659,0.6674,0.6978,0.6991,0.6375,0.5954,0.5398,0.4774,0.4247,0.3988,0.3895,0.3816,0.3706,0.3587,0.3149,0.2653,0.2541,0.1958,0.1652,0.1595,0.1595,0.168,0.1826,0.1736,0.1519,0.1409,0.1466,0.1392,0.0863,0.0711,0.0477,0.0,0.0,0.0,0.0,0.0,0.0,0.0,0.0,0.0,0.0,0.0,0.0924,0.1456,0.1846,0.2209,0.2715,0.316,0.3077,0.2991,0.249,0.1986,0.1427,0.1008,0.084,0.0,0.0,0.0,0.0,0.0,0.0,0.0,0.0,0.0,0.0,0.0,-0.0084,1.0291,1.013,0.9962,0.9572,0.905,0.844,0.7919,0.7494,0.6851,0.6625,0.6564,0.6161,0.6094,0.6263,0.6271,0.6328,0.642,0.6445,0.6437,0.6453,0.6497,0.6486,0.641,0.6322,0.6598,0.7343,0.7583,0.7631,0.7866,0.8002,0.7795,0.6572,0.6484,0.6319,0.6007,0.61,0.6139,0.6109,0.6233,0.6255,0.6102,0.6013,0.5852,0.5684,0.5852,0.608,0.6373,0.6208,0.6263,0.6415,0.6705,0.6645,0.6142,0.5798,0.5366,0.4749,0.4375,0.4099,0.4004,0.3912,0.3814,0.3748,0.3378,0.3095,0.2843,0.243,0.2263,0.2207,0.2211,0.2247,0.2313,0.2318,0.2241,0.2043,0.2193,0.2094,0.1572,0.1126,0.065,0.0,0.0,0.0,0.0,0.0,0.0,0.0,0.0,0.0,0.0,0.0813,0.1399,0.1902,0.2347,0.2794,0.3274,0.3499,0.3388,0.3302,0.3105,0.2657,0.2207,0.1873,0.1595,0.0,0.0,0.0,0.0,0.0,0.028,0.0,0.0,0.0,0.0,0.0,0.0,1.0366,1.0112,0.952,0.9206,0.8859,0.7705,0.7143,0.7011,0.6438,0.6239,0.6214,0.614,0.6176,0.6255,0.6295,0.6355,0.6448,0.6584,0.6619,0.6586,0.6627,0.66,0.6507,0.6481,0.6577,0.7269,0.7286,0.7441,0.7689,0.8055,0.7531,0.6834,0.6794,0.644,0.5928,0.5991,0.6102,0.6067,0.6279,0.6385,0.629,0.6187,0.5994,0.5752,0.564,0.5735,0.5891,0.5772,0.579,0.6282,0.6122,0.5764,0.5406,0.5265,0.5102,0.4509,0.4347,0.4172,0.4099,0.3986,0.3919,0.3908,0.3819,0.3582,0.3143,0.2965,0.2902,0.2884,0.2904,0.2947,0.3035,0.3046,0.2843,0.2643,0.2883,0.2743,0.2175,0.1502,0.1135,0.0,0.0,0.0,0.0,0.0,0.0,0.0224,0.0196,0.0308,0.0785,0.126,0.1874,0.232,0.2738,0.3019,0.3471,0.3599,0.354,0.3502,0.3446,0.3238,0.2899,0.278,0.2444,0.1878,0.0,0.1373,0.1233,0.1092,0.0784,0.0308,0.0,0.0,0.0,0.0,0.0,0.9725,0.9478,0.8894,0.8219,0.7523,0.7292,0.6924,0.6376,0.6319,0.6187,0.614,0.6248,0.6279,0.6282,0.6369,0.6368,0.6446,0.6651,0.6717,0.6681,0.6733,0.6755,0.6695,0.6548,0.6537,0.664,0.6861,0.6929,0.6792,0.6954,0.6976,0.6397,0.631,0.6112,0.6139,0.6159,0.6248,0.6221,0.632,0.6374,0.6372,0.6317,0.6217,0.5961,0.586,0.5739,0.5521,0.5373,0.5283,0.5267,0.52,0.5115,0.505,0.524,0.5228,0.4985,0.4608,0.4308,0.4178,0.4081,0.4,0.3939,0.3876,0.3808,0.3627,0.3501,0.3437,0.3522,0.3596,0.3663,0.3716,0.3663,0.3668,0.36,0.3532,0.3308,0.2519,0.2259,0.228,0.1757,0.1301,0.0841,0.0896,0.0924,0.0924,0.0896,0.084,0.1064,0.1511,0.193,0.2432,0.2796,0.3132,0.3357,0.3585,0.3604,0.3613,0.3568,0.3548,0.3628,0.3442,0.3595,0.3302,0.2617,0.2153,0.1911,0.1769,0.1681,0.1344,0.0896,0.0728,0.0617,0.0,0.0,0.0,1.0106,0.9496,0.8973,0.8245,0.751,0.7065,0.6753,0.6495,0.6385,0.6323,0.626,0.6211,0.6259,0.63,0.6244,0.6372,0.6622,0.6728,0.6798,0.682,0.6923,0.6945,0.6904,0.6757,0.669,0.6702,0.6745,0.6625,0.6197,0.6411,0.6425,0.6225,0.6086,0.6086,0.6094,0.6132,0.6265,0.6309,0.6325,0.6301,0.6339,0.6304,0.6208,0.6162,0.6002,0.5787,0.56,0.5442,0.5322,0.5268,0.52,0.5129,0.511,0.5131,0.5187,0.5009,0.4687,0.4468,0.4306,0.4254,0.4183,0.4097,0.4007,0.395,0.3912,0.3827,0.3792,0.3841,0.3882,0.3932,0.3986,0.3997,0.4027,0.4113,0.4086,0.3786,0.3348,0.3166,0.3007,0.2816,0.2167,0.1701,0.1539,0.1567,0.1568,0.154,0.1512,0.1818,0.2209,0.2516,0.288,0.3163,0.3432,0.3509,0.3667,0.3697,0.368,0.3651,0.3659,0.3739,0.3775,0.3819,0.3693,0.3271,0.2892,0.259,0.2359,0.2268,0.1875,0.1542,0.1404,0.1181,0.0729,0.0,0.028,1.0467,0.9526,0.8959,0.8289,0.7508,0.6895,0.6668,0.6687,0.6543,0.6403,0.6365,0.629,0.6268,0.6309,0.6336,0.6467,0.6828,0.6842,0.6907,0.7005,0.7139,0.7147,0.704,0.6978,0.6896,0.6744,0.679,0.6509,0.6287,0.6331,0.6263,0.6328,0.6311,0.63,0.6373,0.6452,0.6426,0.6429,0.6364,0.6361,0.6349,0.6265,0.6181,0.6303,0.6075,0.592,0.5757,0.5594,0.5472,0.542,0.536,0.5342,0.5208,0.5184,0.504,0.4807,0.4649,0.4572,0.4482,0.439,0.4314,0.4259,0.4172,0.4126,0.4059,0.3976,0.3935,0.394,0.3984,0.4029,0.414,0.4156,0.4194,0.4249,0.4281,0.4192,0.3862,0.3647,0.3526,0.3218,0.2783,0.2611,0.2508,0.2153,0.2153,0.2294,0.2294,0.2378,0.274,0.2852,0.3175,0.3457,0.3668,0.3703,0.377,0.383,0.38,0.3754,0.3776,0.3822,0.3873,0.3898,0.3744,0.3658,0.3666,0.3396,0.3136,0.285,0.2588,0.2338,0.2124,0.1785,0.137,0.0905,0.0617,0.9932,0.9105,0.8289,0.742,0.6715,0.6744,0.666,0.647,0.6573,0.6532,0.6422,0.6507,0.6526,0.6562,0.6654,0.6793,0.6915,0.6956,0.7005,0.7161,0.7196,0.7202,0.7169,0.7078,0.7034,0.697,0.6949,0.6703,0.6545,0.6616,0.6682,0.6674,0.6816,0.7032,0.6888,0.6911,0.7099,0.7056,0.7038,0.6933,0.674,0.6465,0.6366,0.6331,0.631,0.6205,0.5969,0.5851,0.5689,0.551,0.5442,0.5366,0.5251,0.5186,0.5118,0.4985,0.4849,0.4697,0.4526,0.4482,0.4384,0.4306,0.4197,0.4102,0.4094,0.4092,0.4096,0.407,0.4143,0.4227,0.4279,0.4301,0.4289,0.4325,0.4367,0.4028,0.3713,0.414,0.4017,0.3866,0.3499,0.3547,0.3561,0.3101,0.2766,0.2935,0.3079,0.3114,0.3203,0.3301,0.3377,0.3651,0.3814,0.3854,0.3876,0.3905,0.3889,0.3863,0.3895,0.3933,0.3955,0.3985,0.4045,0.4006,0.4045,0.3982,0.3637,0.3384,0.3278,0.3076,0.2766,0.2405,0.2018,0.1525,0.1095,0.9931,0.9205,0.8791,0.793,0.6802,0.6796,0.6787,0.6738,0.6654,0.663,0.6616,0.6487,0.65,0.6649,0.6747,0.6866,0.6964,0.6991,0.7048,0.7191,0.721,0.7268,0.7368,0.7373,0.7271,0.7246,0.7258,0.7181,0.6973,0.6852,0.6875,0.6856,0.7009,0.7095,0.7238,0.7159,0.7174,0.7134,0.7165,0.7076,0.696,0.6824,0.6723,0.6799,0.6738,0.6588,0.6406,0.6302,0.6072,0.5854,0.5738,0.5646,0.5466,0.5338,0.5276,0.5116,0.4963,0.4825,0.4651,0.4553,0.4454,0.4333,0.4251,0.423,0.4221,0.4216,0.4216,0.4221,0.4265,0.4361,0.4464,0.4464,0.4531,0.4534,0.4531,0.4395,0.4156,0.4359,0.4496,0.4344,0.4223,0.4236,0.4225,0.3901,0.3482,0.3421,0.3487,0.3491,0.3519,0.3579,0.3672,0.3789,0.3928,0.3998,0.4012,0.4011,0.3994,0.3959,0.3976,0.4045,0.404,0.4078,0.4119,0.4162,0.4129,0.4053,0.3988,0.3837,0.3612,0.3505,0.3399,0.2993,0.2609,0.2347,0.1943,0.9967,0.9053,0.9017,0.8176,0.6988,0.6872,0.6855,0.6861,0.6774,0.673,0.6722,0.6641,0.6657,0.6749,0.6866,0.6964,0.7027,0.7084,0.713,0.7188,0.7213,0.7379,0.7462,0.7541,0.7501,0.7595,0.7522,0.7355,0.7238,0.719,0.716,0.7006,0.737,0.7402,0.7394,0.7418,0.7458,0.7468,0.7359,0.7269,0.7192,0.707,0.704,0.7088,0.7122,0.7006,0.6835,0.6696,0.6458,0.6188,0.6047,0.5855,0.5564,0.5383,0.5333,0.517,0.5061,0.4915,0.473,0.4597,0.4503,0.4379,0.4306,0.4284,0.4289,0.4303,0.4364,0.4381,0.4389,0.4495,0.4595,0.4628,0.4661,0.4728,0.4761,0.4794,0.4794,0.4761,0.4761,0.4659,0.4549,0.4623,0.4597,0.4514,0.4283,0.4022,0.3904,0.3841,0.3832,0.3835,0.3884,0.3946,0.4061,0.4132,0.4143,0.4113,0.4094,0.4081,0.4097,0.4116,0.414,0.4156,0.4213,0.4213,0.42,0.4181,0.4121,0.4037,0.3927,0.3806,0.3671,0.3492,0.3208,0.2998,0.2616,0.9723,0.835,0.817,0.7604,0.6834,0.6929,0.6844,0.6717,0.6869,0.6815,0.6706,0.6834,0.6975,0.7122,0.7128,0.7158,0.7191,0.7196,0.7199,0.7202,0.721,0.7382,0.7552,0.7533,0.749,0.7629,0.7695,0.7538,0.7387,0.7664,0.7623,0.7588,0.7779,0.7965,0.7952,0.7862,0.7813,0.7796,0.7654,0.7558,0.7505,0.7381,0.7254,0.7192,0.7134,0.7049,0.7146,0.6979,0.6735,0.6476,0.6325,0.6009,0.5695,0.5468,0.5339,0.5189,0.5196,0.5068,0.4865,0.4708,0.4624,0.4506,0.439,0.4344,0.4333,0.4311,0.4367,0.4542,0.4545,0.4643,0.4737,0.4794,0.4827,0.4894,0.496,0.4964,0.4964,0.4927,0.4894,0.4858,0.4869,0.4937,0.4927,0.4829,0.458,0.4279,0.4016,0.3922,0.3947,0.3963,0.4034,0.4086,0.4205,0.4257,0.427,0.4257,0.4221,0.4213,0.4224,0.4243,0.4268,0.4278,0.4262,0.4268,0.4259,0.427,0.4268,0.4199,0.4154,0.4069,0.3981,0.3878,0.3714,0.3485,0.3031,0.8661,0.7504,0.7328,0.7163,0.6912,0.6885,0.682,0.6757,0.6831,0.6828,0.6747,0.7032,0.7169,0.7199,0.721,0.721,0.721,0.721,0.721,0.7268,0.7379,0.7604,0.7752,0.7886,0.804,0.8127,0.8123,0.7981,0.795,0.8039,0.808,0.8118,0.8127,0.8205,0.8206,0.8187,0.8119,0.8002,0.7892,0.7842,0.7842,0.7789,0.7686,0.7677,0.7657,0.7481,0.7367,0.7309,0.7042,0.6783,0.6661,0.6344,0.594,0.5693,0.5455,0.5289,0.5368,0.5265,0.501,0.4862,0.4711,0.4646,0.4572,0.4517,0.4483,0.4509,0.4611,0.4696,0.4751,0.4849,0.5046,0.5051,0.5024,0.5126,0.5166,0.5143,0.513,0.5093,0.5093,0.5093,0.516,0.5243,0.5176,0.5107,0.4823,0.4505,0.4232,0.4019,0.404,0.4056,0.411,0.4189,0.4262,0.4292,0.43,0.4303,0.4303,0.4336,0.4334,0.4367,0.44,0.43,0.4289,0.43,0.4336,0.4361,0.4378,0.4383,0.4336,0.4274,0.431,0.4329,0.417,0.3953,0.3625,0.7744,0.6903,0.6747,0.6831,0.6999,0.6869,0.6804,0.6804,0.6804,0.6828,0.6866,0.7037,0.7182,0.7193,0.7166,0.7188,0.7199,0.721,0.7268,0.7379,0.7549,0.7826,0.8057,0.8243,0.8283,0.8548,0.8421,0.8255,0.8126,0.834,0.8326,0.823,0.8285,0.8384,0.8312,0.8275,0.8147,0.8015,0.7988,0.7988,0.7988,0.7988,0.7939,0.7958,0.7838,0.7769,0.7579,0.7524,0.7324,0.7105,0.6951,0.6783,0.6409,0.5996,0.5735,0.5571,0.549,0.5491,0.533,0.4939,0.489,0.5087,0.4856,0.4802,0.4797,0.4842,0.4947,0.5014,0.5045,0.5121,0.5431,0.5403,0.5321,0.5396,0.54,0.5393,0.5319,0.5292,0.5329,0.5326,0.5395,0.5399,0.5296,0.5226,0.5005,0.4704,0.4347,0.4172,0.4148,0.4162,0.4211,0.4249,0.4289,0.43,0.4303,0.4431,0.4561,0.4464,0.4498,0.4534,0.45,0.4434,0.4434,0.4534,0.4534,0.4467,0.4522,0.4635,0.4563,0.4487,0.4519,0.4583,0.4433,0.4253,0.4354,0.7201,0.6603,0.646,0.6725,0.7128,0.6896,0.6793,0.6766,0.6782,0.6839,0.6918,0.6978,0.7048,0.7155,0.7103,0.7128,0.7199,0.721,0.7324,0.7496,0.7631,0.7922,0.8194,0.8368,0.8378,0.8426,0.8323,0.8174,0.8062,0.8279,0.8303,0.8567,0.8755,0.8646,0.8344,0.813,0.8002,0.7988,0.7988,0.7988,0.7988,0.7988,0.7988,0.7944,0.7834,0.7759,0.7748,0.7664,0.7462,0.7255,0.7242,0.7028,0.67,0.6174,0.5915,0.5865,0.5431,0.5472,0.5812,0.5199,0.5179,0.546,0.5179,0.5131,0.5276,0.5369,0.5473,0.5685,0.5606,0.5616,0.5714,0.573,0.5674,0.562,0.5593,0.56,0.5528,0.5764,0.5853,0.5702,0.5527,0.5439,0.5369,0.5302,0.5163,0.4888,0.4495,0.4389,0.4469,0.44,0.443,0.4701,0.4794,0.496,0.5024,0.4824,0.4791,0.4694,0.4694,0.4827,0.4764,0.4664,0.4697,0.4731,0.4697,0.4631,0.4761,0.4924,0.4857,0.479,0.4731,0.4724,0.4603,0.4615,0.4737,0.6963,0.6616,0.6524,0.6698,0.6883,0.6752,0.6638,0.6584,0.6641,0.6706,0.6755,0.682,0.6929,0.6991,0.7076,0.7095,0.7188,0.721,0.7324,0.7593,0.7685,0.7974,0.8237,0.8375,0.8357,0.8408,0.8272,0.8238,0.8353,0.836,0.8954,0.9339,0.9309,0.9119,0.8605,0.8265,0.8157,0.8008,0.7988,0.7988,0.7988,0.7988,0.7988,0.7982,0.7828,0.775,0.788,0.7786,0.7643,0.7574,0.761,0.7497,0.7164,0.667,0.6343,0.6275,0.5968,0.6392,0.6511,0.611,0.5287,0.5424,0.5507,0.5613,0.608,0.6313,0.6383,0.6434,0.6382,0.6321,0.6032,0.5873,0.5762,0.5745,0.5725,0.5722,0.5793,0.627,0.6522,0.6183,0.5965,0.6177,0.6233,0.6274,0.612,0.5903,0.5668,0.5342,0.5342,0.4948,0.4848,0.5305,0.5547,0.5745,0.5811,0.5719,0.5605,0.5586,0.5435,0.5286,0.5156,0.5024,0.4861,0.4897,0.4827,0.4794,0.5024,0.5223,0.516,0.5094,0.5137,0.5088,0.5016,0.5045,0.5169,0.6657,0.6545,0.6554,0.66,0.6665,0.6632,0.6529,0.642,0.6502,0.6578,0.6687,0.6972,0.7102,0.7149,0.7325,0.7257,0.7304,0.7367,0.759,0.7795,0.7837,0.811,0.8292,0.8337,0.8352,0.8353,0.8262,0.8218,0.8272,0.8367,0.873,0.9268,0.9824,0.9272,0.8715,0.8333,0.8187,0.8032,0.7988,0.7988,0.7988,0.7988,0.7988,0.7931,0.7855,0.7866,0.8037,0.8085,0.8114,0.8227,0.839,0.8383,0.8197,0.7721,0.7335,0.7184,0.6774,0.6994,0.6867,0.6973,0.6447,0.6594,0.6167,0.6465,0.7171,0.7484,0.7297,0.7223,0.72,0.6719,0.6241,0.6066,0.6258,0.6244,0.6487,0.6483,0.6698,0.7247,0.7318,0.6952,0.6829,0.7022,0.7211,0.7285,0.7285,0.7074,0.6903,0.6622,0.6283,0.5885,0.5608,0.5976,0.6325,0.6482,0.6643,0.6692,0.6618,0.6514,0.6262,0.5999,0.5774,0.5646,0.5355,0.516,0.5388,0.5517,0.5484,0.5517,0.5617,0.5716,0.5763,0.5665,0.5458,0.5557,0.5719,0.6214,0.641,0.6426,0.642,0.6442,0.6608,0.6498,0.6347,0.6401,0.651,0.6622,0.7386,0.7504,0.7271,0.7952,0.799,0.7576,0.7696,0.7922,0.8097,0.8009,0.8266,0.8423,0.847,0.8522,0.8425,0.8272,0.815,0.8096,0.8936,0.9124,0.8994,0.99,0.9465,0.8955,0.8436,0.8245,0.8096,0.8283,0.8187,0.8088,0.8156,0.8142,0.8059,0.7945,0.8273,0.8563,0.887,0.9235,0.9673,1.0237,1.0403,1.012,0.9372,0.8888,0.8186,0.7224,0.7126,0.713,0.7326,0.7931,0.8037,0.7617,0.7957,0.8329,0.8562,0.8288,0.7875,0.7673,0.7034,0.6486,0.6752,0.7052,0.7331,0.7664,0.7842,0.7973,0.8155,0.8196,0.8053,0.7963,0.8054,0.816,0.8237,0.8358,0.8552,0.8373,0.8098,0.7701,0.7029,0.6818,0.69,0.717,0.7242,0.7408,0.7778,0.7726,0.7696,0.7189,0.6871,0.6601,0.6342,0.6174,0.6075,0.6207,0.6305,0.6272,0.6239,0.6268,0.6334,0.6338,0.6042,0.5815,0.6243,0.6437,0.6045,0.6232,0.6709,0.69,0.6891,0.6893,0.6734,0.6541,0.6472,0.6454,0.6613,0.7333,0.7677,0.7644,0.8027,0.8226,0.8135,0.8002,0.8062,0.816,0.8249,0.873,0.8841,0.8751,0.8762,0.8725,0.861,0.8247,0.8624,0.9504,0.9957,0.9756,1.0552,1.019,0.9446,0.872,0.8356,0.8353,0.873,0.8687,0.8545,0.8679,0.8514,0.8233,0.8273,0.8648,0.8934,0.949,0.9839,1.0093,1.0184,1.027,1.0519,0.9334,0.832,0.7204,0.7076,0.7444,0.7549,0.7706,0.8389,0.9339,0.9069,0.9074,0.9382,0.9458,0.9155,0.8699,0.8169,0.7595,0.6887,0.6911,0.7365,0.7791,0.8199,0.8534,0.8758,0.9202,0.9196,0.8963,0.8865,0.898,0.9083,0.9227,0.938,0.979,0.9851,0.9498,0.9071,0.8362,0.8044,0.8077,0.8192,0.8337,0.8779,0.9187,0.8999,0.883,0.8213,0.7721,0.7441,0.7205,0.703,0.699,0.7055,0.706,0.706,0.7027,0.6924,0.6826,0.6793,0.6433,0.6301,0.6793,0.712,0.625,0.6172,0.6835,0.7114,0.7098,0.7025,0.6849,0.6523,0.635,0.6511,0.7015,0.7796,0.8291,0.88,0.8987,0.9019,0.9016,0.8438,0.8232,0.8345,0.8525,0.909,0.9256,0.946,0.9496,0.9361,0.8981,0.8585,0.8903,1.0112,1.0865,1.0069,1.1225,1.0804,0.9868,0.8929,0.8588,0.8811,0.9175,0.9401,0.953,0.9421,0.8952,0.8817,0.8932,0.9013,0.9479,1.0083,1.0549,1.0954,1.1056,1.1357,1.141,1.0341,0.913,0.8154,0.765,0.8273,0.8654,0.8737,0.9511,1.0137,1.0244,1.025,1.025,1.0325,0.9836,0.9344,0.8851,0.8246,0.7474,0.6921,0.7526,0.8091,0.857,0.9053,0.9576,1.0171,1.0078,0.9793,0.9798,0.9902,1.0022,1.0174,1.0315,1.0513,1.0551,1.0372,1.0025,0.9551,0.9262,0.9237,0.9372,0.9514,0.9957,1.0118,0.9915,0.9505,0.8947,0.8498,0.828,0.8054,0.7811,0.7772,0.7809,0.7842,0.7809,0.7642,0.7512,0.7479,0.7512,0.7409,0.7377,0.7609,0.7804,0.6774,0.6327,0.6942,0.7336,0.7219,0.724,0.6903,0.6401,0.6353,0.6724,0.7599,0.8445,0.9341,0.9975,0.9949,0.98,0.948,0.888,0.8308,0.8567,0.9137,0.9678,1.0212,1.0636,1.0355,0.9948,0.9426,0.8912,0.882,0.9866,1.074,1.0175,1.1009,1.1001,1.0213,0.9517,0.9346,0.9633,1.004,1.036,1.0699,1.0369,0.9679,0.9783,0.9626,0.9515,1.0369,1.1071,1.18,1.2445,1.2835,1.2942,1.226,1.1636,1.0513,0.9744,0.8862,0.909,0.9645,0.9809,1.0192,1.0761,1.1074,1.0887,1.0775,1.085,1.04,0.9803,0.9236,0.8475,0.7654,0.7727,0.8221,0.879,0.9316,1.0074,1.0903,1.1074,1.0741,1.0521,1.0479,1.0558,1.0601,1.0701,1.0652,1.0959,1.1015,1.0894,1.0743,1.0361,1.0195,1.0124,1.0124,1.0143,1.0307,1.0442,1.0497,1.0137,0.9599,0.9326,0.9134,0.8859,0.8565,0.856,0.856,0.856,0.8522,0.8264,0.8166,0.8393,0.8425,0.8484,0.8522,0.849,0.8528,0.7512,0.7461,0.8176,0.8488,0.8399,0.7864,0.7355,0.6947,0.7201,0.7661,0.8241,0.8915,0.997,1.1155,1.0367,1.0129,1.0132,0.9013,0.8477,0.8738,0.9369,1.0237,1.0794,1.1309,1.1086,1.0685,1.0019,0.9076,0.8754,0.9614,1.0789,1.1047,1.1539,1.134,1.082,1.0245,1.0358,1.0386,1.0963,1.1068,1.113,1.1442,1.124,1.0779,1.0397,1.0701,1.1354,1.1875,1.232,1.2735,1.2759,1.2443,1.1789,1.1577,1.0891,1.0028,0.9989,1.0147,1.0354,1.0634,1.0868,1.0869,1.0972,1.0936,1.0962,1.1074,1.0824,1.0197,0.9516,0.868,0.8292,0.8596,0.8962,0.9527,1.0094,1.1068,1.2051,1.173,1.1359,1.122,1.1135,1.1117,1.1117,1.1117,1.1117,1.1111,1.1099,1.1063,1.1045,1.0809,1.0539,1.0444,1.0515,1.0569,1.0677,1.0713,1.0731,1.0665,1.0219,1.0049,0.9915,0.9562,0.9221,0.923,0.9253,0.9188,0.9037,0.8689,0.8689,0.8992,0.8952,0.885,0.9017,0.9081,0.9183,0.8051,0.7827,0.8808,0.9196,0.9104,0.8536,0.8181,0.8036,0.7915,0.859,0.9604,1.0,1.0876,1.2001,1.0905,1.0485,1.0523,0.9075,0.8487,0.863,0.9746,1.072,1.1394,1.2071,1.1771,1.1311,0.962,0.8639,0.8501,0.9857,1.1057,1.1364,1.166,1.1732,1.1231,1.1071,1.0995,1.0735,1.1595,1.182,1.1544,1.1794,1.1842,1.1373,1.1342,1.1553,1.1761,1.2187,1.2577,1.2765,1.2843,1.2672,1.2163,1.1839,1.157,1.1187,1.102,1.0982,1.1117,1.1225,1.1345,1.1287,1.1307,1.1406,1.1414,1.1492,1.1315,1.0735,1.0193,0.9421,0.9438,0.9665,0.9876,1.0336,1.0677,1.1277,1.1758,1.173,1.1413,1.1166,1.1117,1.1117,1.1117,1.1117,1.1117,1.1117,1.1117,1.1117,1.1117,1.1117,1.09,1.0749,1.0803,1.0858,1.0918,1.0942,1.0954,1.0827,1.0701,1.0414,1.0135,1.0002,0.9844,0.9784,0.9748,0.9733,0.9511,0.9188,0.9192,0.9479,0.932,0.9119,0.9318,0.9478,0.9446,0.8729,0.8208,0.9338,0.984,0.9763,0.9362,0.9213,0.9253,0.8763,0.9566,1.111,1.1061,1.2267,1.2447,1.1614,1.1368,1.0649,0.9248,0.8621,0.8856,1.0421,1.0979,1.2004,1.3144,1.2518,1.1208,0.9468,0.8663,0.818,0.9673,1.0681,1.121,1.1604,1.1864,1.1239,1.1057,1.1129,1.1146,1.1639,1.226,1.2303,1.2336,1.2181,1.2046,1.1886,1.1592,1.1871,1.2218,1.2674,1.2759,1.2862,1.2739,1.2549,1.2175,1.2276,1.2049,1.17,1.1742,1.1928,1.1891,1.1882,1.1856,1.1898,1.1868,1.1814,1.1724,1.1579,1.1339,1.0785,1.0464,1.0456,1.0673,1.0888,1.1043,1.1297,1.1486,1.1682,1.183,1.1528,1.122,1.1148,1.1148,1.1129,1.1123,1.1117,1.1117,1.1117,1.1117,1.1117,1.1117,1.1021,1.0966,1.0979,1.1045,1.1087,1.1075,1.1057,1.0972,1.0791,1.0569,1.0364,1.019,1.0112,1.016,1.0136,1.0075,1.0015,0.9764,0.9852,0.9889,0.967,0.9409,0.935,0.9478,0.9478,1.0576,1.0613,1.0875,1.0977,1.0878,1.0553,1.0357,1.0415,1.0642,1.1182,1.165,1.2243,1.2889,1.35,1.2035,1.1323,1.0692,0.9376,0.8566,0.8485,1.028,1.0942,1.1795,1.31,1.278,1.138,0.9817,0.8996,0.8453,0.9205,1.0132,1.0988,1.1687,1.1964,1.1943,1.1887,1.2113,1.1863,1.2004,1.2744,1.2693,1.2699,1.2746,1.2695,1.2712,1.2583,1.261,1.2612,1.2662,1.2723,1.2759,1.2759,1.2679,1.2514,1.2576,1.2564,1.2209,1.2211,1.2296,1.23,1.221,1.2053,1.2006,1.1988,1.194,1.1904,1.1868,1.1988,1.1531,1.1084,1.112,1.1656,1.1931,1.1861,1.1969,1.2089,1.2218,1.2035,1.1757,1.1479,1.1274,1.1232,1.1172,1.1154,1.1117,1.1117,1.1117,1.1117,1.1117,1.1117,1.1117,1.1155,1.1149,1.1117,1.1105,1.1105,1.1081,1.1015,1.093,1.0713,1.0527,1.0334,1.0298,1.0424,1.0364,1.0274,1.0214,1.0214,1.01,1.0045,0.9931,0.9766,0.9604,0.9526,0.96]}]]